Wetterdaten: Donnerstag, 19.01.2017
Datum Zeit Temp. A. Feuchte A. Luftdruck Regen Wind Richtung Richtung Sonnenschein ET UV Solar Taupunkt Windchill Windben Empfang
19.01.2017 00:00 -8,4 C 88 % 1035,6 hPa 0,0 l/m 5,0 km/h (1 Bft) NO 55 0 min 0,000 mm 0,0 UV-I 0 W/m -10,0 C -8,4 C 6,4 km/h (2 Bft) 100,00 %
19.01.2017 00:02 -8,4 C 88 % 1035,7 hPa 0,0 l/m 6,3 km/h (2 Bft) O-NO 63 0 min 0,000 mm 0,0 UV-I 0 W/m -10,0 C -8,4 C 8,0 km/h (2 Bft) 97,78 %
19.01.2017 00:04 -8,4 C 88 % 1035,6 hPa 0,0 l/m 6,5 km/h (2 Bft) O-NO 57 0 min 0,000 mm 0,0 UV-I 0 W/m -10,0 C -8,5 C 9,7 km/h (2 Bft) 100,00 %
19.01.2017 00:06 -8,4 C 89 % 1035,6 hPa 0,0 l/m 8,0 km/h (2 Bft) O-NO 67 0 min 0,000 mm 0,0 UV-I 0 W/m -9,9 C -10,5 C 14,5 km/h (3 Bft) 100,00 %
19.01.2017 00:08 -8,3 C 89 % 1035,6 hPa 0,0 l/m 11,3 km/h (2 Bft) O-NO 59 0 min 0,000 mm 0,0 UV-I 0 W/m -9,8 C -13,9 C 16,1 km/h (3 Bft) 97,37 %
19.01.2017 00:10 -8,2 C 90 % 1035,6 hPa 0,0 l/m 10,8 km/h (2 Bft) O-NO 69 0 min 0,000 mm 0,0 UV-I 0 W/m -9,5 C -13,3 C 14,5 km/h (3 Bft) 93,62 %
19.01.2017 00:12 -8,2 C 89 % 1035,6 hPa 0,0 l/m 9,8 km/h (2 Bft) NO 51 0 min 0,000 mm 0,0 UV-I 0 W/m -9,7 C -12,3 C 16,1 km/h (3 Bft) 100,00 %
19.01.2017 00:14 -8,2 C 90 % 1035,5 hPa 0,0 l/m 10,3 km/h (2 Bft) O-NO 66 0 min 0,000 mm 0,0 UV-I 0 W/m -9,5 C -12,8 C 17,7 km/h (3 Bft) 97,87 %
19.01.2017 00:16 -8,1 C 89 % 1035,6 hPa 0,0 l/m 9,2 km/h (2 Bft) O-NO 64 0 min 0,000 mm 0,0 UV-I 0 W/m -9,6 C -11,5 C 14,5 km/h (3 Bft) 100,00 %
19.01.2017 00:18 -8,1 C 89 % 1035,6 hPa 0,0 l/m 9,8 km/h (2 Bft) O-NO 57 0 min 0,000 mm 0,0 UV-I 0 W/m -9,6 C -12,2 C 12,9 km/h (3 Bft) 95,74 %
19.01.2017 00:20 -8,1 C 89 % 1035,6 hPa 0,0 l/m 9,4 km/h (2 Bft) O-NO 58 0 min 0,000 mm 0,0 UV-I 0 W/m -9,6 C -11,8 C 14,5 km/h (3 Bft) 95,74 %
19.01.2017 00:22 -8,1 C 89 % 1035,5 hPa 0,0 l/m 9,2 km/h (2 Bft) NO 51 0 min 0,000 mm 0,0 UV-I 0 W/m -9,6 C -11,5 C 12,9 km/h (3 Bft) 93,62 %
19.01.2017 00:24 -8,1 C 89 % 1035,5 hPa 0,0 l/m 8,8 km/h (2 Bft) O-NO 71 0 min 0,000 mm 0,0 UV-I 0 W/m -9,6 C -11,1 C 12,9 km/h (3 Bft) 97,87 %
19.01.2017 00:26 -8,1 C 89 % 1035,5 hPa 0,0 l/m 8,7 km/h (2 Bft) O-NO 67 0 min 0,000 mm 0,0 UV-I 0 W/m -9,6 C -11,0 C 12,9 km/h (3 Bft) 96,00 %
19.01.2017 00:28 -8,2 C 89 % 1035,5 hPa 0,0 l/m 10,2 km/h (2 Bft) O-NO 68 0 min 0,000 mm 0,0 UV-I 0 W/m -9,7 C -12,7 C 16,1 km/h (3 Bft) 97,87 %
19.01.2017 00:30 -8,2 C 89 % 1035,5 hPa 0,0 l/m 9,2 km/h (2 Bft) NO 54 0 min 0,000 mm 0,0 UV-I 0 W/m -9,7 C -11,7 C 14,5 km/h (3 Bft) 97,22 %
19.01.2017 00:32 -8,2 C 89 % 1035,5 hPa 0,0 l/m 8,4 km/h (2 Bft) NO 48 0 min 0,000 mm 0,0 UV-I 0 W/m -9,7 C -10,7 C 14,5 km/h (3 Bft) 98,00 %
19.01.2017 00:34 -8,3 C 89 % 1035,5 hPa 0,0 l/m 7,9 km/h (2 Bft) O-NO 61 0 min 0,000 mm 0,0 UV-I 0 W/m -9,8 C -10,2 C 12,9 km/h (3 Bft) 97,87 %
19.01.2017 00:36 -8,3 C 89 % 1035,5 hPa 0,0 l/m 8,9 km/h (2 Bft) NO 51 0 min 0,000 mm 0,0 UV-I 0 W/m -9,8 C -11,4 C 12,9 km/h (3 Bft) 97,87 %
19.01.2017 00:38 -8,3 C 89 % 1035,5 hPa 0,0 l/m 9,1 km/h (2 Bft) O-NO 74 0 min 0,000 mm 0,0 UV-I 0 W/m -9,8 C -11,6 C 12,9 km/h (3 Bft) 95,74 %
19.01.2017 00:40 -8,3 C 89 % 1035,5 hPa 0,0 l/m 7,2 km/h (2 Bft) NO 49 0 min 0,000 mm 0,0 UV-I 0 W/m -9,8 C -9,3 C 9,7 km/h (2 Bft) 95,74 %
19.01.2017 00:42 -8,3 C 89 % 1035,5 hPa 0,0 l/m 6,6 km/h (2 Bft) NO 55 0 min 0,000 mm 0,0 UV-I 0 W/m -9,8 C -8,5 C 9,7 km/h (2 Bft) 97,87 %
19.01.2017 00:44 -8,3 C 89 % 1035,5 hPa 0,0 l/m 6,7 km/h (2 Bft) NO 35 0 min 0,000 mm 0,0 UV-I 0 W/m -9,8 C -8,7 C 12,9 km/h (3 Bft) 95,74 %
19.01.2017 00:46 -8,4 C 89 % 1035,5 hPa 0,0 l/m 7,6 km/h (2 Bft) NO 37 0 min 0,000 mm 0,0 UV-I 0 W/m -9,9 C -10,0 C 14,5 km/h (3 Bft) 96,00 %
19.01.2017 00:48 -8,4 C 89 % 1035,5 hPa 0,0 l/m 11,7 km/h (2 Bft) NO 38 0 min 0,000 mm 0,0 UV-I 0 W/m -9,9 C -14,4 C 19,3 km/h (3 Bft) 96,00 %
19.01.2017 00:50 -8,4 C 89 % 1035,5 hPa 0,0 l/m 11,6 km/h (2 Bft) O-NO 68 0 min 0,000 mm 0,0 UV-I 0 W/m -9,9 C -14,3 C 17,7 km/h (3 Bft) 95,74 %
19.01.2017 00:52 -8,3 C 90 % 1035,5 hPa 0,0 l/m 9,7 km/h (2 Bft) NO 48 0 min 0,000 mm 0,0 UV-I 0 W/m -9,6 C -12,3 C 19,3 km/h (3 Bft) 97,56 %
19.01.2017 00:54 -8,2 C 90 % 1035,5 hPa 0,0 l/m 12,9 km/h (3 Bft) NO 54 0 min 0,000 mm 0,0 UV-I 0 W/m -9,5 C -15,2 C 17,7 km/h (3 Bft) 98,00 %
19.01.2017 00:56 -8,1 C 90 % 1035,4 hPa 0,0 l/m 12,4 km/h (3 Bft) NO 45 0 min 0,000 mm 0,0 UV-I 0 W/m -9,4 C -14,7 C 20,9 km/h (4 Bft) 100,00 %
19.01.2017 00:58 -8,1 C 90 % 1035,5 hPa 0,0 l/m 12,7 km/h (3 Bft) NO 47 0 min 0,000 mm 0,0 UV-I 0 W/m -9,4 C -14,9 C 19,3 km/h (3 Bft) 95,74 %
19.01.2017 01:00 -7,9 C 91 % 1035,5 hPa 0,0 l/m 14,1 km/h (3 Bft) NO 49 0 min 0,000 mm 0,0 UV-I 0 W/m -9,1 C -15,9 C 20,9 km/h (4 Bft) 97,87 %
19.01.2017 01:02 -7,8 C 90 % 1035,5 hPa 0,0 l/m 13,6 km/h (3 Bft) NO 51 0 min 0,000 mm 0,0 UV-I 0 W/m -9,1 C -15,3 C 17,7 km/h (3 Bft) 100,00 %
19.01.2017 01:04 -7,8 C 90 % 1035,5 hPa 0,0 l/m 12,3 km/h (3 Bft) O-NO 76 0 min 0,000 mm 0,0 UV-I 0 W/m -9,1 C -14,2 C 17,7 km/h (3 Bft) 100,00 %
19.01.2017 01:06 -7,8 C 90 % 1035,5 hPa 0,0 l/m 12,5 km/h (3 Bft) NO 56 0 min 0,000 mm 0,0 UV-I 0 W/m -9,1 C -14,4 C 17,7 km/h (3 Bft) 91,49 %
19.01.2017 01:08 -7,8 C 90 % 1035,4 hPa 0,0 l/m 14,3 km/h (3 Bft) NO 53 0 min 0,000 mm 0,0 UV-I 0 W/m -9,1 C -15,9 C 19,3 km/h (3 Bft) 100,00 %
19.01.2017 01:10 -7,9 C 89 % 1035,5 hPa 0,0 l/m 14,1 km/h (3 Bft) NO 50 0 min 0,000 mm 0,0 UV-I 0 W/m -9,4 C -15,9 C 19,3 km/h (3 Bft) 100,00 %
19.01.2017 01:12 -7,9 C 89 % 1035,4 hPa 0,0 l/m 14,3 km/h (3 Bft) O-NO 66 0 min 0,000 mm 0,0 UV-I 0 W/m -9,4 C -16,0 C 17,7 km/h (3 Bft) 97,87 %
19.01.2017 01:14 -7,9 C 89 % 1035,4 hPa 0,0 l/m 13,8 km/h (3 Bft) NO 45 0 min 0,000 mm 0,0 UV-I 0 W/m -9,4 C -15,6 C 19,3 km/h (3 Bft) 100,00 %
19.01.2017 01:16 -8,0 C 89 % 1035,5 hPa 0,0 l/m 14,7 km/h (3 Bft) NO 48 0 min 0,000 mm 0,0 UV-I 0 W/m -9,5 C -16,4 C 19,3 km/h (3 Bft) 100,00 %
19.01.2017 01:18 -8,0 C 89 % 1035,4 hPa 0,0 l/m 13,6 km/h (3 Bft) NO 51 0 min 0,000 mm 0,0 UV-I 0 W/m -9,5 C -15,6 C 20,9 km/h (4 Bft) 100,00 %
19.01.2017 01:20 -8,1 C 89 % 1035,4 hPa 0,0 l/m 12,1 km/h (2 Bft) NO 42 0 min 0,000 mm 0,0 UV-I 0 W/m -9,6 C -14,4 C 17,7 km/h (3 Bft) 97,87 %
19.01.2017 01:22 -8,1 C 89 % 1035,5 hPa 0,0 l/m 12,3 km/h (3 Bft) O-NO 60 0 min 0,000 mm 0,0 UV-I 0 W/m -9,6 C -14,6 C 16,1 km/h (3 Bft) 100,00 %
19.01.2017 01:24 -8,1 C 89 % 1035,5 hPa 0,0 l/m 12,1 km/h (2 Bft) NO 46 0 min 0,000 mm 0,0 UV-I 0 W/m -9,6 C -14,4 C 17,7 km/h (3 Bft) 100,00 %
19.01.2017 01:26 -8,2 C 89 % 1035,5 hPa 0,0 l/m 9,7 km/h (2 Bft) NO 53 0 min 0,000 mm 0,0 UV-I 0 W/m -9,7 C -12,2 C 16,1 km/h (3 Bft) 100,00 %
19.01.2017 01:28 -8,2 C 90 % 1035,5 hPa 0,0 l/m 12,1 km/h (2 Bft) NO 45 0 min 0,000 mm 0,0 UV-I 0 W/m -9,5 C -14,5 C 17,7 km/h (3 Bft) 97,87 %
19.01.2017 01:30 -8,2 C 90 % 1035,5 hPa 0,0 l/m 9,6 km/h (2 Bft) O-NO 69 0 min 0,000 mm 0,0 UV-I 0 W/m -9,5 C -12,1 C 14,5 km/h (3 Bft) 97,87 %
19.01.2017 01:32 -8,2 C 90 % 1035,5 hPa 0,0 l/m 14,2 km/h (3 Bft) O-NO 65 0 min 0,000 mm 0,0 UV-I 0 W/m -9,5 C -16,3 C 22,5 km/h (4 Bft) 98,00 %
19.01.2017 01:34 -8,2 C 90 % 1035,5 hPa 0,0 l/m 11,6 km/h (2 Bft) O-NO 69 0 min 0,000 mm 0,0 UV-I 0 W/m -9,5 C -14,1 C 20,9 km/h (4 Bft) 100,00 %
19.01.2017 01:36 -8,3 C 90 % 1035,5 hPa 0,0 l/m 10,9 km/h (2 Bft) N-NO 22 0 min 0,000 mm 0,0 UV-I 0 W/m -9,6 C -13,5 C 16,1 km/h (3 Bft) 100,00 %
19.01.2017 01:38 -8,3 C 90 % 1035,5 hPa 0,0 l/m 12,1 km/h (2 Bft) NO 47 0 min 0,000 mm 0,0 UV-I 0 W/m -9,6 C -14,6 C 17,7 km/h (3 Bft) 95,74 %
19.01.2017 01:40 -8,3 C 90 % 1035,5 hPa 0,0 l/m 13,1 km/h (3 Bft) NO 39 0 min 0,000 mm 0,0 UV-I 0 W/m -9,6 C -15,5 C 19,3 km/h (3 Bft) 97,87 %
19.01.2017 01:42 -8,2 C 90 % 1035,5 hPa 0,0 l/m 13,5 km/h (3 Bft) NO 52 0 min 0,000 mm 0,0 UV-I 0 W/m -9,5 C -15,7 C 22,5 km/h (4 Bft) 97,87 %
19.01.2017 01:44 -8,3 C 90 % 1035,6 hPa 0,0 l/m 15,4 km/h (3 Bft) NO 52 0 min 0,000 mm 0,0 UV-I 0 W/m -9,6 C -17,3 C 20,9 km/h (4 Bft) 100,00 %
19.01.2017 01:46 -8,3 C 90 % 1035,5 hPa 0,0 l/m 14,6 km/h (3 Bft) NO 47 0 min 0,000 mm 0,0 UV-I 0 W/m -9,6 C -16,7 C 19,3 km/h (3 Bft) 97,87 %
19.01.2017 01:48 -8,3 C 90 % 1035,6 hPa 0,0 l/m 14,5 km/h (3 Bft) NO 55 0 min 0,000 mm 0,0 UV-I 0 W/m -9,6 C -16,7 C 17,7 km/h (3 Bft) 100,00 %
19.01.2017 01:50 -8,4 C 90 % 1035,6 hPa 0,0 l/m 15,0 km/h (3 Bft) NO 47 0 min 0,000 mm 0,0 UV-I 0 W/m -9,7 C -17,2 C 20,9 km/h (4 Bft) 97,87 %
19.01.2017 01:52 -8,4 C 90 % 1035,6 hPa 0,0 l/m 12,8 km/h (3 Bft) NO 52 0 min 0,000 mm 0,0 UV-I 0 W/m -9,7 C -15,4 C 19,3 km/h (3 Bft) 100,00 %
19.01.2017 01:54 -8,5 C 90 % 1035,6 hPa 0,0 l/m 10,1 km/h (2 Bft) N-NO 26 0 min 0,000 mm 0,0 UV-I 0 W/m -9,8 C -12,9 C 16,1 km/h (3 Bft) 100,00 %
19.01.2017 01:56 -8,6 C 90 % 1035,6 hPa 0,0 l/m 9,5 km/h (2 Bft) NO 46 0 min 0,000 mm 0,0 UV-I 0 W/m -9,9 C -12,4 C 14,5 km/h (3 Bft) 95,74 %
19.01.2017 01:58 -8,7 C 90 % 1035,6 hPa 0,0 l/m 9,2 km/h (2 Bft) NO 34 0 min 0,000 mm 0,0 UV-I 0 W/m -10,0 C -12,2 C 12,9 km/h (3 Bft) 100,00 %
19.01.2017 02:00 -8,7 C 90 % 1035,6 hPa 0,0 l/m 9,0 km/h (2 Bft) O-NO 66 0 min 0,000 mm 0,0 UV-I 0 W/m -10,0 C -12,0 C 14,5 km/h (3 Bft) 97,87 %
19.01.2017 02:02 -8,7 C 90 % 1035,6 hPa 0,0 l/m 9,4 km/h (2 Bft) NO 54 0 min 0,000 mm 0,0 UV-I 0 W/m -10,0 C -12,4 C 14,5 km/h (3 Bft) 100,00 %
19.01.2017 02:04 -8,7 C 90 % 1035,6 hPa 0,0 l/m 13,8 km/h (3 Bft) O-NO 58 0 min 0,000 mm 0,0 UV-I 0 W/m -10,0 C -16,6 C 16,1 km/h (3 Bft) 100,00 %
19.01.2017 02:06 -8,7 C 90 % 1035,6 hPa 0,0 l/m 15,6 km/h (3 Bft) NO 45 0 min 0,000 mm 0,0 UV-I 0 W/m -10,0 C -18,0 C 17,7 km/h (3 Bft) 100,00 %
19.01.2017 02:08 -8,7 C 91 % 1035,7 hPa 0,0 l/m 16,2 km/h (3 Bft) O-NO 64 0 min 0,000 mm 0,0 UV-I 0 W/m -9,9 C -18,4 C 20,9 km/h (4 Bft) 97,87 %
19.01.2017 02:10 -8,6 C 91 % 1035,7 hPa 0,0 l/m 16,5 km/h (3 Bft) O-NO 68 0 min 0,000 mm 0,0 UV-I 0 W/m -9,8 C -18,5 C 20,9 km/h (4 Bft) 100,00 %
19.01.2017 02:12 -8,6 C 91 % 1035,7 hPa 0,0 l/m 17,3 km/h (3 Bft) O-NO 74 0 min 0,000 mm 0,0 UV-I 0 W/m -9,8 C -19,0 C 22,5 km/h (4 Bft) 97,87 %
19.01.2017 02:14 -8,6 C 91 % 1035,7 hPa 0,0 l/m 18,1 km/h (3 Bft) O-NO 59 0 min 0,000 mm 0,0 UV-I 0 W/m -9,8 C -19,6 C 20,9 km/h (4 Bft) 100,00 %
19.01.2017 02:16 -8,6 C 91 % 1035,7 hPa 0,0 l/m 16,3 km/h (3 Bft) O-NO 65 0 min 0,000 mm 0,0 UV-I 0 W/m -9,8 C -18,4 C 20,9 km/h (4 Bft) 97,37 %
19.01.2017 02:18 -8,6 C 91 % 1035,6 hPa 0,0 l/m 15,6 km/h (3 Bft) NO 51 0 min 0,000 mm 0,0 UV-I 0 W/m -9,8 C -17,8 C 19,3 km/h (3 Bft) 100,00 %
19.01.2017 02:20 -8,6 C 91 % 1035,6 hPa 0,0 l/m 12,8 km/h (3 Bft) NO 53 0 min 0,000 mm 0,0 UV-I 0 W/m -9,8 C -15,6 C 19,3 km/h (3 Bft) 100,00 %
19.01.2017 02:22 -8,7 C 91 % 1035,6 hPa 0,0 l/m 12,0 km/h (2 Bft) O-NO 57 0 min 0,000 mm 0,0 UV-I 0 W/m -9,9 C -15,0 C 17,7 km/h (3 Bft) 97,87 %
19.01.2017 02:24 -8,7 C 91 % 1035,6 hPa 0,0 l/m 12,7 km/h (3 Bft) O-NO 66 0 min 0,000 mm 0,0 UV-I 0 W/m -9,9 C -15,6 C 20,9 km/h (4 Bft) 95,74 %
19.01.2017 02:26 -8,7 C 91 % 1035,6 hPa 0,0 l/m 14,9 km/h (3 Bft) O-NO 69 0 min 0,000 mm 0,0 UV-I 0 W/m -9,9 C -17,4 C 20,9 km/h (4 Bft) 95,74 %
19.01.2017 02:28 -8,7 C 91 % 1035,6 hPa 0,0 l/m 14,7 km/h (3 Bft) NO 51 0 min 0,000 mm 0,0 UV-I 0 W/m -9,9 C -17,3 C 20,9 km/h (4 Bft) 95,74 %
19.01.2017 02:30 -8,7 C 91 % 1035,5 hPa 0,0 l/m 13,2 km/h (3 Bft) NO 34 0 min 0,000 mm 0,0 UV-I 0 W/m -9,9 C -16,1 C 20,9 km/h (4 Bft) 98,00 %
19.01.2017 02:32 -8,6 C 91 % 1035,5 hPa 0,0 l/m 13,9 km/h (3 Bft) O-NO 68 0 min 0,000 mm 0,0 UV-I 0 W/m -9,8 C -16,5 C 20,9 km/h (4 Bft) 96,00 %
19.01.2017 02:34 -8,6 C 91 % 1035,5 hPa 0,0 l/m 12,6 km/h (3 Bft) O-NO 57 0 min 0,000 mm 0,0 UV-I 0 W/m -9,8 C -15,4 C 19,3 km/h (3 Bft) 95,74 %
19.01.2017 02:36 -8,6 C 91 % 1035,6 hPa 0,0 l/m 11,6 km/h (2 Bft) O-NO 61 0 min 0,000 mm 0,0 UV-I 0 W/m -9,8 C -14,5 C 16,1 km/h (3 Bft) 91,49 %
19.01.2017 02:38 -8,6 C 91 % 1035,6 hPa 0,0 l/m 11,1 km/h (2 Bft) NO 52 0 min 0,000 mm 0,0 UV-I 0 W/m -9,8 C -14,1 C 17,7 km/h (3 Bft) 97,87 %
19.01.2017 02:40 -8,6 C 91 % 1035,6 hPa 0,0 l/m 10,6 km/h (2 Bft) N-NO 30 0 min 0,000 mm 0,0 UV-I 0 W/m -9,8 C -13,6 C 16,1 km/h (3 Bft) 95,74 %
19.01.2017 02:42 -8,6 C 91 % 1035,6 hPa 0,0 l/m 12,7 km/h (3 Bft) O-NO 58 0 min 0,000 mm 0,0 UV-I 0 W/m -9,8 C -15,5 C 19,3 km/h (3 Bft) 97,92 %
19.01.2017 02:44 -8,6 C 91 % 1035,6 hPa 0,0 l/m 13,0 km/h (3 Bft) O-NO 61 0 min 0,000 mm 0,0 UV-I 0 W/m -9,8 C -15,8 C 17,7 km/h (3 Bft) 100,00 %
19.01.2017 02:46 -8,6 C 91 % 1035,6 hPa 0,0 l/m 14,6 km/h (3 Bft) O-NO 63 0 min 0,000 mm 0,0 UV-I 0 W/m -9,8 C -17,1 C 20,9 km/h (4 Bft) 96,77 %
19.01.2017 02:48 -8,6 C 91 % 1035,7 hPa 0,0 l/m 12,1 km/h (2 Bft) O-NO 63 0 min 0,000 mm 0,0 UV-I 0 W/m -9,8 C -15,0 C 17,7 km/h (3 Bft) 97,87 %
19.01.2017 02:50 -8,6 C 91 % 1035,6 hPa 0,0 l/m 14,7 km/h (3 Bft) NO 42 0 min 0,000 mm 0,0 UV-I 0 W/m -9,8 C -17,2 C 19,3 km/h (3 Bft) 97,87 %
19.01.2017 02:52 -8,7 C 91 % 1035,6 hPa 0,0 l/m 12,7 km/h (3 Bft) O-NO 63 0 min 0,000 mm 0,0 UV-I 0 W/m -9,9 C -15,6 C 16,1 km/h (3 Bft) 95,74 %
19.01.2017 02:54 -8,7 C 91 % 1035,6 hPa 0,0 l/m 9,8 km/h (2 Bft) NO 51 0 min 0,000 mm 0,0 UV-I 0 W/m -9,9 C -12,8 C 16,1 km/h (3 Bft) 95,74 %
19.01.2017 02:56 -8,8 C 91 % 1035,7 hPa 0,0 l/m 12,6 km/h (3 Bft) O-NO 74 0 min 0,000 mm 0,0 UV-I 0 W/m -10,0 C -15,7 C 17,7 km/h (3 Bft) 95,74 %
19.01.2017 02:58 -8,7 C 91 % 1035,6 hPa 0,0 l/m 9,7 km/h (2 Bft) O-NO 60 0 min 0,000 mm 0,0 UV-I 0 W/m -9,9 C -12,7 C 14,5 km/h (3 Bft) 97,87 %
19.01.2017 03:00 -8,7 C 91 % 1035,6 hPa 0,0 l/m 9,4 km/h (2 Bft) O-NO 58 0 min 0,000 mm 0,0 UV-I 0 W/m -9,9 C -12,4 C 14,5 km/h (3 Bft) 100,00 %
19.01.2017 03:02 -8,7 C 91 % 1035,6 hPa 0,0 l/m 10,7 km/h (2 Bft) O-NO 70 0 min 0,000 mm 0,0 UV-I 0 W/m -9,9 C -13,8 C 16,1 km/h (3 Bft) 100,00 %
19.01.2017 03:04 -8,7 C 91 % 1035,6 hPa 0,0 l/m 12,8 km/h (3 Bft) O-NO 71 0 min 0,000 mm 0,0 UV-I 0 W/m -9,9 C -15,7 C 20,9 km/h (4 Bft) 100,00 %
19.01.2017 03:06 -8,7 C 91 % 1035,6 hPa 0,0 l/m 14,0 km/h (3 Bft) NO 49 0 min 0,000 mm 0,0 UV-I 0 W/m -9,9 C -16,7 C 17,7 km/h (3 Bft) 97,87 %
19.01.2017 03:08 -8,8 C 91 % 1035,6 hPa 0,0 l/m 15,9 km/h (3 Bft) O-NO 63 0 min 0,000 mm 0,0 UV-I 0 W/m -10,0 C -18,3 C 20,9 km/h (4 Bft) 100,00 %
19.01.2017 03:10 -8,7 C 91 % 1035,6 hPa 0,0 l/m 14,3 km/h (3 Bft) NO 55 0 min 0,000 mm 0,0 UV-I 0 W/m -9,9 C -17,0 C 19,3 km/h (3 Bft) 97,87 %
19.01.2017 03:12 -8,7 C 91 % 1035,6 hPa 0,0 l/m 14,6 km/h (3 Bft) NO 50 0 min 0,000 mm 0,0 UV-I 0 W/m -9,9 C -17,2 C 20,9 km/h (4 Bft) 100,00 %
19.01.2017 03:14 -8,7 C 91 % 1035,6 hPa 0,0 l/m 14,3 km/h (3 Bft) NO 44 0 min 0,000 mm 0,0 UV-I 0 W/m -9,9 C -17,0 C 20,9 km/h (4 Bft) 97,83 %
19.01.2017 03:16 -8,8 C 91 % 1035,6 hPa 0,0 l/m 13,6 km/h (3 Bft) NO 49 0 min 0,000 mm 0,0 UV-I 0 W/m -10,0 C -16,5 C 17,7 km/h (3 Bft) 95,83 %
19.01.2017 03:18 -8,8 C 91 % 1035,6 hPa 0,0 l/m 11,8 km/h (2 Bft) O-NO 65 0 min 0,000 mm 0,0 UV-I 0 W/m -10,0 C -15,0 C 17,7 km/h (3 Bft) 96,15 %
19.01.2017 03:20 -8,8 C 91 % 1035,7 hPa 0,0 l/m 12,8 km/h (3 Bft) O-NO 74 0 min 0,000 mm 0,0 UV-I 0 W/m -10,0 C -15,8 C 19,3 km/h (3 Bft) 100,00 %
19.01.2017 03:22 -8,9 C 91 % 1035,7 hPa 0,0 l/m 12,4 km/h (3 Bft) O-NO 58 0 min 0,000 mm 0,0 UV-I 0 W/m -10,1 C -15,6 C 19,3 km/h (3 Bft) 98,39 %
19.01.2017 03:24 -9,0 C 91 % 1035,7 hPa 0,0 l/m 11,2 km/h (2 Bft) NO 48 0 min 0,000 mm 0,0 UV-I 0 W/m -10,2 C -14,6 C 16,1 km/h (3 Bft) 100,00 %
19.01.2017 03:26 -9,0 C 91 % 1035,8 hPa 0,0 l/m 10,7 km/h (2 Bft) O-NO 60 0 min 0,000 mm 0,0 UV-I 0 W/m -10,2 C -14,1 C 19,3 km/h (3 Bft) 100,00 %
19.01.2017 03:28 -9,1 C 91 % 1035,7 hPa 0,0 l/m 10,9 km/h (2 Bft) O-NO 58 0 min 0,000 mm 0,0 UV-I 0 W/m -10,3 C -14,4 C 14,5 km/h (3 Bft) 97,87 %
19.01.2017 03:30 -9,1 C 91 % 1035,8 hPa 0,0 l/m 10,2 km/h (2 Bft) NO 55 0 min 0,000 mm 0,0 UV-I 0 W/m -10,3 C -13,7 C 14,5 km/h (3 Bft) 100,00 %
19.01.2017 03:32 -9,2 C 91 % 1035,8 hPa 0,0 l/m 9,1 km/h (2 Bft) O-NO 76 0 min 0,000 mm 0,0 UV-I 0 W/m -10,4 C -12,6 C 12,9 km/h (3 Bft) 98,00 %
19.01.2017 03:34 -9,2 C 91 % 1035,8 hPa 0,0 l/m 8,0 km/h (2 Bft) NO 55 0 min 0,000 mm 0,0 UV-I 0 W/m -10,4 C -11,3 C 12,9 km/h (3 Bft) 100,00 %
19.01.2017 03:36 -9,2 C 91 % 1035,8 hPa 0,0 l/m 8,6 km/h (2 Bft) NO 44 0 min 0,000 mm 0,0 UV-I 0 W/m -10,4 C -12,0 C 14,5 km/h (3 Bft) 100,00 %
19.01.2017 03:38 -9,2 C 91 % 1035,7 hPa 0,0 l/m 11,9 km/h (2 Bft) NO 44 0 min 0,000 mm 0,0 UV-I 0 W/m -10,4 C -15,5 C 22,5 km/h (4 Bft) 98,00 %
19.01.2017 03:40 -9,3 C 91 % 1035,7 hPa 0,0 l/m 14,7 km/h (3 Bft) O-NO 63 0 min 0,000 mm 0,0 UV-I 0 W/m -10,5 C -18,0 C 20,9 km/h (4 Bft) 95,74 %
19.01.2017 03:42 -9,3 C 91 % 1035,7 hPa 0,0 l/m 13,7 km/h (3 Bft) NO 37 0 min 0,000 mm 0,0 UV-I 0 W/m -10,5 C -17,2 C 19,3 km/h (3 Bft) 100,00 %
19.01.2017 03:44 -9,3 C 91 % 1035,8 hPa 0,0 l/m 14,2 km/h (3 Bft) NO 38 0 min 0,000 mm 0,0 UV-I 0 W/m -10,5 C -17,6 C 22,5 km/h (4 Bft) 100,00 %
19.01.2017 03:46 -9,3 C 91 % 1035,8 hPa 0,0 l/m 13,9 km/h (3 Bft) N-NO 33 0 min 0,000 mm 0,0 UV-I 0 W/m -10,5 C -17,4 C 19,3 km/h (3 Bft) 100,00 %
19.01.2017 03:48 -9,3 C 91 % 1035,8 hPa 0,0 l/m 10,3 km/h (2 Bft) NO 49 0 min 0,000 mm 0,0 UV-I 0 W/m -10,5 C -14,0 C 17,7 km/h (3 Bft) 98,00 %
19.01.2017 03:50 -9,3 C 91 % 1035,8 hPa 0,0 l/m 9,9 km/h (2 Bft) NO 49 0 min 0,000 mm 0,0 UV-I 0 W/m -10,5 C -13,6 C 14,5 km/h (3 Bft) 100,00 %
19.01.2017 03:52 -9,2 C 91 % 1035,8 hPa 0,0 l/m 10,0 km/h (2 Bft) NO 35 0 min 0,000 mm 0,0 UV-I 0 W/m -10,4 C -13,6 C 17,7 km/h (3 Bft) 100,00 %
19.01.2017 03:54 -9,2 C 91 % 1035,8 hPa 0,0 l/m 12,5 km/h (3 Bft) NO 42 0 min 0,000 mm 0,0 UV-I 0 W/m -10,4 C -16,1 C 17,7 km/h (3 Bft) 100,00 %
19.01.2017 03:56 -9,2 C 92 % 1035,8 hPa 0,0 l/m 9,5 km/h (2 Bft) NO 54 0 min 0,000 mm 0,0 UV-I 0 W/m -10,3 C -13,1 C 14,5 km/h (3 Bft) 97,87 %
19.01.2017 03:58 -9,2 C 92 % 1035,8 hPa 0,0 l/m 11,3 km/h (2 Bft) NO 53 0 min 0,000 mm 0,0 UV-I 0 W/m -10,3 C -14,9 C 16,1 km/h (3 Bft) 100,00 %
19.01.2017 04:00 -9,2 C 92 % 1035,7 hPa 0,0 l/m 13,0 km/h (3 Bft) NO 55 0 min 0,000 mm 0,0 UV-I 0 W/m -10,3 C -16,5 C 20,9 km/h (4 Bft) 96,00 %
19.01.2017 04:02 -9,1 C 92 % 1035,8 hPa 0,0 l/m 12,7 km/h (3 Bft) NO 37 0 min 0,000 mm 0,0 UV-I 0 W/m -10,2 C -16,1 C 19,3 km/h (3 Bft) 94,74 %
19.01.2017 04:04 -9,1 C 91 % 1035,8 hPa 0,0 l/m 13,9 km/h (3 Bft) NO 51 0 min 0,000 mm 0,0 UV-I 0 W/m -10,3 C -17,1 C 22,5 km/h (4 Bft) 95,74 %
19.01.2017 04:06 -9,1 C 92 % 1035,8 hPa 0,0 l/m 12,0 km/h (2 Bft) NO 51 0 min 0,000 mm 0,0 UV-I 0 W/m -10,2 C -15,5 C 17,7 km/h (3 Bft) 97,87 %
19.01.2017 04:08 -9,1 C 92 % 1035,8 hPa 0,0 l/m 11,4 km/h (2 Bft) O-NO 60 0 min 0,000 mm 0,0 UV-I 0 W/m -10,2 C -14,9 C 17,7 km/h (3 Bft) 100,00 %
19.01.2017 04:10 -9,0 C 92 % 1035,9 hPa 0,0 l/m 12,3 km/h (3 Bft) NO 46 0 min 0,000 mm 0,0 UV-I 0 W/m -10,1 C -15,6 C 17,7 km/h (3 Bft) 95,74 %
19.01.2017 04:12 -9,0 C 92 % 1035,9 hPa 0,0 l/m 15,4 km/h (3 Bft) NO 47 0 min 0,000 mm 0,0 UV-I 0 W/m -10,1 C -18,2 C 20,9 km/h (4 Bft) 97,87 %
19.01.2017 04:14 -9,0 C 92 % 1035,8 hPa 0,0 l/m 15,9 km/h (3 Bft) NO 48 0 min 0,000 mm 0,0 UV-I 0 W/m -10,1 C -18,6 C 20,9 km/h (4 Bft) 100,00 %
19.01.2017 04:16 -8,9 C 92 % 1035,8 hPa 0,0 l/m 15,1 km/h (3 Bft) O-NO 75 0 min 0,000 mm 0,0 UV-I 0 W/m -10,0 C -17,8 C 20,9 km/h (4 Bft) 100,00 %
19.01.2017 04:18 -8,9 C 92 % 1035,8 hPa 0,0 l/m 13,6 km/h (3 Bft) O-NO 59 0 min 0,000 mm 0,0 UV-I 0 W/m -10,0 C -16,6 C 20,9 km/h (4 Bft) 100,00 %
19.01.2017 04:20 -8,9 C 91 % 1035,8 hPa 0,0 l/m 15,7 km/h (3 Bft) NO 37 0 min 0,000 mm 0,0 UV-I 0 W/m -10,1 C -18,3 C 22,5 km/h (4 Bft) 97,87 %
19.01.2017 04:22 -8,9 C 91 % 1035,7 hPa 0,0 l/m 13,8 km/h (3 Bft) NO 39 0 min 0,000 mm 0,0 UV-I 0 W/m -10,1 C -16,8 C 20,9 km/h (4 Bft) 100,00 %
19.01.2017 04:24 -8,9 C 91 % 1035,7 hPa 0,0 l/m 15,8 km/h (3 Bft) NO 46 0 min 0,000 mm 0,0 UV-I 0 W/m -10,1 C -18,4 C 20,9 km/h (4 Bft) 100,00 %
19.01.2017 04:26 -8,9 C 91 % 1035,7 hPa 0,0 l/m 16,2 km/h (3 Bft) NO 46 0 min 0,000 mm 0,0 UV-I 0 W/m -10,1 C -18,7 C 22,5 km/h (4 Bft) 93,62 %
19.01.2017 04:28 -8,9 C 91 % 1035,7 hPa 0,0 l/m 15,1 km/h (3 Bft) O-NO 61 0 min 0,000 mm 0,0 UV-I 0 W/m -10,1 C -17,8 C 22,5 km/h (4 Bft) 100,00 %
19.01.2017 04:30 -8,9 C 91 % 1035,7 hPa 0,0 l/m 11,0 km/h (2 Bft) O-NO 65 0 min 0,000 mm 0,0 UV-I 0 W/m -10,1 C -14,3 C 16,1 km/h (3 Bft) 95,74 %
19.01.2017 04:32 -8,9 C 91 % 1035,6 hPa 0,0 l/m 14,6 km/h (3 Bft) O-NO 75 0 min 0,000 mm 0,0 UV-I 0 W/m -10,1 C -17,5 C 19,3 km/h (3 Bft) 97,87 %
19.01.2017 04:34 -8,9 C 91 % 1035,7 hPa 0,0 l/m 13,6 km/h (3 Bft) NO 55 0 min 0,000 mm 0,0 UV-I 0 W/m -10,1 C -16,6 C 19,3 km/h (3 Bft) 97,87 %
19.01.2017 04:36 -8,9 C 91 % 1035,8 hPa 0,0 l/m 12,8 km/h (3 Bft) O-NO 60 0 min 0,000 mm 0,0 UV-I 0 W/m -10,1 C -16,0 C 19,3 km/h (3 Bft) 97,87 %
19.01.2017 04:38 -8,9 C 91 % 1035,8 hPa 0,0 l/m 12,3 km/h (3 Bft) O-NO 63 0 min 0,000 mm 0,0 UV-I 0 W/m -10,1 C -15,5 C 17,7 km/h (3 Bft) 95,74 %
19.01.2017 04:40 -8,9 C 91 % 1035,8 hPa 0,0 l/m 14,3 km/h (3 Bft) O-NO 60 0 min 0,000 mm 0,0 UV-I 0 W/m -10,1 C -17,2 C 20,9 km/h (4 Bft) 91,49 %
19.01.2017 04:42 -8,9 C 91 % 1035,8 hPa 0,0 l/m 16,3 km/h (3 Bft) NO 52 0 min 0,000 mm 0,0 UV-I 0 W/m -10,1 C -18,7 C 20,9 km/h (4 Bft) 95,74 %
19.01.2017 04:44 -8,9 C 91 % 1035,8 hPa 0,0 l/m 15,4 km/h (3 Bft) O-NO 58 0 min 0,000 mm 0,0 UV-I 0 W/m -10,1 C -18,1 C 19,3 km/h (3 Bft) 97,22 %
19.01.2017 04:46 -8,9 C 91 % 1035,9 hPa 0,0 l/m 15,3 km/h (3 Bft) O-NO 67 0 min 0,000 mm 0,0 UV-I 0 W/m -10,1 C -18,0 C 19,3 km/h (3 Bft) 98,00 %
19.01.2017 04:48 -8,9 C 91 % 1035,8 hPa 0,0 l/m 13,0 km/h (3 Bft) NO 39 0 min 0,000 mm 0,0 UV-I 0 W/m -10,1 C -16,1 C 17,7 km/h (3 Bft) 98,00 %
19.01.2017 04:50 -8,9 C 91 % 1035,9 hPa 0,0 l/m 11,8 km/h (2 Bft) NO 36 0 min 0,000 mm 0,0 UV-I 0 W/m -10,1 C -15,1 C 17,7 km/h (3 Bft) 98,00 %
19.01.2017 04:52 -8,9 C 91 % 1035,9 hPa 0,0 l/m 13,4 km/h (3 Bft) O-NO 57 0 min 0,000 mm 0,0 UV-I 0 W/m -10,1 C -16,5 C 17,7 km/h (3 Bft) 95,74 %
19.01.2017 04:54 -8,9 C 91 % 1035,9 hPa 0,0 l/m 13,3 km/h (3 Bft) O-NO 71 0 min 0,000 mm 0,0 UV-I 0 W/m -10,1 C -16,4 C 17,7 km/h (3 Bft) 95,74 %
19.01.2017 04:56 -8,9 C 91 % 1035,9 hPa 0,0 l/m 15,4 km/h (3 Bft) O-NO 61 0 min 0,000 mm 0,0 UV-I 0 W/m -10,1 C -18,1 C 20,9 km/h (4 Bft) 96,00 %
19.01.2017 04:58 -8,9 C 91 % 1035,9 hPa 0,0 l/m 14,3 km/h (3 Bft) NO 49 0 min 0,000 mm 0,0 UV-I 0 W/m -10,1 C -17,2 C 19,3 km/h (3 Bft) 97,14 %
19.01.2017 05:00 -9,0 C 91 % 1035,9 hPa 0,0 l/m 15,7 km/h (3 Bft) O-NO 60 0 min 0,000 mm 0,0 UV-I 0 W/m -10,2 C -18,4 C 19,3 km/h (3 Bft) 97,87 %
19.01.2017 05:02 -9,0 C 91 % 1035,9 hPa 0,0 l/m 14,2 km/h (3 Bft) NO 42 0 min 0,000 mm 0,0 UV-I 0 W/m -10,2 C -17,3 C 17,7 km/h (3 Bft) 91,49 %
19.01.2017 05:04 -9,1 C 91 % 1035,9 hPa 0,0 l/m 15,4 km/h (3 Bft) O-NO 61 0 min 0,000 mm 0,0 UV-I 0 W/m -10,3 C -18,3 C 19,3 km/h (3 Bft) 96,00 %
19.01.2017 05:06 -9,1 C 91 % 1035,9 hPa 0,0 l/m 15,1 km/h (3 Bft) NO 55 0 min 0,000 mm 0,0 UV-I 0 W/m -10,3 C -18,1 C 19,3 km/h (3 Bft) 100,00 %
19.01.2017 05:08 -9,1 C 91 % 1035,9 hPa 0,0 l/m 15,7 km/h (3 Bft) O 86 0 min 0,000 mm 0,0 UV-I 0 W/m -10,3 C -18,5 C 20,9 km/h (4 Bft) 100,00 %
19.01.2017 05:10 -9,1 C 91 % 1035,9 hPa 0,0 l/m 14,6 km/h (3 Bft) NO 53 0 min 0,000 mm 0,0 UV-I 0 W/m -10,3 C -17,7 C 20,9 km/h (4 Bft) 100,00 %
19.01.2017 05:12 -9,1 C 91 % 1035,9 hPa 0,0 l/m 14,3 km/h (3 Bft) N-NO 23 0 min 0,000 mm 0,0 UV-I 0 W/m -10,3 C -17,5 C 20,9 km/h (4 Bft) 95,74 %
19.01.2017 05:14 -9,2 C 91 % 1036,0 hPa 0,0 l/m 14,3 km/h (3 Bft) NO 37 0 min 0,000 mm 0,0 UV-I 0 W/m -10,4 C -17,6 C 20,9 km/h (4 Bft) 100,00 %
19.01.2017 05:16 -9,2 C 91 % 1036,0 hPa 0,0 l/m 12,3 km/h (3 Bft) NO 48 0 min 0,000 mm 0,0 UV-I 0 W/m -10,4 C -15,9 C 19,3 km/h (3 Bft) 100,00 %
19.01.2017 05:18 -9,2 C 91 % 1036,0 hPa 0,0 l/m 12,9 km/h (3 Bft) NO 39 0 min 0,000 mm 0,0 UV-I 0 W/m -10,4 C -16,4 C 19,3 km/h (3 Bft) 100,00 %
19.01.2017 05:20 -9,2 C 91 % 1036,0 hPa 0,0 l/m 14,8 km/h (3 Bft) O-NO 59 0 min 0,000 mm 0,0 UV-I 0 W/m -10,4 C -18,0 C 17,7 km/h (3 Bft) 100,00 %
19.01.2017 05:22 -9,2 C 91 % 1035,9 hPa 0,0 l/m 16,4 km/h (3 Bft) NO 42 0 min 0,000 mm 0,0 UV-I 0 W/m -10,4 C -19,2 C 20,9 km/h (4 Bft) 100,00 %
19.01.2017 05:24 -9,2 C 91 % 1035,9 hPa 0,0 l/m 13,9 km/h (3 Bft) NO 55 0 min 0,000 mm 0,0 UV-I 0 W/m -10,4 C -17,3 C 19,3 km/h (3 Bft) 95,83 %
19.01.2017 05:26 -9,2 C 91 % 1035,9 hPa 0,0 l/m 15,3 km/h (3 Bft) O-NO 66 0 min 0,000 mm 0,0 UV-I 0 W/m -10,4 C -18,4 C 19,3 km/h (3 Bft) 100,00 %
19.01.2017 05:28 -9,3 C 91 % 1035,8 hPa 0,0 l/m 16,1 km/h (3 Bft) NO 52 0 min 0,000 mm 0,0 UV-I 0 W/m -10,5 C -19,1 C 20,9 km/h (4 Bft) 100,00 %
19.01.2017 05:30 -9,3 C 91 % 1035,8 hPa 0,0 l/m 17,0 km/h (3 Bft) NO 48 0 min 0,000 mm 0,0 UV-I 0 W/m -10,5 C -19,7 C 20,9 km/h (4 Bft) 100,00 %
19.01.2017 05:32 -9,3 C 91 % 1035,8 hPa 0,0 l/m 17,2 km/h (3 Bft) O-NO 65 0 min 0,000 mm 0,0 UV-I 0 W/m -10,5 C -19,9 C 22,5 km/h (4 Bft) 100,00 %
19.01.2017 05:34 -9,3 C 91 % 1035,8 hPa 0,0 l/m 16,9 km/h (3 Bft) NO 51 0 min 0,000 mm 0,0 UV-I 0 W/m -10,5 C -19,6 C 22,5 km/h (4 Bft) 100,00 %
19.01.2017 05:36 -9,3 C 92 % 1035,8 hPa 0,0 l/m 16,2 km/h (3 Bft) NO 49 0 min 0,000 mm 0,0 UV-I 0 W/m -10,4 C -19,1 C 20,9 km/h (4 Bft) 97,87 %
19.01.2017 05:38 -9,3 C 92 % 1035,8 hPa 0,0 l/m 14,9 km/h (3 Bft) NO 50 0 min 0,000 mm 0,0 UV-I 0 W/m -10,4 C -18,2 C 17,7 km/h (3 Bft) 100,00 %
19.01.2017 05:40 -9,4 C 91 % 1035,8 hPa 0,0 l/m 15,6 km/h (3 Bft) NO 44 0 min 0,000 mm 0,0 UV-I 0 W/m -10,6 C -18,8 C 20,9 km/h (4 Bft) 97,87 %
19.01.2017 05:42 -9,4 C 92 % 1035,8 hPa 0,0 l/m 13,7 km/h (3 Bft) NO 44 0 min 0,000 mm 0,0 UV-I 0 W/m -10,5 C -17,3 C 17,7 km/h (3 Bft) 97,87 %
19.01.2017 05:44 -9,4 C 92 % 1035,8 hPa 0,0 l/m 16,4 km/h (3 Bft) O-NO 60 0 min 0,000 mm 0,0 UV-I 0 W/m -10,5 C -19,4 C 20,9 km/h (4 Bft) 100,00 %
19.01.2017 05:46 -9,4 C 92 % 1035,8 hPa 0,0 l/m 16,6 km/h (3 Bft) O-NO 57 0 min 0,000 mm 0,0 UV-I 0 W/m -10,5 C -19,6 C 24,1 km/h (4 Bft) 100,00 %
19.01.2017 05:48 -9,4 C 92 % 1035,9 hPa 0,0 l/m 14,0 km/h (3 Bft) O-NO 68 0 min 0,000 mm 0,0 UV-I 0 W/m -10,5 C -17,6 C 17,7 km/h (3 Bft) 100,00 %
19.01.2017 05:50 -9,4 C 92 % 1035,8 hPa 0,0 l/m 13,6 km/h (3 Bft) O-NO 67 0 min 0,000 mm 0,0 UV-I 0 W/m -10,5 C -17,2 C 17,7 km/h (3 Bft) 97,87 %
19.01.2017 05:52 -9,4 C 92 % 1035,8 hPa 0,0 l/m 12,9 km/h (3 Bft) NO 56 0 min 0,000 mm 0,0 UV-I 0 W/m -10,5 C -16,6 C 16,1 km/h (3 Bft) 100,00 %
19.01.2017 05:54 -9,4 C 92 % 1035,8 hPa 0,0 l/m 13,4 km/h (3 Bft) NO 49 0 min 0,000 mm 0,0 UV-I 0 W/m -10,5 C -17,1 C 22,5 km/h (4 Bft) 93,62 %
19.01.2017 05:56 -9,4 C 92 % 1035,8 hPa 0,0 l/m 13,7 km/h (3 Bft) O-NO 74 0 min 0,000 mm 0,0 UV-I 0 W/m -10,5 C -17,3 C 16,1 km/h (3 Bft) 100,00 %
19.01.2017 05:58 -9,4 C 92 % 1035,8 hPa 0,0 l/m 14,0 km/h (3 Bft) NO 51 0 min 0,000 mm 0,0 UV-I 0 W/m -10,5 C -17,6 C 22,5 km/h (4 Bft) 97,87 %
19.01.2017 06:00 -9,4 C 92 % 1035,8 hPa 0,0 l/m 13,3 km/h (3 Bft) NO 56 0 min 0,000 mm 0,0 UV-I 0 W/m -10,5 C -17,0 C 17,7 km/h (3 Bft) 97,92 %
19.01.2017 06:02 -9,5 C 92 % 1035,7 hPa 0,0 l/m 12,3 km/h (3 Bft) NO 43 0 min 0,000 mm 0,0 UV-I 0 W/m -10,6 C -16,2 C 20,9 km/h (4 Bft) 100,00 %
19.01.2017 06:04 -9,6 C 91 % 1035,8 hPa 0,0 l/m 13,6 km/h (3 Bft) O-NO 57 0 min 0,000 mm 0,0 UV-I 0 W/m -10,8 C -17,5 C 19,3 km/h (3 Bft) 98,00 %
19.01.2017 06:06 -9,6 C 91 % 1035,8 hPa 0,0 l/m 13,5 km/h (3 Bft) O-NO 65 0 min 0,000 mm 0,0 UV-I 0 W/m -10,8 C -17,4 C 17,7 km/h (3 Bft) 97,87 %
19.01.2017 06:08 -9,6 C 91 % 1035,8 hPa 0,0 l/m 13,4 km/h (3 Bft) O-NO 62 0 min 0,000 mm 0,0 UV-I 0 W/m -10,8 C -17,3 C 19,3 km/h (3 Bft) 100,00 %
19.01.2017 06:10 -9,7 C 91 % 1035,8 hPa 0,0 l/m 11,8 km/h (2 Bft) O-NO 64 0 min 0,000 mm 0,0 UV-I 0 W/m -10,9 C -16,0 C 14,5 km/h (3 Bft) 100,00 %
19.01.2017 06:12 -9,7 C 91 % 1035,7 hPa 0,0 l/m 13,3 km/h (3 Bft) O-NO 67 0 min 0,000 mm 0,0 UV-I 0 W/m -10,9 C -17,3 C 16,1 km/h (3 Bft) 96,23 %
19.01.2017 06:14 -9,7 C 92 % 1035,7 hPa 0,0 l/m 13,7 km/h (3 Bft) O-NO 65 0 min 0,000 mm 0,0 UV-I 0 W/m -10,7 C -17,7 C 17,7 km/h (3 Bft) 97,87 %
19.01.2017 06:16 -9,6 C 92 % 1035,7 hPa 0,0 l/m 11,8 km/h (2 Bft) NO 53 0 min 0,000 mm 0,0 UV-I 0 W/m -10,6 C -15,9 C 17,7 km/h (3 Bft) 100,00 %
19.01.2017 06:18 -9,6 C 92 % 1035,7 hPa 0,0 l/m 9,9 km/h (2 Bft) O-NO 61 0 min 0,000 mm 0,0 UV-I 0 W/m -10,6 C -13,9 C 14,5 km/h (3 Bft) 100,00 %
19.01.2017 06:20 -9,6 C 92 % 1035,7 hPa 0,0 l/m 9,6 km/h (2 Bft) O-NO 62 0 min 0,000 mm 0,0 UV-I 0 W/m -10,6 C -13,6 C 14,5 km/h (3 Bft) 100,00 %
19.01.2017 06:22 -9,6 C 92 % 1035,7 hPa 0,0 l/m 12,6 km/h (3 Bft) NO 52 0 min 0,000 mm 0,0 UV-I 0 W/m -10,6 C -16,6 C 20,9 km/h (4 Bft) 97,87 %
19.01.2017 06:24 -9,5 C 92 % 1035,7 hPa 0,0 l/m 15,1 km/h (3 Bft) O-NO 59 0 min 0,000 mm 0,0 UV-I 0 W/m -10,6 C -18,6 C 20,9 km/h (4 Bft) 95,74 %
19.01.2017 06:26 -9,4 C 92 % 1035,7 hPa 0,0 l/m 14,6 km/h (3 Bft) O-NO 67 0 min 0,000 mm 0,0 UV-I 0 W/m -10,5 C -18,1 C 20,9 km/h (4 Bft) 97,87 %
19.01.2017 06:28 -9,4 C 92 % 1035,7 hPa 0,0 l/m 14,1 km/h (3 Bft) NO 41 0 min 0,000 mm 0,0 UV-I 0 W/m -10,5 C -17,7 C 17,7 km/h (3 Bft) 100,00 %
19.01.2017 06:30 -9,4 C 92 % 1035,8 hPa 0,0 l/m 13,9 km/h (3 Bft) O-NO 57 0 min 0,000 mm 0,0 UV-I 0 W/m -10,5 C -17,5 C 19,3 km/h (3 Bft) 100,00 %
19.01.2017 06:32 -9,4 C 92 % 1035,7 hPa 0,0 l/m 13,6 km/h (3 Bft) O-NO 58 0 min 0,000 mm 0,0 UV-I 0 W/m -10,5 C -17,2 C 19,3 km/h (3 Bft) 97,87 %
19.01.2017 06:34 -9,3 C 92 % 1035,7 hPa 0,0 l/m 15,7 km/h (3 Bft) O-NO 71 0 min 0,000 mm 0,0 UV-I 0 W/m -10,4 C -18,8 C 20,9 km/h (4 Bft) 100,00 %
19.01.2017 06:36 -9,4 C 92 % 1035,8 hPa 0,0 l/m 15,5 km/h (3 Bft) O-NO 71 0 min 0,000 mm 0,0 UV-I 0 W/m -10,5 C -18,8 C 22,5 km/h (4 Bft) 97,37 %
19.01.2017 06:38 -9,4 C 92 % 1035,7 hPa 0,0 l/m 15,8 km/h (3 Bft) O-NO 75 0 min 0,000 mm 0,0 UV-I 0 W/m -10,5 C -19,0 C 20,9 km/h (4 Bft) 97,92 %
19.01.2017 06:40 -9,4 C 92 % 1035,7 hPa 0,0 l/m 15,5 km/h (3 Bft) NO 54 0 min 0,000 mm 0,0 UV-I 0 W/m -10,5 C -18,8 C 20,9 km/h (4 Bft) 97,87 %
19.01.2017 06:42 -9,4 C 92 % 1035,8 hPa 0,0 l/m 16,0 km/h (3 Bft) O-NO 62 0 min 0,000 mm 0,0 UV-I 0 W/m -10,5 C -19,1 C 19,3 km/h (3 Bft) 96,00 %
19.01.2017 06:44 -9,4 C 92 % 1035,8 hPa 0,0 l/m 16,1 km/h (3 Bft) O-NO 61 0 min 0,000 mm 0,0 UV-I 0 W/m -10,5 C -19,2 C 20,9 km/h (4 Bft) 98,00 %
19.01.2017 06:46 -9,4 C 92 % 1035,8 hPa 0,0 l/m 13,1 km/h (3 Bft) O-NO 58 0 min 0,000 mm 0,0 UV-I 0 W/m -10,5 C -16,8 C 19,3 km/h (3 Bft) 95,74 %
19.01.2017 06:48 -9,5 C 92 % 1035,8 hPa 0,0 l/m 13,8 km/h (3 Bft) NO 36 0 min 0,000 mm 0,0 UV-I 0 W/m -10,6 C -17,5 C 19,3 km/h (3 Bft) 97,87 %
19.01.2017 06:50 -9,6 C 91 % 1035,8 hPa 0,0 l/m 13,4 km/h (3 Bft) NO 48 0 min 0,000 mm 0,0 UV-I 0 W/m -10,8 C -17,3 C 19,3 km/h (3 Bft) 95,74 %
19.01.2017 06:52 -9,6 C 91 % 1035,8 hPa 0,0 l/m 12,0 km/h (2 Bft) NO 47 0 min 0,000 mm 0,0 UV-I 0 W/m -10,8 C -16,1 C 17,7 km/h (3 Bft) 92,11 %
19.01.2017 06:54 -9,6 C 91 % 1035,8 hPa 0,0 l/m 10,9 km/h (2 Bft) NO 50 0 min 0,000 mm 0,0 UV-I 0 W/m -10,8 C -15,0 C 16,1 km/h (3 Bft) 97,87 %
19.01.2017 06:56 -9,6 C 92 % 1035,8 hPa 0,0 l/m 10,6 km/h (2 Bft) N-NO 31 0 min 0,000 mm 0,0 UV-I 0 W/m -10,6 C -14,7 C 16,1 km/h (3 Bft) 97,92 %
19.01.2017 06:58 -9,6 C 91 % 1035,8 hPa 0,0 l/m 12,2 km/h (2 Bft) NO 36 0 min 0,000 mm 0,0 UV-I 0 W/m -10,8 C -16,2 C 19,3 km/h (3 Bft) 94,00 %
19.01.2017 07:00 -9,7 C 91 % 1035,8 hPa 0,0 l/m 16,5 km/h (3 Bft) N-NO 32 0 min 0,000 mm 0,0 UV-I 0 W/m -10,9 C -19,9 C 20,9 km/h (4 Bft) 97,87 %
19.01.2017 07:02 -9,7 C 92 % 1035,8 hPa 0,0 l/m 12,1 km/h (2 Bft) NO 51 0 min 0,000 mm 0,0 UV-I 0 W/m -10,7 C -16,3 C 19,3 km/h (3 Bft) 97,87 %
19.01.2017 07:04 -9,7 C 92 % 1035,8 hPa 0,0 l/m 12,9 km/h (3 Bft) NO 36 0 min 0,000 mm 0,0 UV-I 0 W/m -10,7 C -17,0 C 20,9 km/h (4 Bft) 96,00 %
19.01.2017 07:06 -9,7 C 92 % 1035,8 hPa 0,0 l/m 10,9 km/h (2 Bft) N-NO 17 0 min 0,000 mm 0,0 UV-I 0 W/m -10,7 C -15,1 C 16,1 km/h (3 Bft) 93,75 %
19.01.2017 07:08 -9,7 C 92 % 1035,9 hPa 0,0 l/m 13,5 km/h (3 Bft) NO 46 0 min 0,000 mm 0,0 UV-I 0 W/m -10,7 C -17,5 C 19,3 km/h (3 Bft) 97,87 %
19.01.2017 07:10 -9,7 C 92 % 1035,9 hPa 0,0 l/m 11,7 km/h (2 Bft) NO 50 0 min 0,000 mm 0,0 UV-I 0 W/m -10,7 C -15,9 C 17,7 km/h (3 Bft) 97,87 %
19.01.2017 07:12 -9,7 C 92 % 1035,9 hPa 0,0 l/m 9,7 km/h (2 Bft) NO 50 0 min 0,000 mm 0,0 UV-I 0 W/m -10,7 C -13,8 C 17,7 km/h (3 Bft) 100,00 %
19.01.2017 07:14 -9,7 C 92 % 1035,9 hPa 0,0 l/m 10,1 km/h (2 Bft) NO 52 0 min 0,000 mm 0,0 UV-I 0 W/m -10,7 C -14,3 C 17,7 km/h (3 Bft) 96,00 %
19.01.2017 07:16 -9,7 C 92 % 1035,9 hPa 0,0 l/m 12,1 km/h (2 Bft) O-NO 66 0 min 0,000 mm 0,0 UV-I 0 W/m -10,7 C -16,3 C 17,7 km/h (3 Bft) 100,00 %
19.01.2017 07:18 -9,7 C 92 % 1036,0 hPa 0,0 l/m 15,4 km/h (3 Bft) O-NO 59 0 min 0,000 mm 0,0 UV-I 0 W/m -10,7 C -19,0 C 19,3 km/h (3 Bft) 97,87 %
19.01.2017 07:20 -9,7 C 92 % 1035,9 hPa 0,0 l/m 15,0 km/h (3 Bft) O-NO 65 0 min 0,000 mm 0,0 UV-I 0 W/m -10,7 C -18,7 C 20,9 km/h (4 Bft) 100,00 %
19.01.2017 07:22 -9,7 C 92 % 1035,9 hPa 0,0 l/m 13,8 km/h (3 Bft) NO 55 0 min 0,000 mm 0,0 UV-I 0 W/m -10,7 C -17,8 C 19,3 km/h (3 Bft) 97,87 %
19.01.2017 07:24 -9,7 C 92 % 1036,0 hPa 0,0 l/m 15,5 km/h (3 Bft) O-NO 76 0 min 0,000 mm 0,0 UV-I 0 W/m -10,7 C -19,1 C 20,9 km/h (4 Bft) 97,87 %
19.01.2017 07:26 -9,7 C 92 % 1035,9 hPa 0,0 l/m 14,9 km/h (3 Bft) O-NO 65 0 min 0,000 mm 0,0 UV-I 0 W/m -10,7 C -18,7 C 19,3 km/h (3 Bft) 97,87 %
19.01.2017 07:28 -9,8 C 92 % 1036,0 hPa 0,0 l/m 14,9 km/h (3 Bft) NO 55 0 min 0,000 mm 0,0 UV-I 0 W/m -10,8 C -18,8 C 20,9 km/h (4 Bft) 100,00 %
19.01.2017 07:30 -9,8 C 92 % 1035,9 hPa 0,0 l/m 15,1 km/h (3 Bft) O-NO 58 0 min 0,000 mm 0,0 UV-I 0 W/m -10,8 C -18,9 C 19,3 km/h (3 Bft) 100,00 %
19.01.2017 07:32 -9,8 C 92 % 1035,9 hPa 0,0 l/m 13,6 km/h (3 Bft) NO 42 0 min 0,000 mm 0,0 UV-I 4 W/m -10,8 C -17,7 C 17,7 km/h (3 Bft) 97,87 %
19.01.2017 07:34 -9,9 C 92 % 1035,9 hPa 0,0 l/m 13,1 km/h (3 Bft) NO 52 0 min 0,000 mm 0,0 UV-I 5 W/m -10,9 C -17,4 C 17,7 km/h (3 Bft) 95,74 %
19.01.2017 07:36 -9,9 C 92 % 1036,0 hPa 0,0 l/m 13,1 km/h (3 Bft) O-NO 57 0 min 0,000 mm 0,0 UV-I 5 W/m -10,9 C -17,4 C 17,7 km/h (3 Bft) 100,00 %
19.01.2017 07:38 -10,0 C 92 % 1036,0 hPa 0,0 l/m 12,1 km/h (2 Bft) O-NO 71 0 min 0,000 mm 0,0 UV-I 5 W/m -11,0 C -16,6 C 17,7 km/h (3 Bft) 100,00 %
19.01.2017 07:40 -10,0 C 92 % 1036,0 hPa 0,0 l/m 12,2 km/h (2 Bft) O-NO 59 0 min 0,000 mm 0,0 UV-I 5 W/m -11,0 C -16,7 C 16,1 km/h (3 Bft) 100,00 %
19.01.2017 07:42 -10,0 C 92 % 1036,0 hPa 0,0 l/m 11,7 km/h (2 Bft) NO 44 0 min 0,000 mm 0,0 UV-I 7 W/m -11,0 C -16,2 C 16,1 km/h (3 Bft) 100,00 %
19.01.2017 07:44 -10,0 C 92 % 1036,0 hPa 0,0 l/m 11,5 km/h (2 Bft) O-NO 74 0 min 0,000 mm 0,0 UV-I 7 W/m -11,0 C -16,0 C 16,1 km/h (3 Bft) 97,87 %
19.01.2017 07:46 -10,1 C 92 % 1036,0 hPa 0,0 l/m 11,8 km/h (2 Bft) O-NO 62 0 min 0,000 mm 0,0 UV-I 7 W/m -11,1 C -16,4 C 16,1 km/h (3 Bft) 97,87 %
19.01.2017 07:48 -10,0 C 92 % 1036,0 hPa 0,0 l/m 12,1 km/h (2 Bft) NO 56 0 min 0,000 mm 0,0 UV-I 8 W/m -11,0 C -16,6 C 16,1 km/h (3 Bft) 100,00 %
19.01.2017 07:50 -10,0 C 92 % 1036,1 hPa 0,0 l/m 11,9 km/h (2 Bft) NO 46 0 min 0,000 mm 0,0 UV-I 9 W/m -11,0 C -16,4 C 17,7 km/h (3 Bft) 100,00 %
19.01.2017 07:52 -10,0 C 92 % 1036,1 hPa 0,0 l/m 13,6 km/h (3 Bft) O-NO 57 0 min 0,000 mm 0,0 UV-I 10 W/m -11,0 C -18,0 C 19,3 km/h (3 Bft) 100,00 %
19.01.2017 07:54 -10,0 C 92 % 1036,1 hPa 0,0 l/m 15,5 km/h (3 Bft) NO 53 0 min 0,000 mm 0,0 UV-I 11 W/m -11,0 C -19,5 C 20,9 km/h (4 Bft) 100,00 %
19.01.2017 07:56 -9,9 C 92 % 1036,1 hPa 0,0 l/m 14,9 km/h (3 Bft) NO 53 0 min 0,000 mm 0,0 UV-I 12 W/m -10,9 C -18,9 C 19,3 km/h (3 Bft) 100,00 %
19.01.2017 07:58 -10,0 C 92 % 1036,1 hPa 0,0 l/m 13,7 km/h (3 Bft) O-NO 65 2 min 0,000 mm 0,0 UV-I 13 W/m -11,0 C -18,0 C 19,3 km/h (3 Bft) 100,00 %
19.01.2017 08:00 -10,1 C 92 % 1036,1 hPa 0,0 l/m 11,6 km/h (2 Bft) O-NO 57 2 min 0,000 mm 0,0 UV-I 15 W/m -11,1 C -16,2 C 16,1 km/h (3 Bft) 97,87 %
19.01.2017 08:02 -10,1 C 92 % 1036,1 hPa 0,0 l/m 10,4 km/h (2 Bft) O-NO 68 2 min 0,000 mm 0,0 UV-I 16 W/m -11,1 C -15,0 C 14,5 km/h (3 Bft) 100,00 %
19.01.2017 08:04 -10,2 C 92 % 1036,2 hPa 0,0 l/m 11,6 km/h (2 Bft) O-NO 68 2 min 0,000 mm 0,0 UV-I 18 W/m -11,2 C -16,4 C 14,5 km/h (3 Bft) 100,00 %
19.01.2017 08:06 -10,2 C 92 % 1036,2 hPa 0,0 l/m 12,9 km/h (3 Bft) O-NO 74 0 min 0,000 mm 0,0 UV-I 19 W/m -11,2 C -17,6 C 17,7 km/h (3 Bft) 97,87 %
19.01.2017 08:08 -10,3 C 92 % 1036,2 hPa 0,0 l/m 11,1 km/h (2 Bft) NO 53 0 min 0,000 mm 0,0 UV-I 21 W/m -11,3 C -16,0 C 17,7 km/h (3 Bft) 100,00 %
19.01.2017 08:10 -10,3 C 92 % 1036,2 hPa 0,0 l/m 12,0 km/h (2 Bft) O-NO 69 0 min 0,000 mm 0,0 UV-I 23 W/m -11,3 C -16,9 C 17,7 km/h (3 Bft) 100,00 %
19.01.2017 08:12 -10,3 C 92 % 1036,2 hPa 0,0 l/m 12,8 km/h (3 Bft) O-NO 71 0 min 0,000 mm 0,0 UV-I 25 W/m -11,3 C -17,6 C 19,3 km/h (3 Bft) 100,00 %
19.01.2017 08:14 -10,3 C 92 % 1036,2 hPa 0,0 l/m 12,8 km/h (3 Bft) NO 46 0 min 0,000 mm 0,0 UV-I 25 W/m -11,3 C -17,6 C 17,7 km/h (3 Bft) 100,00 %
19.01.2017 08:16 -10,3 C 92 % 1036,2 hPa 0,0 l/m 12,7 km/h (3 Bft) NO 55 0 min 0,000 mm 0,0 UV-I 26 W/m -11,3 C -17,5 C 19,3 km/h (3 Bft) 100,00 %
19.01.2017 08:18 -10,3 C 92 % 1036,2 hPa 0,0 l/m 12,1 km/h (2 Bft) O-NO 59 0 min 0,000 mm 0,0 UV-I 29 W/m -11,3 C -17,0 C 16,1 km/h (3 Bft) 100,00 %
19.01.2017 08:20 -10,3 C 92 % 1036,3 hPa 0,0 l/m 9,1 km/h (2 Bft) O-NO 77 0 min 0,000 mm 0,0 UV-I 31 W/m -11,3 C -13,8 C 14,5 km/h (3 Bft) 100,00 %
19.01.2017 08:22 -10,4 C 92 % 1036,3 hPa 0,0 l/m 9,9 km/h (2 Bft) O-NO 67 0 min 0,000 mm 0,0 UV-I 35 W/m -11,4 C -14,8 C 14,5 km/h (3 Bft) 100,00 %
19.01.2017 08:24 -10,4 C 92 % 1036,3 hPa 0,0 l/m 10,7 km/h (2 Bft) O-NO 73 0 min 0,000 mm 0,0 UV-I 39 W/m -11,4 C -15,7 C 16,1 km/h (3 Bft) 100,00 %
19.01.2017 08:26 -10,4 C 92 % 1036,3 hPa 0,0 l/m 10,1 km/h (2 Bft) O-NO 61 0 min 0,000 mm 0,0 UV-I 40 W/m -11,4 C -15,0 C 16,1 km/h (3 Bft) 97,87 %
19.01.2017 08:28 -10,4 C 92 % 1036,3 hPa 0,0 l/m 9,3 km/h (2 Bft) O-NO 63 0 min 0,000 mm 0,0 UV-I 43 W/m -11,4 C -14,2 C 16,1 km/h (3 Bft) 97,87 %
19.01.2017 08:30 -10,3 C 92 % 1036,4 hPa 0,0 l/m 10,0 km/h (2 Bft) O-NO 63 0 min 0,000 mm 0,0 UV-I 48 W/m -11,3 C -14,8 C 14,5 km/h (3 Bft) 100,00 %
19.01.2017 08:32 -10,3 C 92 % 1036,4 hPa 0,0 l/m 9,7 km/h (2 Bft) O-NO 59 0 min 0,000 mm 0,0 UV-I 52 W/m -11,3 C -14,5 C 14,5 km/h (3 Bft) 100,00 %
19.01.2017 08:34 -10,2 C 92 % 1036,4 hPa 0,0 l/m 9,7 km/h (2 Bft) O 85 0 min 0,000 mm 0,0 UV-I 53 W/m -11,2 C -14,4 C 14,5 km/h (3 Bft) 100,00 %
19.01.2017 08:36 -10,2 C 92 % 1036,4 hPa 0,0 l/m 7,9 km/h (2 Bft) O-NO 60 0 min 0,000 mm 0,0 UV-I 56 W/m -11,2 C -12,2 C 12,9 km/h (3 Bft) 97,44 %
19.01.2017 08:38 -10,3 C 92 % 1036,5 hPa 0,0 l/m 7,2 km/h (2 Bft) O-NO 70 0 min 0,000 mm 0,0 UV-I 61 W/m -11,3 C -11,4 C 12,9 km/h (3 Bft) 100,00 %
19.01.2017 08:40 -10,3 C 92 % 1036,5 hPa 0,0 l/m 7,7 km/h (2 Bft) O-NO 66 0 min 0,000 mm 0,0 UV-I 62 W/m -11,3 C -12,1 C 12,9 km/h (3 Bft) 100,00 %
19.01.2017 08:42 -10,2 C 92 % 1036,6 hPa 0,0 l/m 8,7 km/h (2 Bft) O-NO 74 0 min 0,000 mm 0,0 UV-I 63 W/m -11,2 C -13,2 C 12,9 km/h (3 Bft) 97,87 %
19.01.2017 08:44 -10,2 C 92 % 1036,6 hPa 0,0 l/m 7,1 km/h (2 Bft) O-NO 63 0 min 0,000 mm 0,0 UV-I 66 W/m -11,2 C -11,2 C 12,9 km/h (3 Bft) 93,62 %
19.01.2017 08:46 -10,2 C 92 % 1036,6 hPa 0,0 l/m 6,9 km/h (2 Bft) O-NO 59 0 min 0,000 mm 0,0 UV-I 70 W/m -11,2 C -10,9 C 11,3 km/h (2 Bft) 96,00 %
19.01.2017 08:48 -10,1 C 93 % 1036,6 hPa 0,0 l/m 9,1 km/h (2 Bft) O-NO 62 0 min 0,000 mm 0,0 UV-I 73 W/m -11,0 C -13,6 C 14,5 km/h (3 Bft) 97,87 %
19.01.2017 08:50 -10,1 C 92 % 1036,6 hPa 0,0 l/m 7,9 km/h (2 Bft) O-NO 74 2 min 0,000 mm 0,0 UV-I 78 W/m -11,1 C -12,1 C 12,9 km/h (3 Bft) 95,74 %
19.01.2017 08:52 -10,1 C 92 % 1036,6 hPa 0,0 l/m 9,2 km/h (2 Bft) O-NO 66 2 min 0,000 mm 0,0 UV-I 81 W/m -11,1 C -13,7 C 14,5 km/h (3 Bft) 91,49 %
19.01.2017 08:54 -10,0 C 92 % 1036,7 hPa 0,0 l/m 9,5 km/h (2 Bft) O-NO 69 2 min 0,000 mm 0,0 UV-I 84 W/m -11,0 C -13,9 C 12,9 km/h (3 Bft) 97,87 %
19.01.2017 08:56 -10,0 C 92 % 1036,7 hPa 0,0 l/m 8,8 km/h (2 Bft) O-NO 74 2 min 0,000 mm 0,0 UV-I 88 W/m -11,0 C -13,1 C 12,9 km/h (3 Bft) 93,62 %
19.01.2017 08:58 -9,9 C 92 % 1036,6 hPa 0,0 l/m 9,4 km/h (2 Bft) O-NO 65 2 min 0,000 mm 0,0 UV-I 95 W/m -10,9 C -13,7 C 12,9 km/h (3 Bft) 93,62 %
19.01.2017 09:00 -9,8 C 93 % 1036,6 hPa 0,0 l/m 10,7 km/h (2 Bft) O 80 2 min 0,000 mm 0,0 UV-I 101 W/m -10,7 C -15,0 C 16,1 km/h (3 Bft) 95,74 %
19.01.2017 09:02 -9,8 C 92 % 1036,7 hPa 0,0 l/m 9,0 km/h (2 Bft) O-NO 65 2 min 0,025 mm 0,0 UV-I 105 W/m -10,8 C -13,2 C 12,9 km/h (3 Bft) 94,00 %
19.01.2017 09:04 -9,8 C 92 % 1036,6 hPa 0,0 l/m 10,2 km/h (2 Bft) O-NO 66 2 min 0,000 mm 0,0 UV-I 110 W/m -10,8 C -14,5 C 14,5 km/h (3 Bft) 93,62 %
19.01.2017 09:06 -9,7 C 92 % 1036,6 hPa 0,0 l/m 9,8 km/h (2 Bft) O-NO 74 2 min 0,000 mm 0,0 UV-I 117 W/m -10,7 C -13,9 C 14,5 km/h (3 Bft) 97,87 %
19.01.2017 09:08 -9,8 C 92 % 1036,6 hPa 0,0 l/m 10,3 km/h (2 Bft) O-NO 71 2 min 0,000 mm 0,0 UV-I 119 W/m -10,8 C -14,6 C 14,5 km/h (3 Bft) 97,87 %
19.01.2017 09:10 -9,7 C 92 % 1036,6 hPa 0,0 l/m 10,2 km/h (2 Bft) O-NO 57 2 min 0,000 mm 0,0 UV-I 123 W/m -10,7 C -14,4 C 14,5 km/h (3 Bft) 97,87 %
19.01.2017 09:12 -9,7 C 92 % 1036,6 hPa 0,0 l/m 10,9 km/h (2 Bft) O-NO 69 2 min 0,000 mm 0,0 UV-I 127 W/m -10,7 C -15,1 C 16,1 km/h (3 Bft) 100,00 %
19.01.2017 09:14 -9,7 C 92 % 1036,6 hPa 0,0 l/m 11,8 km/h (2 Bft) O-NO 59 2 min 0,000 mm 0,0 UV-I 127 W/m -10,7 C -16,0 C 19,3 km/h (3 Bft) 97,87 %
19.01.2017 09:16 -9,7 C 92 % 1036,6 hPa 0,0 l/m 10,2 km/h (2 Bft) NO 56 2 min 0,000 mm 0,0 UV-I 130 W/m -10,7 C -14,4 C 17,7 km/h (3 Bft) 97,37 %
19.01.2017 09:18 -9,6 C 92 % 1036,6 hPa 0,0 l/m 11,0 km/h (2 Bft) NO 47 2 min 0,000 mm 0,0 UV-I 137 W/m -10,6 C -15,1 C 16,1 km/h (3 Bft) 100,00 %
19.01.2017 09:20 -9,6 C 92 % 1036,6 hPa 0,0 l/m 11,4 km/h (2 Bft) O-NO 74 2 min 0,000 mm 0,0 UV-I 141 W/m -10,6 C -15,5 C 16,1 km/h (3 Bft) 95,74 %
19.01.2017 09:22 -9,6 C 92 % 1036,6 hPa 0,0 l/m 11,4 km/h (2 Bft) NO 53 2 min 0,000 mm 0,0 UV-I 151 W/m -10,6 C -15,5 C 16,1 km/h (3 Bft) 100,00 %
19.01.2017 09:24 -9,5 C 92 % 1036,6 hPa 0,0 l/m 12,0 km/h (2 Bft) NO 43 2 min 0,000 mm 0,0 UV-I 153 W/m -10,6 C -15,9 C 17,7 km/h (3 Bft) 100,00 %
19.01.2017 09:26 -9,4 C 92 % 1036,6 hPa 0,0 l/m 12,2 km/h (2 Bft) NO 41 2 min 0,000 mm 0,0 UV-I 160 W/m -10,5 C -16,0 C 17,7 km/h (3 Bft) 100,00 %
19.01.2017 09:28 -9,4 C 91 % 1036,6 hPa 0,0 l/m 11,1 km/h (2 Bft) NO 43 2 min 0,000 mm 0,0 UV-I 163 W/m -10,6 C -15,0 C 16,1 km/h (3 Bft) 100,00 %
19.01.2017 09:30 -9,4 C 91 % 1036,6 hPa 0,0 l/m 11,7 km/h (2 Bft) O 80 2 min 0,000 mm 0,0 UV-I 167 W/m -10,6 C -15,5 C 17,7 km/h (3 Bft) 100,00 %
19.01.2017 09:32 -9,4 C 91 % 1036,6 hPa 0,0 l/m 12,2 km/h (2 Bft) O-NO 61 2 min 0,000 mm 0,0 UV-I 174 W/m -10,6 C -16,0 C 19,3 km/h (3 Bft) 100,00 %
19.01.2017 09:34 -9,3 C 91 % 1036,6 hPa 0,0 l/m 12,0 km/h (2 Bft) O-NO 66 2 min 0,000 mm 0,0 UV-I 177 W/m -10,5 C -15,7 C 17,7 km/h (3 Bft) 100,00 %
19.01.2017 09:36 -9,3 C 91 % 1036,6 hPa 0,0 l/m 12,8 km/h (3 Bft) NO 52 2 min 0,000 mm 0,0 UV-I 184 W/m -10,5 C -16,4 C 20,9 km/h (4 Bft) 100,00 %
19.01.2017 09:38 -9,3 C 91 % 1036,7 hPa 0,0 l/m 12,9 km/h (3 Bft) NO 55 2 min 0,000 mm 0,0 UV-I 190 W/m -10,5 C -16,5 C 17,7 km/h (3 Bft) 97,87 %
19.01.2017 09:40 -9,2 C 91 % 1036,7 hPa 0,0 l/m 12,4 km/h (3 Bft) NO 45 2 min 0,000 mm 0,0 UV-I 194 W/m -10,4 C -16,0 C 16,1 km/h (3 Bft) 93,62 %
19.01.2017 09:42 -9,1 C 91 % 1036,7 hPa 0,0 l/m 10,3 km/h (2 Bft) O-NO 57 2 min 0,000 mm 0,0 UV-I 198 W/m -10,3 C -13,8 C 14,5 km/h (3 Bft) 100,00 %
19.01.2017 09:44 -9,1 C 91 % 1036,7 hPa 0,0 l/m 9,8 km/h (2 Bft) NO 52 2 min 0,000 mm 0,0 UV-I 204 W/m -10,3 C -13,3 C 16,1 km/h (3 Bft) 100,00 %
19.01.2017 09:46 -8,9 C 91 % 1036,8 hPa 0,0 l/m 9,8 km/h (2 Bft) O-NO 60 2 min 0,000 mm 0,0 UV-I 208 W/m -10,1 C -13,1 C 16,1 km/h (3 Bft) 97,87 %
19.01.2017 09:48 -8,9 C 91 % 1036,7 hPa 0,0 l/m 8,2 km/h (2 Bft) NO 40 2 min 0,000 mm 0,0 UV-I 214 W/m -10,1 C -11,2 C 14,5 km/h (3 Bft) 97,87 %
19.01.2017 09:50 -8,9 C 91 % 1036,7 hPa 0,0 l/m 8,2 km/h (2 Bft) NO 40 2 min 0,000 mm 0,0 UV-I 216 W/m -10,1 C -11,2 C 11,3 km/h (2 Bft) 100,00 %
19.01.2017 09:52 -8,8 C 90 % 1036,7 hPa 0,0 l/m 10,5 km/h (2 Bft) O-NO 63 2 min 0,000 mm 0,0 UV-I 222 W/m -10,1 C -13,7 C 16,1 km/h (3 Bft) 97,87 %
19.01.2017 09:54 -8,8 C 90 % 1036,7 hPa 0,0 l/m 10,1 km/h (2 Bft) N-NO 30 2 min 0,000 mm 0,0 UV-I 224 W/m -10,1 C -13,3 C 14,5 km/h (3 Bft) 100,00 %
19.01.2017 09:56 -8,8 C 90 % 1036,7 hPa 0,0 l/m 10,0 km/h (2 Bft) NO 36 2 min 0,000 mm 0,0 UV-I 233 W/m -10,1 C -13,2 C 14,5 km/h (3 Bft) 97,92 %
19.01.2017 09:58 -8,7 C 90 % 1036,8 hPa 0,0 l/m 11,1 km/h (2 Bft) O-NO 58 2 min 0,000 mm 0,0 UV-I 237 W/m -10,0 C -14,2 C 16,1 km/h (3 Bft) 100,00 %
19.01.2017 10:00 -8,7 C 90 % 1036,8 hPa 0,0 l/m 10,2 km/h (2 Bft) NO 39 2 min 0,051 mm 0,0 UV-I 239 W/m -10,0 C -13,3 C 16,1 km/h (3 Bft) 100,00 %
19.01.2017 10:02 -8,7 C 90 % 1036,8 hPa 0,0 l/m 11,9 km/h (2 Bft) O-NO 58 2 min 0,000 mm 0,0 UV-I 245 W/m -10,0 C -14,9 C 17,7 km/h (3 Bft) 100,00 %
19.01.2017 10:04 -8,6 C 90 % 1036,8 hPa 0,0 l/m 12,4 km/h (3 Bft) NO 54 2 min 0,000 mm 0,0 UV-I 249 W/m -9,9 C -15,3 C 17,7 km/h (3 Bft) 97,87 %
19.01.2017 10:06 -8,6 C 90 % 1036,8 hPa 0,0 l/m 11,6 km/h (2 Bft) NO 53 2 min 0,000 mm 0,0 UV-I 251 W/m -9,9 C -14,5 C 17,7 km/h (3 Bft) 100,00 %
19.01.2017 10:08 -8,4 C 89 % 1036,8 hPa 0,0 l/m 13,6 km/h (3 Bft) O-NO 65 2 min 0,000 mm 0,0 UV-I 251 W/m -9,9 C -16,1 C 17,7 km/h (3 Bft) 100,00 %
19.01.2017 10:10 -8,4 C 90 % 1036,8 hPa 0,0 l/m 14,0 km/h (3 Bft) O-NO 61 2 min 0,000 mm 0,0 UV-I 256 W/m -9,7 C -16,4 C 19,3 km/h (3 Bft) 97,87 %
19.01.2017 10:12 -8,3 C 89 % 1036,9 hPa 0,0 l/m 14,7 km/h (3 Bft) O-NO 60 2 min 0,000 mm 0,0 UV-I 261 W/m -9,8 C -16,8 C 20,9 km/h (4 Bft) 100,00 %
19.01.2017 10:14 -8,3 C 89 % 1036,8 hPa 0,0 l/m 14,2 km/h (3 Bft) NO 55 2 min 0,000 mm 0,0 UV-I 265 W/m -9,8 C -16,4 C 19,3 km/h (3 Bft) 98,00 %
19.01.2017 10:16 -8,3 C 89 % 1036,8 hPa 0,0 l/m 9,6 km/h (2 Bft) NO 55 2 min 0,000 mm 0,0 UV-I 264 W/m -9,8 C -12,2 C 14,5 km/h (3 Bft) 97,87 %
19.01.2017 10:18 -8,2 C 89 % 1036,8 hPa 0,0 l/m 12,9 km/h (3 Bft) NO 49 2 min 0,000 mm 0,0 UV-I 267 W/m -9,7 C -15,2 C 17,7 km/h (3 Bft) 97,87 %
19.01.2017 10:20 -8,2 C 89 % 1036,8 hPa 0,0 l/m 11,7 km/h (2 Bft) O-NO 67 2 min 0,000 mm 0,0 UV-I 275 W/m -9,7 C -14,2 C 17,7 km/h (3 Bft) 97,87 %
19.01.2017 10:22 -8,2 C 89 % 1036,8 hPa 0,0 l/m 11,0 km/h (2 Bft) O-NO 57 2 min 0,000 mm 0,0 UV-I 276 W/m -9,7 C -13,5 C 19,3 km/h (3 Bft) 97,87 %
19.01.2017 10:24 -8,2 C 89 % 1036,7 hPa 0,0 l/m 12,0 km/h (2 Bft) NO 55 2 min 0,000 mm 0,0 UV-I 278 W/m -9,7 C -14,4 C 17,7 km/h (3 Bft) 97,37 %
19.01.2017 10:26 -8,1 C 88 % 1036,7 hPa 0,0 l/m 15,7 km/h (3 Bft) O-NO 60 2 min 0,000 mm 0,0 UV-I 280 W/m -9,7 C -17,3 C 20,9 km/h (4 Bft) 95,74 %
19.01.2017 10:28 -8,1 C 88 % 1036,7 hPa 0,0 l/m 14,6 km/h (3 Bft) O-NO 63 2 min 0,000 mm 0,0 UV-I 283 W/m -9,7 C -16,5 C 19,3 km/h (3 Bft) 95,74 %
19.01.2017 10:30 -8,0 C 88 % 1036,7 hPa 0,0 l/m 15,5 km/h (3 Bft) O-NO 57 2 min 0,000 mm 0,3 UV-I 287 W/m -9,6 C -17,0 C 22,5 km/h (4 Bft) 98,00 %
19.01.2017 10:32 -7,9 C 88 % 1036,8 hPa 0,0 l/m 14,5 km/h (3 Bft) O-NO 64 2 min 0,000 mm 0,5 UV-I 289 W/m -9,5 C -16,2 C 20,9 km/h (4 Bft) 95,74 %
19.01.2017 10:34 -7,9 C 88 % 1036,7 hPa 0,0 l/m 15,1 km/h (3 Bft) O-NO 68 2 min 0,000 mm 0,5 UV-I 290 W/m -9,5 C -16,6 C 20,9 km/h (4 Bft) 95,74 %
19.01.2017 10:36 -7,8 C 88 % 1036,7 hPa 0,0 l/m 13,2 km/h (3 Bft) NO 52 2 min 0,000 mm 0,5 UV-I 293 W/m -9,4 C -15,0 C 19,3 km/h (3 Bft) 100,00 %
19.01.2017 10:38 -7,8 C 88 % 1036,7 hPa 0,0 l/m 15,2 km/h (3 Bft) NO 49 2 min 0,000 mm 0,5 UV-I 299 W/m -9,4 C -16,6 C 20,9 km/h (4 Bft) 100,00 %
19.01.2017 10:40 -7,8 C 88 % 1036,7 hPa 0,0 l/m 16,4 km/h (3 Bft) NO 55 2 min 0,000 mm 0,5 UV-I 302 W/m -9,4 C -17,4 C 20,9 km/h (4 Bft) 100,00 %
19.01.2017 10:42 -7,7 C 87 % 1036,7 hPa 0,0 l/m 17,9 km/h (3 Bft) O-NO 62 2 min 0,000 mm 0,5 UV-I 301 W/m -9,5 C -18,3 C 25,7 km/h (4 Bft) 97,87 %
19.01.2017 10:44 -7,6 C 87 % 1036,7 hPa 0,0 l/m 15,9 km/h (3 Bft) O-NO 71 2 min 0,000 mm 0,5 UV-I 306 W/m -9,4 C -16,8 C 22,5 km/h (4 Bft) 97,44 %
19.01.2017 10:46 -7,6 C 87 % 1036,7 hPa 0,0 l/m 13,2 km/h (3 Bft) O-NO 57 2 min 0,000 mm 0,5 UV-I 308 W/m -9,4 C -14,8 C 20,9 km/h (4 Bft) 96,00 %
19.01.2017 10:48 -7,6 C 87 % 1036,7 hPa 0,0 l/m 17,7 km/h (3 Bft) NO 55 2 min 0,000 mm 0,5 UV-I 309 W/m -9,4 C -18,1 C 24,1 km/h (4 Bft) 100,00 %
19.01.2017 10:50 -7,5 C 86 % 1036,7 hPa 0,0 l/m 18,5 km/h (3 Bft) O-NO 61 2 min 0,000 mm 0,5 UV-I 314 W/m -9,4 C -18,4 C 24,1 km/h (4 Bft) 100,00 %
19.01.2017 10:52 -7,5 C 86 % 1036,7 hPa 0,0 l/m 15,6 km/h (3 Bft) O-NO 61 2 min 0,000 mm 0,5 UV-I 315 W/m -9,4 C -16,5 C 19,3 km/h (3 Bft) 97,87 %
19.01.2017 10:54 -7,4 C 86 % 1036,7 hPa 0,0 l/m 17,8 km/h (3 Bft) NO 53 2 min 0,000 mm 0,5 UV-I 318 W/m -9,3 C -17,9 C 24,1 km/h (4 Bft) 97,87 %
19.01.2017 10:56 -7,4 C 86 % 1036,7 hPa 0,0 l/m 18,1 km/h (3 Bft) O-NO 61 2 min 0,000 mm 0,5 UV-I 323 W/m -9,3 C -18,1 C 24,1 km/h (4 Bft) 100,00 %
19.01.2017 10:58 -7,3 C 86 % 1036,7 hPa 0,0 l/m 17,2 km/h (3 Bft) O-NO 63 2 min 0,000 mm 0,6 UV-I 328 W/m -9,2 C -17,4 C 22,5 km/h (4 Bft) 97,87 %
19.01.2017 11:00 -7,3 C 86 % 1036,7 hPa 0,0 l/m 19,7 km/h (3 Bft) NO 56 2 min 0,000 mm 0,6 UV-I 330 W/m -9,2 C -18,9 C 24,1 km/h (4 Bft) 100,00 %
19.01.2017 11:02 -7,3 C 86 % 1036,6 hPa 0,0 l/m 16,7 km/h (3 Bft) NO 44 2 min 0,076 mm 0,6 UV-I 327 W/m -9,2 C -17,0 C 25,7 km/h (4 Bft) 100,00 %
19.01.2017 11:04 -7,3 C 86 % 1036,6 hPa 0,0 l/m 14,7 km/h (3 Bft) NO 49 2 min 0,000 mm 0,6 UV-I 329 W/m -9,2 C -15,6 C 20,9 km/h (4 Bft) 100,00 %
19.01.2017 11:06 -7,3 C 86 % 1036,6 hPa 0,0 l/m 14,1 km/h (3 Bft) O-NO 59 2 min 0,000 mm 0,6 UV-I 329 W/m -9,2 C -15,1 C 17,7 km/h (3 Bft) 100,00 %
19.01.2017 11:08 -7,3 C 86 % 1036,6 hPa 0,0 l/m 16,0 km/h (3 Bft) NO 52 2 min 0,000 mm 0,6 UV-I 331 W/m -9,2 C -16,5 C 19,3 km/h (3 Bft) 100,00 %
19.01.2017 11:10 -7,2 C 86 % 1036,6 hPa 0,0 l/m 13,9 km/h (3 Bft) NO 46 2 min 0,000 mm 0,6 UV-I 334 W/m -9,1 C -14,9 C 19,3 km/h (3 Bft) 100,00 %
19.01.2017 11:12 -7,2 C 86 % 1036,5 hPa 0,0 l/m 14,1 km/h (3 Bft) NO 54 2 min 0,000 mm 0,6 UV-I 333 W/m -9,1 C -15,0 C 22,5 km/h (4 Bft) 97,87 %
19.01.2017 11:14 -7,2 C 85 % 1036,5 hPa 0,0 l/m 15,9 km/h (3 Bft) O-NO 66 2 min 0,000 mm 0,6 UV-I 338 W/m -9,3 C -16,3 C 22,5 km/h (4 Bft) 100,00 %
19.01.2017 11:16 -7,2 C 85 % 1036,6 hPa 0,0 l/m 16,0 km/h (3 Bft) O-NO 65 2 min 0,000 mm 0,6 UV-I 340 W/m -9,3 C -16,4 C 22,5 km/h (4 Bft) 97,87 %
19.01.2017 11:18 -7,2 C 85 % 1036,5 hPa 0,0 l/m 9,1 km/h (2 Bft) N-NO 27 2 min 0,000 mm 0,6 UV-I 341 W/m -9,3 C -10,5 C 12,9 km/h (3 Bft) 97,87 %
19.01.2017 11:20 -7,1 C 86 % 1036,5 hPa 0,0 l/m 15,4 km/h (3 Bft) O-NO 59 2 min 0,000 mm 0,6 UV-I 343 W/m -9,0 C -15,9 C 20,9 km/h (4 Bft) 95,74 %
19.01.2017 11:22 -7,1 C 85 % 1036,4 hPa 0,0 l/m 14,7 km/h (3 Bft) NO 44 2 min 0,000 mm 0,6 UV-I 338 W/m -9,2 C -15,4 C 22,5 km/h (4 Bft) 100,00 %
19.01.2017 11:24 -7,1 C 85 % 1036,5 hPa 0,0 l/m 18,9 km/h (3 Bft) O-NO 57 2 min 0,000 mm 0,6 UV-I 342 W/m -9,2 C -18,2 C 24,1 km/h (4 Bft) 100,00 %
19.01.2017 11:26 -7,0 C 85 % 1036,4 hPa 0,0 l/m 16,4 km/h (3 Bft) NO 55 2 min 0,000 mm 0,6 UV-I 346 W/m -9,1 C -16,4 C 20,9 km/h (4 Bft) 100,00 %
19.01.2017 11:28 -7,0 C 85 % 1036,4 hPa 0,0 l/m 14,7 km/h (3 Bft) NO 42 2 min 0,000 mm 0,6 UV-I 347 W/m -9,1 C -15,2 C 19,3 km/h (3 Bft) 97,87 %
19.01.2017 11:30 -7,0 C 85 % 1036,4 hPa 0,0 l/m 16,1 km/h (3 Bft) O-NO 64 2 min 0,000 mm 0,6 UV-I 351 W/m -9,1 C -16,2 C 22,5 km/h (4 Bft) 98,00 %
19.01.2017 11:32 -7,0 C 85 % 1036,4 hPa 0,0 l/m 16,2 km/h (3 Bft) NO 40 2 min 0,000 mm 0,6 UV-I 354 W/m -9,1 C -16,3 C 22,5 km/h (4 Bft) 97,87 %
19.01.2017 11:34 -7,0 C 85 % 1036,4 hPa 0,0 l/m 14,8 km/h (3 Bft) NO 51 2 min 0,000 mm 0,7 UV-I 358 W/m -9,1 C -15,3 C 19,3 km/h (3 Bft) 95,74 %
19.01.2017 11:36 -7,0 C 85 % 1036,4 hPa 0,0 l/m 14,3 km/h (3 Bft) NO 49 2 min 0,000 mm 0,7 UV-I 360 W/m -9,1 C -14,9 C 19,3 km/h (3 Bft) 95,74 %
19.01.2017 11:38 -6,9 C 85 % 1036,4 hPa 0,0 l/m 14,7 km/h (3 Bft) NO 40 2 min 0,000 mm 0,7 UV-I 363 W/m -9,0 C -15,1 C 20,9 km/h (4 Bft) 97,87 %
19.01.2017 11:40 -6,9 C 85 % 1036,4 hPa 0,0 l/m 16,0 km/h (3 Bft) NO 53 2 min 0,000 mm 0,7 UV-I 363 W/m -9,0 C -16,1 C 22,5 km/h (4 Bft) 97,87 %
19.01.2017 11:42 -6,8 C 85 % 1036,4 hPa 0,0 l/m 15,0 km/h (3 Bft) NO 46 2 min 0,000 mm 0,7 UV-I 364 W/m -8,9 C -15,2 C 20,9 km/h (4 Bft) 97,87 %
19.01.2017 11:44 -6,8 C 85 % 1036,4 hPa 0,0 l/m 17,5 km/h (3 Bft) O-NO 59 2 min 0,000 mm 0,7 UV-I 366 W/m -8,9 C -16,9 C 20,9 km/h (4 Bft) 97,37 %
19.01.2017 11:46 -6,8 C 85 % 1036,4 hPa 0,0 l/m 17,0 km/h (3 Bft) O-NO 59 2 min 0,000 mm 0,7 UV-I 367 W/m -8,9 C -16,6 C 20,9 km/h (4 Bft) 98,11 %
19.01.2017 11:48 -6,8 C 85 % 1036,3 hPa 0,0 l/m 13,3 km/h (3 Bft) NO 38 2 min 0,000 mm 0,7 UV-I 368 W/m -8,9 C -13,9 C 19,3 km/h (3 Bft) 95,74 %
19.01.2017 11:50 -6,7 C 84 % 1036,3 hPa 0,0 l/m 15,5 km/h (3 Bft) NO 36 2 min 0,000 mm 0,7 UV-I 367 W/m -8,9 C -15,5 C 20,9 km/h (4 Bft) 97,87 %
19.01.2017 11:52 -6,7 C 84 % 1036,3 hPa 0,0 l/m 15,7 km/h (3 Bft) NO 43 2 min 0,000 mm 0,7 UV-I 366 W/m -8,9 C -15,6 C 19,3 km/h (3 Bft) 97,87 %
19.01.2017 11:54 -6,7 C 84 % 1036,3 hPa 0,0 l/m 14,7 km/h (3 Bft) O-NO 63 2 min 0,000 mm 0,7 UV-I 371 W/m -8,9 C -14,9 C 19,3 km/h (3 Bft) 100,00 %
19.01.2017 11:56 -6,7 C 84 % 1036,2 hPa 0,0 l/m 13,5 km/h (3 Bft) O-NO 58 2 min 0,000 mm 0,7 UV-I 369 W/m -8,9 C -14,0 C 19,3 km/h (3 Bft) 98,36 %
19.01.2017 11:58 -6,6 C 84 % 1036,2 hPa 0,0 l/m 18,7 km/h (3 Bft) O-NO 63 2 min 0,000 mm 0,7 UV-I 369 W/m -8,8 C -17,4 C 22,5 km/h (4 Bft) 100,00 %
19.01.2017 12:00 -6,6 C 84 % 1036,2 hPa 0,0 l/m 16,3 km/h (3 Bft) O-NO 61 2 min 0,000 mm 0,7 UV-I 371 W/m -8,8 C -15,9 C 20,9 km/h (4 Bft) 100,00 %
19.01.2017 12:02 -6,6 C 84 % 1036,2 hPa 0,0 l/m 17,6 km/h (3 Bft) NO 51 2 min 0,102 mm 0,7 UV-I 371 W/m -8,8 C -16,7 C 24,1 km/h (4 Bft) 100,00 %
19.01.2017 12:04 -6,6 C 84 % 1036,1 hPa 0,0 l/m 15,1 km/h (3 Bft) NO 46 2 min 0,000 mm 0,7 UV-I 372 W/m -8,8 C -15,0 C 19,3 km/h (3 Bft) 100,00 %
19.01.2017 12:06 -6,6 C 84 % 1036,1 hPa 0,0 l/m 15,2 km/h (3 Bft) N-NO 27 2 min 0,000 mm 0,7 UV-I 372 W/m -8,8 C -15,1 C 19,3 km/h (3 Bft) 100,00 %
19.01.2017 12:08 -6,5 C 84 % 1036,1 hPa 0,0 l/m 15,9 km/h (3 Bft) O-NO 57 2 min 0,000 mm 0,7 UV-I 373 W/m -8,7 C -15,5 C 20,9 km/h (4 Bft) 97,87 %
19.01.2017 12:10 -6,5 C 84 % 1036,1 hPa 0,0 l/m 16,2 km/h (3 Bft) NO 46 2 min 0,000 mm 0,7 UV-I 374 W/m -8,7 C -15,7 C 20,9 km/h (4 Bft) 97,87 %
19.01.2017 12:12 -6,4 C 84 % 1036,1 hPa 0,0 l/m 16,1 km/h (3 Bft) O-NO 61 2 min 0,000 mm 0,7 UV-I 373 W/m -8,6 C -15,5 C 20,9 km/h (4 Bft) 100,00 %
19.01.2017 12:14 -6,4 C 83 % 1036,1 hPa 0,0 l/m 17,1 km/h (3 Bft) NO 49 2 min 0,000 mm 0,7 UV-I 374 W/m -8,8 C -16,2 C 22,5 km/h (4 Bft) 100,00 %
19.01.2017 12:16 -6,4 C 83 % 1036,0 hPa 0,0 l/m 16,0 km/h (3 Bft) O-NO 59 2 min 0,000 mm 0,7 UV-I 375 W/m -8,8 C -15,4 C 20,9 km/h (4 Bft) 97,87 %
19.01.2017 12:18 -6,3 C 83 % 1036,0 hPa 0,0 l/m 15,7 km/h (3 Bft) NO 56 2 min 0,000 mm 0,7 UV-I 374 W/m -8,7 C -15,1 C 22,5 km/h (4 Bft) 97,87 %
19.01.2017 12:20 -6,3 C 83 % 1036,0 hPa 0,0 l/m 13,2 km/h (3 Bft) O-NO 59 2 min 0,000 mm 0,7 UV-I 374 W/m -8,7 C -13,3 C 19,3 km/h (3 Bft) 100,00 %
19.01.2017 12:22 -6,3 C 83 % 1036,0 hPa 0,0 l/m 15,4 km/h (3 Bft) O-NO 73 2 min 0,000 mm 0,7 UV-I 372 W/m -8,7 C -14,9 C 22,5 km/h (4 Bft) 100,00 %
19.01.2017 12:24 -6,2 C 83 % 1035,9 hPa 0,0 l/m 15,1 km/h (3 Bft) NO 44 2 min 0,000 mm 0,7 UV-I 374 W/m -8,6 C -14,6 C 22,5 km/h (4 Bft) 97,87 %
19.01.2017 12:26 -6,2 C 83 % 1035,9 hPa 0,0 l/m 17,2 km/h (3 Bft) NO 39 2 min 0,000 mm 0,7 UV-I 370 W/m -8,6 C -16,0 C 22,5 km/h (4 Bft) 100,00 %
19.01.2017 12:28 -6,1 C 83 % 1035,9 hPa 0,0 l/m 16,4 km/h (3 Bft) O-NO 63 2 min 0,000 mm 0,7 UV-I 372 W/m -8,5 C -15,3 C 19,3 km/h (3 Bft) 100,00 %
19.01.2017 12:30 -6,1 C 83 % 1035,8 hPa 0,0 l/m 13,1 km/h (3 Bft) O-NO 76 2 min 0,000 mm 0,7 UV-I 369 W/m -8,5 C -12,9 C 17,7 km/h (3 Bft) 100,00 %
19.01.2017 12:32 -6,1 C 83 % 1035,8 hPa 0,0 l/m 15,9 km/h (3 Bft) O-NO 63 2 min 0,000 mm 0,7 UV-I 371 W/m -8,5 C -15,0 C 20,9 km/h (4 Bft) 97,87 %
19.01.2017 12:34 -6,1 C 83 % 1035,8 hPa 0,0 l/m 19,3 km/h (3 Bft) O-NO 72 2 min 0,000 mm 0,7 UV-I 371 W/m -8,5 C -17,1 C 24,1 km/h (4 Bft) 100,00 %
19.01.2017 12:36 -6,1 C 83 % 1035,7 hPa 0,0 l/m 18,5 km/h (3 Bft) NO 49 2 min 0,000 mm 0,7 UV-I 368 W/m -8,5 C -16,7 C 22,5 km/h (4 Bft) 100,00 %
19.01.2017 12:38 -6,1 C 82 % 1035,7 hPa 0,0 l/m 19,0 km/h (3 Bft) NO 46 2 min 0,000 mm 0,7 UV-I 367 W/m -8,7 C -16,9 C 24,1 km/h (4 Bft) 100,00 %
19.01.2017 12:40 -6,0 C 83 % 1035,7 hPa 0,0 l/m 17,5 km/h (3 Bft) NO 55 2 min 0,000 mm 0,7 UV-I 367 W/m -8,4 C -15,9 C 22,5 km/h (4 Bft) 97,87 %
19.01.2017 12:42 -6,0 C 82 % 1035,7 hPa 0,0 l/m 19,5 km/h (3 Bft) O-NO 57 2 min 0,000 mm 0,7 UV-I 367 W/m -8,6 C -17,1 C 24,1 km/h (4 Bft) 100,00 %
19.01.2017 12:44 -6,0 C 82 % 1035,6 hPa 0,0 l/m 19,1 km/h (3 Bft) O-NO 74 2 min 0,000 mm 0,7 UV-I 366 W/m -8,6 C -16,9 C 24,1 km/h (4 Bft) 100,00 %
19.01.2017 12:46 -5,9 C 82 % 1035,6 hPa 0,0 l/m 19,2 km/h (3 Bft) NO 55 2 min 0,000 mm 0,7 UV-I 365 W/m -8,5 C -16,8 C 27,4 km/h (4 Bft) 97,87 %
19.01.2017 12:48 -5,9 C 82 % 1035,6 hPa 0,0 l/m 18,5 km/h (3 Bft) NO 52 2 min 0,000 mm 0,7 UV-I 365 W/m -8,5 C -16,4 C 25,7 km/h (4 Bft) 98,00 %
19.01.2017 12:50 -5,9 C 82 % 1035,6 hPa 0,0 l/m 17,7 km/h (3 Bft) O-NO 74 2 min 0,000 mm 0,7 UV-I 364 W/m -8,5 C -15,9 C 22,5 km/h (4 Bft) 97,37 %
19.01.2017 12:52 -5,9 C 82 % 1035,5 hPa 0,0 l/m 18,0 km/h (3 Bft) O-NO 65 2 min 0,000 mm 0,7 UV-I 361 W/m -8,5 C -16,1 C 22,5 km/h (4 Bft) 98,00 %
19.01.2017 12:54 -5,8 C 82 % 1035,5 hPa 0,0 l/m 16,9 km/h (3 Bft) O-NO 58 2 min 0,000 mm 0,7 UV-I 361 W/m -8,4 C -15,3 C 20,9 km/h (4 Bft) 95,74 %
19.01.2017 12:56 -5,8 C 82 % 1035,5 hPa 0,0 l/m 18,9 km/h (3 Bft) O-NO 62 2 min 0,000 mm 0,7 UV-I 358 W/m -8,4 C -16,5 C 25,7 km/h (4 Bft) 97,87 %
19.01.2017 12:58 -5,8 C 82 % 1035,5 hPa 0,0 l/m 19,2 km/h (3 Bft) O-NO 63 2 min 0,000 mm 0,7 UV-I 359 W/m -8,4 C -16,7 C 24,1 km/h (4 Bft) 96,00 %
19.01.2017 13:00 -5,8 C 82 % 1035,5 hPa 0,0 l/m 18,1 km/h (3 Bft) O-NO 69 2 min 0,102 mm 0,7 UV-I 359 W/m -8,4 C -16,0 C 22,5 km/h (4 Bft) 93,62 %
19.01.2017 13:02 -5,8 C 82 % 1035,4 hPa 0,0 l/m 18,0 km/h (3 Bft) NO 55 2 min 0,000 mm 0,7 UV-I 355 W/m -8,4 C -16,0 C 22,5 km/h (4 Bft) 97,87 %
19.01.2017 13:04 -5,7 C 81 % 1035,5 hPa 0,0 l/m 17,6 km/h (3 Bft) NO 46 2 min 0,000 mm 0,7 UV-I 353 W/m -8,4 C -15,6 C 22,5 km/h (4 Bft) 97,87 %
19.01.2017 13:06 -5,7 C 81 % 1035,4 hPa 0,0 l/m 18,1 km/h (3 Bft) NO 46 2 min 0,000 mm 0,7 UV-I 349 W/m -8,4 C -15,9 C 22,5 km/h (4 Bft) 97,87 %
19.01.2017 13:08 -5,7 C 81 % 1035,5 hPa 0,0 l/m 18,5 km/h (3 Bft) NO 51 2 min 0,000 mm 0,7 UV-I 348 W/m -8,4 C -16,1 C 22,5 km/h (4 Bft) 100,00 %
19.01.2017 13:10 -5,7 C 81 % 1035,4 hPa 0,0 l/m 17,6 km/h (3 Bft) O-NO 74 2 min 0,000 mm 0,6 UV-I 349 W/m -8,4 C -15,6 C 22,5 km/h (4 Bft) 97,87 %
19.01.2017 13:12 -5,6 C 81 % 1035,4 hPa 0,0 l/m 16,7 km/h (3 Bft) O-NO 61 2 min 0,000 mm 0,6 UV-I 345 W/m -8,3 C -14,9 C 24,1 km/h (4 Bft) 100,00 %
19.01.2017 13:14 -5,6 C 81 % 1035,4 hPa 0,0 l/m 20,1 km/h (4 Bft) O-NO 62 2 min 0,000 mm 0,6 UV-I 342 W/m -8,3 C -16,9 C 24,1 km/h (4 Bft) 100,00 %
19.01.2017 13:16 -5,6 C 81 % 1035,4 hPa 0,0 l/m 18,1 km/h (3 Bft) O-NO 63 2 min 0,000 mm 0,6 UV-I 339 W/m -8,3 C -15,8 C 24,1 km/h (4 Bft) 100,00 %
19.01.2017 13:18 -5,6 C 81 % 1035,4 hPa 0,0 l/m 15,5 km/h (3 Bft) O-NO 78 2 min 0,000 mm 0,6 UV-I 338 W/m -8,3 C -14,1 C 22,5 km/h (4 Bft) 100,00 %
19.01.2017 13:20 -5,5 C 81 % 1035,4 hPa 0,0 l/m 17,2 km/h (3 Bft) O 79 2 min 0,000 mm 0,6 UV-I 338 W/m -8,2 C -15,1 C 22,5 km/h (4 Bft) 97,14 %
19.01.2017 13:22 -5,4 C 80 % 1035,4 hPa 0,0 l/m 17,7 km/h (3 Bft) O-NO 61 2 min 0,000 mm 0,6 UV-I 333 W/m -8,3 C -15,3 C 24,1 km/h (4 Bft) 100,00 %
19.01.2017 13:24 -5,4 C 80 % 1035,3 hPa 0,0 l/m 16,2 km/h (3 Bft) NO 36 2 min 0,000 mm 0,6 UV-I 332 W/m -8,3 C -14,3 C 22,5 km/h (4 Bft) 100,00 %
19.01.2017 13:26 -5,4 C 80 % 1035,3 hPa 0,0 l/m 15,1 km/h (3 Bft) NO 49 2 min 0,000 mm 0,6 UV-I 330 W/m -8,3 C -13,6 C 19,3 km/h (3 Bft) 100,00 %
19.01.2017 13:28 -5,3 C 80 % 1035,3 hPa 0,0 l/m 14,2 km/h (3 Bft) O-NO 61 2 min 0,000 mm 0,6 UV-I 329 W/m -8,2 C -12,8 C 20,9 km/h (4 Bft) 100,00 %
19.01.2017 13:30 -5,3 C 80 % 1035,3 hPa 0,0 l/m 15,1 km/h (3 Bft) NO 51 2 min 0,000 mm 0,6 UV-I 323 W/m -8,2 C -13,5 C 25,7 km/h (4 Bft) 100,00 %
19.01.2017 13:32 -5,3 C 80 % 1035,3 hPa 0,0 l/m 16,1 km/h (3 Bft) O-NO 75 2 min 0,000 mm 0,6 UV-I 320 W/m -8,2 C -14,1 C 22,5 km/h (4 Bft) 97,87 %
19.01.2017 13:34 -5,3 C 80 % 1035,3 hPa 0,0 l/m 16,4 km/h (3 Bft) NO 46 2 min 0,000 mm 0,6 UV-I 321 W/m -8,2 C -14,3 C 20,9 km/h (4 Bft) 95,74 %
19.01.2017 13:36 -5,3 C 80 % 1035,3 hPa 0,0 l/m 13,1 km/h (3 Bft) NO 53 2 min 0,000 mm 0,6 UV-I 321 W/m -8,2 C -12,0 C 17,7 km/h (3 Bft) 97,87 %
19.01.2017 13:38 -5,2 C 80 % 1035,3 hPa 0,0 l/m 14,3 km/h (3 Bft) O-NO 63 2 min 0,000 mm 0,6 UV-I 317 W/m -8,1 C -12,8 C 19,3 km/h (3 Bft) 100,00 %
19.01.2017 13:40 -5,2 C 80 % 1035,3 hPa 0,0 l/m 15,1 km/h (3 Bft) O-NO 58 2 min 0,000 mm 0,6 UV-I 315 W/m -8,1 C -13,4 C 19,3 km/h (3 Bft) 100,00 %
19.01.2017 13:42 -5,2 C 80 % 1035,3 hPa 0,0 l/m 15,9 km/h (3 Bft) O-NO 63 2 min 0,000 mm 0,5 UV-I 314 W/m -8,1 C -13,9 C 20,9 km/h (4 Bft) 100,00 %
19.01.2017 13:44 -5,2 C 79 % 1035,2 hPa 0,0 l/m 15,2 km/h (3 Bft) O 84 2 min 0,000 mm 0,5 UV-I 311 W/m -8,3 C -13,4 C 20,9 km/h (4 Bft) 100,00 %
19.01.2017 13:46 -5,2 C 79 % 1035,3 hPa 0,0 l/m 14,3 km/h (3 Bft) O-NO 62 2 min 0,000 mm 0,5 UV-I 308 W/m -8,3 C -12,8 C 19,3 km/h (3 Bft) 97,87 %
19.01.2017 13:48 -5,1 C 79 % 1035,2 hPa 0,0 l/m 14,6 km/h (3 Bft) O-NO 59 2 min 0,000 mm 0,5 UV-I 308 W/m -8,2 C -12,9 C 22,5 km/h (4 Bft) 100,00 %
19.01.2017 13:50 -5,1 C 79 % 1035,1 hPa 0,0 l/m 17,1 km/h (3 Bft) NO 50 2 min 0,000 mm 0,5 UV-I 304 W/m -8,2 C -14,5 C 22,5 km/h (4 Bft) 100,00 %
19.01.2017 13:52 -5,1 C 79 % 1035,1 hPa 0,0 l/m 14,2 km/h (3 Bft) O-NO 57 2 min 0,000 mm 0,5 UV-I 300 W/m -8,2 C -12,6 C 19,3 km/h (3 Bft) 100,00 %
19.01.2017 13:54 -5,1 C 79 % 1035,0 hPa 0,0 l/m 17,5 km/h (3 Bft) O-NO 58 2 min 0,000 mm 0,5 UV-I 296 W/m -8,2 C -14,8 C 20,9 km/h (4 Bft) 100,00 %
19.01.2017 13:56 -5,1 C 79 % 1035,0 hPa 0,0 l/m 16,3 km/h (3 Bft) O-NO 78 2 min 0,000 mm 0,5 UV-I 294 W/m -8,2 C -14,0 C 25,7 km/h (4 Bft) 95,74 %
19.01.2017 13:58 -5,1 C 79 % 1035,1 hPa 0,0 l/m 15,5 km/h (3 Bft) NO 42 2 min 0,000 mm 0,5 UV-I 291 W/m -8,2 C -13,5 C 20,9 km/h (4 Bft) 100,00 %
19.01.2017 14:00 -5,1 C 79 % 1035,1 hPa 0,0 l/m 15,2 km/h (3 Bft) O-NO 60 2 min 0,000 mm 0,5 UV-I 290 W/m -8,2 C -13,3 C 20,9 km/h (4 Bft) 97,92 %
19.01.2017 14:02 -5,1 C 79 % 1035,1 hPa 0,0 l/m 16,2 km/h (3 Bft) NO 43 2 min 0,101 mm 0,5 UV-I 285 W/m -8,2 C -14,0 C 20,9 km/h (4 Bft) 95,92 %
19.01.2017 14:04 -5,0 C 79 % 1035,1 hPa 0,0 l/m 17,0 km/h (3 Bft) O 82 2 min 0,000 mm 0,5 UV-I 283 W/m -8,1 C -14,4 C 22,5 km/h (4 Bft) 95,74 %
19.01.2017 14:06 -4,9 C 79 % 1035,1 hPa 0,0 l/m 17,7 km/h (3 Bft) NO 40 2 min 0,000 mm 0,5 UV-I 283 W/m -8,0 C -14,7 C 22,5 km/h (4 Bft) 97,87 %
19.01.2017 14:08 -4,9 C 78 % 1035,1 hPa 0,0 l/m 17,9 km/h (3 Bft) NO 44 2 min 0,000 mm 0,4 UV-I 279 W/m -8,1 C -14,8 C 24,1 km/h (4 Bft) 97,87 %
19.01.2017 14:10 -4,9 C 78 % 1035,1 hPa 0,0 l/m 17,2 km/h (3 Bft) O-NO 67 2 min 0,000 mm 0,0 UV-I 277 W/m -8,1 C -14,4 C 25,7 km/h (4 Bft) 93,62 %
19.01.2017 14:12 -4,9 C 78 % 1035,1 hPa 0,0 l/m 14,7 km/h (3 Bft) O-NO 67 2 min 0,000 mm 0,0 UV-I 270 W/m -8,1 C -12,7 C 22,5 km/h (4 Bft) 97,87 %
19.01.2017 14:14 -5,0 C 78 % 1035,1 hPa 0,0 l/m 14,6 km/h (3 Bft) O-NO 61 2 min 0,000 mm 0,0 UV-I 267 W/m -8,2 C -12,8 C 19,3 km/h (3 Bft) 91,49 %
19.01.2017 14:16 -5,0 C 79 % 1035,2 hPa 0,0 l/m 16,6 km/h (3 Bft) NO 52 2 min 0,000 mm 0,0 UV-I 262 W/m -8,1 C -14,1 C 22,5 km/h (4 Bft) 95,74 %
19.01.2017 14:18 -5,0 C 79 % 1035,1 hPa 0,0 l/m 14,7 km/h (3 Bft) NO 55 2 min 0,000 mm 0,0 UV-I 259 W/m -8,1 C -12,8 C 20,9 km/h (4 Bft) 97,87 %
19.01.2017 14:20 -5,0 C 79 % 1035,2 hPa 0,0 l/m 15,0 km/h (3 Bft) NO 47 2 min 0,000 mm 0,0 UV-I 256 W/m -8,1 C -13,0 C 19,3 km/h (3 Bft) 97,87 %
19.01.2017 14:22 -5,0 C 79 % 1035,1 hPa 0,0 l/m 15,2 km/h (3 Bft) O-NO 62 2 min 0,000 mm 0,0 UV-I 251 W/m -8,1 C -13,2 C 20,9 km/h (4 Bft) 94,00 %
19.01.2017 14:24 -5,0 C 79 % 1035,1 hPa 0,0 l/m 13,5 km/h (3 Bft) O-NO 75 2 min 0,000 mm 0,0 UV-I 248 W/m -8,1 C -12,0 C 17,7 km/h (3 Bft) 95,74 %
19.01.2017 14:26 -4,9 C 79 % 1035,1 hPa 0,0 l/m 13,3 km/h (3 Bft) NO 56 2 min 0,000 mm 0,0 UV-I 246 W/m -8,0 C -11,7 C 19,3 km/h (3 Bft) 97,37 %
19.01.2017 14:28 -5,0 C 78 % 1035,1 hPa 0,0 l/m 15,3 km/h (3 Bft) NO 55 2 min 0,000 mm 0,0 UV-I 244 W/m -8,2 C -13,2 C 19,3 km/h (3 Bft) 95,74 %
19.01.2017 14:30 -4,9 C 78 % 1035,1 hPa 0,0 l/m 13,9 km/h (3 Bft) O-NO 59 2 min 0,000 mm 0,0 UV-I 241 W/m -8,1 C -12,1 C 20,9 km/h (4 Bft) 98,00 %
19.01.2017 14:32 -4,9 C 78 % 1035,2 hPa 0,0 l/m 14,4 km/h (3 Bft) O-NO 75 2 min 0,000 mm 0,0 UV-I 237 W/m -8,1 C -12,5 C 19,3 km/h (3 Bft) 100,00 %
19.01.2017 14:34 -4,9 C 78 % 1035,1 hPa 0,0 l/m 16,5 km/h (3 Bft) NO 53 2 min 0,000 mm 0,0 UV-I 231 W/m -8,1 C -13,9 C 20,9 km/h (4 Bft) 97,87 %
19.01.2017 14:36 -4,9 C 78 % 1035,2 hPa 0,0 l/m 16,3 km/h (3 Bft) NO 52 2 min 0,000 mm 0,0 UV-I 229 W/m -8,1 C -13,8 C 25,7 km/h (4 Bft) 100,00 %
19.01.2017 14:38 -4,9 C 78 % 1035,2 hPa 0,0 l/m 12,5 km/h (3 Bft) NO 50 2 min 0,000 mm 0,0 UV-I 225 W/m -8,1 C -11,1 C 19,3 km/h (3 Bft) 100,00 %
19.01.2017 14:40 -4,9 C 78 % 1035,2 hPa 0,0 l/m 16,6 km/h (3 Bft) O-NO 67 2 min 0,000 mm 0,0 UV-I 220 W/m -8,1 C -14,0 C 24,1 km/h (4 Bft) 100,00 %
19.01.2017 14:42 -4,9 C 78 % 1035,2 hPa 0,0 l/m 15,6 km/h (3 Bft) NO 45 2 min 0,000 mm 0,0 UV-I 218 W/m -8,1 C -13,3 C 22,5 km/h (4 Bft) 100,00 %
19.01.2017 14:44 -4,9 C 78 % 1035,1 hPa 0,0 l/m 16,4 km/h (3 Bft) O-NO 63 2 min 0,000 mm 0,0 UV-I 214 W/m -8,1 C -13,9 C 22,5 km/h (4 Bft) 98,00 %
19.01.2017 14:46 -4,9 C 78 % 1035,1 hPa 0,0 l/m 17,1 km/h (3 Bft) O-NO 57 2 min 0,000 mm 0,0 UV-I 212 W/m -8,1 C -14,3 C 25,7 km/h (4 Bft) 97,92 %
19.01.2017 14:48 -4,9 C 78 % 1035,1 hPa 0,0 l/m 14,6 km/h (3 Bft) O-NO 67 2 min 0,000 mm 0,0 UV-I 207 W/m -8,1 C -12,6 C 20,9 km/h (4 Bft) 97,14 %
19.01.2017 14:50 -4,9 C 78 % 1035,1 hPa 0,0 l/m 11,5 km/h (2 Bft) O-NO 58 2 min 0,000 mm 0,0 UV-I 203 W/m -8,1 C -10,2 C 17,7 km/h (3 Bft) 100,00 %
19.01.2017 14:52 -4,9 C 78 % 1035,1 hPa 0,0 l/m 12,6 km/h (3 Bft) NO 52 2 min 0,000 mm 0,0 UV-I 199 W/m -8,1 C -11,1 C 19,3 km/h (3 Bft) 100,00 %
19.01.2017 14:54 -4,9 C 78 % 1035,0 hPa 0,0 l/m 17,1 km/h (3 Bft) O-NO 68 2 min 0,000 mm 0,0 UV-I 195 W/m -8,1 C -14,3 C 22,5 km/h (4 Bft) 95,74 %
19.01.2017 14:56 -4,8 C 78 % 1035,0 hPa 0,0 l/m 15,7 km/h (3 Bft) O 84 2 min 0,000 mm 0,0 UV-I 193 W/m -8,0 C -13,3 C 24,1 km/h (4 Bft) 100,00 %
19.01.2017 14:58 -4,8 C 78 % 1035,1 hPa 0,0 l/m 11,6 km/h (2 Bft) O-NO 68 2 min 0,000 mm 0,0 UV-I 190 W/m -8,0 C -10,2 C 14,5 km/h (3 Bft) 100,00 %
19.01.2017 15:00 -4,8 C 78 % 1035,1 hPa 0,0 l/m 12,9 km/h (3 Bft) O-NO 73 2 min 0,000 mm 0,0 UV-I 185 W/m -8,0 C -11,3 C 19,3 km/h (3 Bft) 97,87 %
19.01.2017 15:02 -4,8 C 78 % 1035,1 hPa 0,0 l/m 10,3 km/h (2 Bft) O-NO 59 2 min 0,076 mm 0,0 UV-I 180 W/m -8,0 C -9,0 C 16,1 km/h (3 Bft) 97,87 %
19.01.2017 15:04 -4,8 C 78 % 1035,0 hPa 0,0 l/m 12,9 km/h (3 Bft) O 89 2 min 0,000 mm 0,0 UV-I 176 W/m -8,0 C -11,3 C 20,9 km/h (4 Bft) 100,00 %
19.01.2017 15:06 -4,8 C 78 % 1035,0 hPa 0,0 l/m 14,7 km/h (3 Bft) O 87 2 min 0,000 mm 0,0 UV-I 172 W/m -8,0 C -12,6 C 20,9 km/h (4 Bft) 100,00 %
19.01.2017 15:08 -4,8 C 78 % 1035,0 hPa 0,0 l/m 13,6 km/h (3 Bft) O-NO 65 2 min 0,000 mm 0,0 UV-I 170 W/m -8,0 C -11,8 C 19,3 km/h (3 Bft) 97,87 %
19.01.2017 15:10 -4,8 C 78 % 1035,0 hPa 0,0 l/m 14,2 km/h (3 Bft) O-NO 73 2 min 0,000 mm 0,0 UV-I 167 W/m -8,0 C -12,2 C 19,3 km/h (3 Bft) 100,00 %
19.01.2017 15:12 -4,8 C 78 % 1035,0 hPa 0,0 l/m 13,8 km/h (3 Bft) O-NO 70 2 min 0,000 mm 0,0 UV-I 164 W/m -8,0 C -11,9 C 19,3 km/h (3 Bft) 100,00 %
19.01.2017 15:14 -4,8 C 78 % 1035,0 hPa 0,0 l/m 12,8 km/h (3 Bft) O-NO 76 2 min 0,000 mm 0,0 UV-I 160 W/m -8,0 C -11,2 C 20,9 km/h (4 Bft) 100,00 %
19.01.2017 15:16 -4,8 C 78 % 1035,0 hPa 0,0 l/m 12,7 km/h (3 Bft) NO 47 2 min 0,000 mm 0,0 UV-I 155 W/m -8,0 C -11,1 C 17,7 km/h (3 Bft) 100,00 %
19.01.2017 15:18 -4,8 C 78 % 1035,1 hPa 0,0 l/m 14,3 km/h (3 Bft) NO 53 2 min 0,000 mm 0,0 UV-I 150 W/m -8,0 C -12,3 C 19,3 km/h (3 Bft) 100,00 %
19.01.2017 15:20 -4,8 C 78 % 1035,1 hPa 0,0 l/m 12,9 km/h (3 Bft) O-NO 76 2 min 0,000 mm 0,0 UV-I 145 W/m -8,0 C -11,3 C 19,3 km/h (3 Bft) 100,00 %
19.01.2017 15:22 -4,8 C 77 % 1035,1 hPa 0,0 l/m 14,2 km/h (3 Bft) O-NO 62 2 min 0,000 mm 0,0 UV-I 141 W/m -8,2 C -12,2 C 19,3 km/h (3 Bft) 100,00 %
19.01.2017 15:24 -4,8 C 78 % 1035,0 hPa 0,0 l/m 13,4 km/h (3 Bft) O-NO 64 2 min 0,000 mm 0,0 UV-I 138 W/m -8,0 C -11,6 C 17,7 km/h (3 Bft) 95,74 %
19.01.2017 15:26 -4,9 C 78 % 1035,1 hPa 0,0 l/m 12,3 km/h (3 Bft) O 84 2 min 0,000 mm 0,0 UV-I 134 W/m -8,1 C -10,9 C 19,3 km/h (3 Bft) 100,00 %
19.01.2017 15:28 -4,8 C 78 % 1035,1 hPa 0,0 l/m 12,3 km/h (3 Bft) O-NO 77 2 min 0,000 mm 0,0 UV-I 129 W/m -8,0 C -10,8 C 17,7 km/h (3 Bft) 100,00 %
19.01.2017 15:30 -4,8 C 78 % 1035,1 hPa 0,0 l/m 12,5 km/h (3 Bft) O-NO 70 2 min 0,000 mm 0,0 UV-I 126 W/m -8,0 C -10,9 C 17,7 km/h (3 Bft) 97,87 %
19.01.2017 15:32 -4,9 C 77 % 1035,1 hPa 0,0 l/m 10,7 km/h (2 Bft) O-NO 64 2 min 0,000 mm 0,0 UV-I 121 W/m -8,3 C -9,5 C 17,7 km/h (3 Bft) 100,00 %
19.01.2017 15:34 -4,9 C 78 % 1035,1 hPa 0,0 l/m 11,7 km/h (2 Bft) NO 54 2 min 0,000 mm 0,0 UV-I 118 W/m -8,1 C -10,4 C 16,1 km/h (3 Bft) 100,00 %
19.01.2017 15:36 -4,9 C 78 % 1035,1 hPa 0,0 l/m 11,9 km/h (2 Bft) O-NO 68 2 min 0,000 mm 0,0 UV-I 113 W/m -8,1 C -10,6 C 17,7 km/h (3 Bft) 97,87 %
19.01.2017 15:38 -4,9 C 78 % 1035,1 hPa 0,0 l/m 12,0 km/h (2 Bft) O-NO 63 2 min 0,000 mm 0,0 UV-I 108 W/m -8,1 C -10,6 C 16,1 km/h (3 Bft) 100,00 %
19.01.2017 15:40 -4,8 C 78 % 1035,0 hPa 0,0 l/m 13,5 km/h (3 Bft) O 83 2 min 0,000 mm 0,0 UV-I 105 W/m -8,0 C -11,7 C 19,3 km/h (3 Bft) 100,00 %
19.01.2017 15:42 -4,8 C 78 % 1035,0 hPa 0,0 l/m 13,8 km/h (3 Bft) NO 49 2 min 0,000 mm 0,0 UV-I 101 W/m -8,0 C -11,9 C 19,3 km/h (3 Bft) 95,74 %
19.01.2017 15:44 -4,8 C 77 % 1035,0 hPa 0,0 l/m 14,4 km/h (3 Bft) O-NO 63 2 min 0,000 mm 0,0 UV-I 98 W/m -8,2 C -12,4 C 17,7 km/h (3 Bft) 100,00 %
19.01.2017 15:46 -4,8 C 78 % 1035,0 hPa 0,0 l/m 12,3 km/h (3 Bft) O-NO 68 2 min 0,000 mm 0,0 UV-I 94 W/m -8,0 C -10,8 C 16,1 km/h (3 Bft) 100,00 %
19.01.2017 15:48 -4,9 C 77 % 1035,1 hPa 0,0 l/m 12,2 km/h (2 Bft) O-NO 58 2 min 0,000 mm 0,0 UV-I 90 W/m -8,3 C -10,8 C 17,7 km/h (3 Bft) 95,74 %
19.01.2017 15:50 -4,9 C 78 % 1035,1 hPa 0,0 l/m 13,5 km/h (3 Bft) O-NO 65 2 min 0,000 mm 0,0 UV-I 85 W/m -8,1 C -11,8 C 19,3 km/h (3 Bft) 97,87 %
19.01.2017 15:52 -5,0 C 78 % 1035,1 hPa 0,0 l/m 13,8 km/h (3 Bft) NO 50 2 min 0,000 mm 0,0 UV-I 82 W/m -8,2 C -12,2 C 20,9 km/h (4 Bft) 100,00 %
19.01.2017 15:54 -5,0 C 78 % 1035,0 hPa 0,0 l/m 14,2 km/h (3 Bft) O-NO 61 2 min 0,000 mm 0,0 UV-I 77 W/m -8,2 C -12,5 C 22,5 km/h (4 Bft) 97,87 %
19.01.2017 15:56 -5,1 C 78 % 1035,0 hPa 0,0 l/m 14,8 km/h (3 Bft) O-NO 60 2 min 0,000 mm 0,0 UV-I 71 W/m -8,3 C -13,0 C 20,9 km/h (4 Bft) 95,74 %
19.01.2017 15:58 -5,1 C 78 % 1035,0 hPa 0,0 l/m 14,3 km/h (3 Bft) O-NO 57 2 min 0,000 mm 0,0 UV-I 68 W/m -8,3 C -12,7 C 20,9 km/h (4 Bft) 95,74 %
19.01.2017 16:00 -5,1 C 78 % 1035,0 hPa 0,0 l/m 15,3 km/h (3 Bft) O-NO 64 2 min 0,051 mm 0,0 UV-I 64 W/m -8,3 C -13,4 C 20,9 km/h (4 Bft) 97,92 %
19.01.2017 16:02 -5,2 C 78 % 1035,0 hPa 0,0 l/m 13,6 km/h (3 Bft) O-NO 60 2 min 0,000 mm 0,0 UV-I 61 W/m -8,4 C -12,3 C 19,3 km/h (3 Bft) 95,74 %
19.01.2017 16:04 -5,2 C 78 % 1034,9 hPa 0,0 l/m 12,8 km/h (3 Bft) O-NO 67 2 min 0,000 mm 0,0 UV-I 56 W/m -8,4 C -11,6 C 20,9 km/h (4 Bft) 95,74 %
19.01.2017 16:06 -5,3 C 79 % 1035,0 hPa 0,0 l/m 14,2 km/h (3 Bft) O 92 2 min 0,000 mm 0,0 UV-I 53 W/m -8,4 C -12,8 C 22,5 km/h (4 Bft) 95,74 %
19.01.2017 16:08 -5,3 C 79 % 1034,9 hPa 0,0 l/m 16,2 km/h (3 Bft) O-NO 65 2 min 0,000 mm 0,0 UV-I 49 W/m -8,4 C -14,2 C 22,5 km/h (4 Bft) 98,00 %
19.01.2017 16:10 -5,3 C 79 % 1034,9 hPa 0,0 l/m 14,0 km/h (3 Bft) O-NO 63 2 min 0,000 mm 0,0 UV-I 46 W/m -8,4 C -12,7 C 22,5 km/h (4 Bft) 97,87 %
19.01.2017 16:12 -5,3 C 79 % 1034,9 hPa 0,0 l/m 15,5 km/h (3 Bft) O-NO 57 2 min 0,000 mm 0,0 UV-I 43 W/m -8,4 C -13,7 C 20,9 km/h (4 Bft) 96,00 %
19.01.2017 16:14 -5,3 C 79 % 1034,9 hPa 0,0 l/m 14,2 km/h (3 Bft) O-NO 62 2 min 0,000 mm 0,0 UV-I 40 W/m -8,4 C -12,8 C 20,9 km/h (4 Bft) 95,74 %
19.01.2017 16:16 -5,3 C 79 % 1034,9 hPa 0,0 l/m 16,4 km/h (3 Bft) O-NO 69 2 min 0,000 mm 0,0 UV-I 35 W/m -8,4 C -14,3 C 24,1 km/h (4 Bft) 97,87 %
19.01.2017 16:18 -5,3 C 79 % 1034,9 hPa 0,0 l/m 18,1 km/h (3 Bft) O-NO 71 2 min 0,000 mm 0,0 UV-I 33 W/m -8,4 C -15,4 C 24,1 km/h (4 Bft) 97,14 %
19.01.2017 16:20 -5,4 C 79 % 1035,0 hPa 0,0 l/m 16,9 km/h (3 Bft) O-NO 61 2 min 0,000 mm 0,0 UV-I 29 W/m -8,5 C -14,8 C 27,4 km/h (4 Bft) 91,84 %
19.01.2017 16:22 -5,4 C 79 % 1034,9 hPa 0,0 l/m 16,9 km/h (3 Bft) O 79 2 min 0,000 mm 0,0 UV-I 27 W/m -8,5 C -14,8 C 20,9 km/h (4 Bft) 98,00 %
19.01.2017 16:24 -5,4 C 80 % 1034,9 hPa 0,0 l/m 17,2 km/h (3 Bft) O-NO 63 2 min 0,000 mm 0,0 UV-I 24 W/m -8,3 C -15,0 C 24,1 km/h (4 Bft) 97,87 %
19.01.2017 16:26 -5,5 C 80 % 1034,9 hPa 0,0 l/m 18,6 km/h (3 Bft) NO 50 2 min 0,000 mm 0,0 UV-I 22 W/m -8,4 C -15,9 C 24,1 km/h (4 Bft) 98,11 %
19.01.2017 16:28 -5,5 C 80 % 1034,9 hPa 0,0 l/m 17,6 km/h (3 Bft) O-NO 58 2 min 0,000 mm 0,0 UV-I 20 W/m -8,4 C -15,4 C 24,1 km/h (4 Bft) 95,74 %
19.01.2017 16:30 -5,5 C 80 % 1035,0 hPa 0,0 l/m 16,7 km/h (3 Bft) O-NO 71 2 min 0,000 mm 0,0 UV-I 18 W/m -8,4 C -14,8 C 22,5 km/h (4 Bft) 97,87 %
19.01.2017 16:32 -5,6 C 80 % 1035,0 hPa 0,0 l/m 15,6 km/h (3 Bft) O 85 0 min 0,000 mm 0,0 UV-I 16 W/m -8,5 C -14,2 C 22,5 km/h (4 Bft) 94,74 %
19.01.2017 16:34 -5,5 C 80 % 1035,0 hPa 0,0 l/m 16,3 km/h (3 Bft) NO 51 0 min 0,000 mm 0,0 UV-I 14 W/m -8,4 C -14,5 C 20,9 km/h (4 Bft) 95,74 %
19.01.2017 16:36 -5,5 C 80 % 1035,1 hPa 0,0 l/m 15,8 km/h (3 Bft) O 88 0 min 0,000 mm 0,0 UV-I 12 W/m -8,4 C -14,2 C 22,5 km/h (4 Bft) 100,00 %
19.01.2017 16:38 -5,5 C 80 % 1035,1 hPa 0,0 l/m 16,0 km/h (3 Bft) NO 44 0 min 0,000 mm 0,0 UV-I 11 W/m -8,4 C -14,3 C 22,5 km/h (4 Bft) 97,87 %
19.01.2017 16:40 -5,5 C 80 % 1035,1 hPa 0,0 l/m 14,3 km/h (3 Bft) NO 52 0 min 0,000 mm 0,0 UV-I 11 W/m -8,4 C -13,1 C 19,3 km/h (3 Bft) 97,87 %
19.01.2017 16:42 -5,6 C 80 % 1035,1 hPa 0,0 l/m 14,3 km/h (3 Bft) O-NO 66 0 min 0,000 mm 0,0 UV-I 9 W/m -8,5 C -13,3 C 17,7 km/h (3 Bft) 96,00 %
19.01.2017 16:44 -5,6 C 80 % 1035,1 hPa 0,0 l/m 14,5 km/h (3 Bft) O 90 0 min 0,000 mm 0,0 UV-I 9 W/m -8,5 C -13,4 C 20,9 km/h (4 Bft) 100,00 %
19.01.2017 16:46 -5,7 C 80 % 1035,1 hPa 0,0 l/m 16,6 km/h (3 Bft) SO 125 0 min 0,000 mm 0,0 UV-I 8 W/m -8,6 C -15,0 C 22,5 km/h (4 Bft) 97,87 %
19.01.2017 16:48 -5,7 C 81 % 1035,1 hPa 0,0 l/m 18,8 km/h (3 Bft) O-NO 78 0 min 0,000 mm 0,0 UV-I 7 W/m -8,4 C -16,3 C 27,4 km/h (4 Bft) 100,00 %
19.01.2017 16:50 -5,7 C 81 % 1035,0 hPa 0,0 l/m 19,6 km/h (3 Bft) O-NO 78 0 min 0,000 mm 0,0 UV-I 7 W/m -8,4 C -16,8 C 27,4 km/h (4 Bft) 100,00 %
19.01.2017 16:52 -5,7 C 81 % 1035,0 hPa 0,0 l/m 14,1 km/h (3 Bft) O-NO 67 0 min 0,000 mm 0,0 UV-I 6 W/m -8,4 C -13,2 C 22,5 km/h (4 Bft) 100,00 %
19.01.2017 16:54 -5,6 C 81 % 1035,0 hPa 0,0 l/m 16,9 km/h (3 Bft) O 92 0 min 0,000 mm 0,0 UV-I 5 W/m -8,3 C -15,0 C 22,5 km/h (4 Bft) 100,00 %
19.01.2017 16:56 -5,6 C 81 % 1035,0 hPa 0,0 l/m 19,8 km/h (3 Bft) O-NO 70 0 min 0,000 mm 0,0 UV-I 5 W/m -8,3 C -16,8 C 24,1 km/h (4 Bft) 100,00 %
19.01.2017 16:58 -5,6 C 81 % 1035,0 hPa 0,0 l/m 15,0 km/h (3 Bft) NO 55 0 min 0,000 mm 0,0 UV-I 5 W/m -8,3 C -13,8 C 20,9 km/h (4 Bft) 97,87 %
19.01.2017 17:00 -5,6 C 80 % 1035,0 hPa 0,0 l/m 13,1 km/h (3 Bft) O-NO 68 0 min 0,000 mm 0,0 UV-I 5 W/m -8,5 C -12,3 C 24,1 km/h (4 Bft) 98,00 %
19.01.2017 17:02 -5,6 C 80 % 1035,1 hPa 0,0 l/m 17,7 km/h (3 Bft) O-NO 67 0 min 0,026 mm 0,0 UV-I 0 W/m -8,5 C -15,5 C 30,6 km/h (5 Bft) 100,00 %
19.01.2017 17:04 -5,5 C 80 % 1035,1 hPa 0,0 l/m 18,6 km/h (3 Bft) O-NO 67 0 min 0,000 mm 0,0 UV-I 0 W/m -8,4 C -15,9 C 25,7 km/h (4 Bft) 97,87 %
19.01.2017 17:06 -5,5 C 80 % 1035,2 hPa 0,0 l/m 15,0 km/h (3 Bft) O-NO 59 0 min 0,000 mm 0,0 UV-I 0 W/m -8,4 C -13,6 C 19,3 km/h (3 Bft) 97,96 %
19.01.2017 17:08 -5,6 C 80 % 1035,2 hPa 0,0 l/m 16,6 km/h (3 Bft) O-NO 58 0 min 0,000 mm 0,0 UV-I 0 W/m -8,5 C -14,8 C 24,1 km/h (4 Bft) 97,87 %
19.01.2017 17:10 -5,6 C 80 % 1035,2 hPa 0,0 l/m 15,3 km/h (3 Bft) O 87 0 min 0,000 mm 0,0 UV-I 0 W/m -8,5 C -14,0 C 20,9 km/h (4 Bft) 95,74 %
19.01.2017 17:12 -5,6 C 80 % 1035,1 hPa 0,0 l/m 15,1 km/h (3 Bft) O 84 0 min 0,000 mm 0,0 UV-I 0 W/m -8,5 C -13,8 C 20,9 km/h (4 Bft) 100,00 %
19.01.2017 17:14 -5,6 C 80 % 1035,2 hPa 0,0 l/m 14,0 km/h (3 Bft) O 82 0 min 0,000 mm 0,0 UV-I 0 W/m -8,5 C -13,0 C 22,5 km/h (4 Bft) 100,00 %
19.01.2017 17:16 -5,7 C 80 % 1035,1 hPa 0,0 l/m 12,2 km/h (2 Bft) O 82 0 min 0,000 mm 0,0 UV-I 0 W/m -8,6 C -11,7 C 17,7 km/h (3 Bft) 100,00 %
19.01.2017 17:18 -5,7 C 80 % 1035,1 hPa 0,0 l/m 10,4 km/h (2 Bft) O-NO 57 0 min 0,000 mm 0,0 UV-I 0 W/m -8,6 C -10,1 C 16,1 km/h (3 Bft) 100,00 %
19.01.2017 17:20 -5,8 C 81 % 1035,1 hPa 0,0 l/m 10,9 km/h (2 Bft) O-NO 74 0 min 0,000 mm 0,0 UV-I 0 W/m -8,5 C -10,7 C 17,7 km/h (3 Bft) 98,11 %
19.01.2017 17:22 -5,8 C 81 % 1035,1 hPa 0,0 l/m 10,6 km/h (2 Bft) NO 50 0 min 0,000 mm 0,0 UV-I 0 W/m -8,5 C -10,4 C 17,7 km/h (3 Bft) 95,74 %
19.01.2017 17:24 -5,8 C 81 % 1035,1 hPa 0,0 l/m 12,5 km/h (3 Bft) O-NO 72 0 min 0,000 mm 0,0 UV-I 0 W/m -8,5 C -12,1 C 17,7 km/h (3 Bft) 100,00 %
19.01.2017 17:26 -5,9 C 81 % 1035,2 hPa 0,0 l/m 11,1 km/h (2 Bft) O-NO 71 0 min 0,000 mm 0,0 UV-I 0 W/m -8,6 C -11,0 C 16,1 km/h (3 Bft) 97,56 %
19.01.2017 17:28 -5,9 C 81 % 1035,1 hPa 0,0 l/m 12,1 km/h (2 Bft) O-NO 62 0 min 0,000 mm 0,0 UV-I 0 W/m -8,6 C -11,9 C 17,7 km/h (3 Bft) 100,00 %
19.01.2017 17:30 -5,9 C 81 % 1035,1 hPa 0,0 l/m 15,5 km/h (3 Bft) O-NO 72 0 min 0,000 mm 0,0 UV-I 0 W/m -8,6 C -14,5 C 19,3 km/h (3 Bft) 97,87 %
19.01.2017 17:32 -5,9 C 81 % 1035,1 hPa 0,0 l/m 14,5 km/h (3 Bft) O-NO 73 0 min 0,000 mm 0,0 UV-I 0 W/m -8,6 C -13,8 C 24,1 km/h (4 Bft) 97,87 %
19.01.2017 17:34 -5,9 C 81 % 1035,1 hPa 0,0 l/m 13,8 km/h (3 Bft) O-NO 70 0 min 0,000 mm 0,0 UV-I 0 W/m -8,6 C -13,2 C 19,3 km/h (3 Bft) 100,00 %
19.01.2017 17:36 -5,9 C 81 % 1035,2 hPa 0,0 l/m 13,4 km/h (3 Bft) NO 44 0 min 0,000 mm 0,0 UV-I 0 W/m -8,6 C -12,9 C 19,3 km/h (3 Bft) 100,00 %
19.01.2017 17:38 -5,9 C 81 % 1035,2 hPa 0,0 l/m 12,8 km/h (3 Bft) O-NO 64 0 min 0,000 mm 0,0 UV-I 0 W/m -8,6 C -12,5 C 19,3 km/h (3 Bft) 100,00 %
19.01.2017 17:40 -5,9 C 81 % 1035,2 hPa 0,0 l/m 13,5 km/h (3 Bft) O 82 0 min 0,000 mm 0,0 UV-I 0 W/m -8,6 C -13,0 C 20,9 km/h (4 Bft) 100,00 %
19.01.2017 17:42 -6,0 C 81 % 1035,2 hPa 0,0 l/m 9,8 km/h (2 Bft) NO 51 0 min 0,000 mm 0,0 UV-I 0 W/m -8,7 C -9,9 C 16,1 km/h (3 Bft) 100,00 %
19.01.2017 17:44 -6,0 C 81 % 1035,2 hPa 0,0 l/m 12,9 km/h (3 Bft) O-NO 71 0 min 0,000 mm 0,0 UV-I 0 W/m -8,7 C -12,7 C 17,7 km/h (3 Bft) 100,00 %
19.01.2017 17:46 -6,0 C 81 % 1035,2 hPa 0,0 l/m 11,0 km/h (2 Bft) O-NO 65 0 min 0,000 mm 0,0 UV-I 0 W/m -8,7 C -11,0 C 19,3 km/h (3 Bft) 100,00 %
19.01.2017 17:48 -6,0 C 81 % 1035,2 hPa 0,0 l/m 15,0 km/h (3 Bft) O-NO 62 0 min 0,000 mm 0,0 UV-I 0 W/m -8,7 C -14,3 C 20,9 km/h (4 Bft) 100,00 %
19.01.2017 17:50 -5,9 C 81 % 1035,3 hPa 0,0 l/m 14,1 km/h (3 Bft) O-NO 57 0 min 0,000 mm 0,0 UV-I 0 W/m -8,6 C -13,5 C 24,1 km/h (4 Bft) 100,00 %
19.01.2017 17:52 -5,9 C 81 % 1035,3 hPa 0,0 l/m 14,6 km/h (3 Bft) O-NO 76 0 min 0,000 mm 0,0 UV-I 0 W/m -8,6 C -13,8 C 20,9 km/h (4 Bft) 97,87 %
19.01.2017 17:54 -6,0 C 81 % 1035,2 hPa 0,0 l/m 17,6 km/h (3 Bft) NO 55 0 min 0,000 mm 0,0 UV-I 0 W/m -8,7 C -16,0 C 22,5 km/h (4 Bft) 100,00 %
19.01.2017 17:56 -5,9 C 81 % 1035,2 hPa 0,0 l/m 15,3 km/h (3 Bft) NO 52 0 min 0,000 mm 0,0 UV-I 0 W/m -8,6 C -14,3 C 24,1 km/h (4 Bft) 97,87 %
19.01.2017 17:58 -5,9 C 81 % 1035,3 hPa 0,0 l/m 16,5 km/h (3 Bft) O-NO 67 0 min 0,000 mm 0,0 UV-I 0 W/m -8,6 C -15,2 C 25,7 km/h (4 Bft) 95,74 %
19.01.2017 18:00 -6,0 C 81 % 1035,3 hPa 0,0 l/m 15,8 km/h (3 Bft) O-NO 74 0 min 0,000 mm 0,0 UV-I 0 W/m -8,7 C -14,8 C 24,1 km/h (4 Bft) 97,87 %
19.01.2017 18:02 -6,0 C 81 % 1035,3 hPa 0,0 l/m 15,7 km/h (3 Bft) O-NO 61 0 min 0,025 mm 0,0 UV-I 0 W/m -8,7 C -14,7 C 22,5 km/h (4 Bft) 100,00 %
19.01.2017 18:04 -6,0 C 81 % 1035,3 hPa 0,0 l/m 14,2 km/h (3 Bft) O-NO 71 0 min 0,000 mm 0,0 UV-I 0 W/m -8,7 C -13,7 C 20,9 km/h (4 Bft) 100,00 %
19.01.2017 18:06 -6,1 C 81 % 1035,4 hPa 0,0 l/m 14,1 km/h (3 Bft) O-NO 57 0 min 0,000 mm 0,0 UV-I 0 W/m -8,8 C -13,7 C 20,9 km/h (4 Bft) 100,00 %
19.01.2017 18:08 -6,1 C 81 % 1035,4 hPa 0,0 l/m 15,2 km/h (3 Bft) O-NO 63 0 min 0,000 mm 0,0 UV-I 0 W/m -8,8 C -14,5 C 20,9 km/h (4 Bft) 97,87 %
19.01.2017 18:10 -6,1 C 81 % 1035,5 hPa 0,0 l/m 13,4 km/h (3 Bft) NO 41 0 min 0,000 mm 0,0 UV-I 0 W/m -8,8 C -13,2 C 19,3 km/h (3 Bft) 100,00 %
19.01.2017 18:12 -6,1 C 81 % 1035,5 hPa 0,0 l/m 14,2 km/h (3 Bft) O-NO 77 0 min 0,000 mm 0,0 UV-I 0 W/m -8,8 C -13,8 C 20,9 km/h (4 Bft) 100,00 %
19.01.2017 18:14 -6,1 C 81 % 1035,6 hPa 0,0 l/m 12,0 km/h (2 Bft) NO 42 0 min 0,000 mm 0,0 UV-I 0 W/m -8,8 C -12,0 C 17,7 km/h (3 Bft) 95,74 %
19.01.2017 18:16 -6,1 C 81 % 1035,6 hPa 0,0 l/m 11,9 km/h (2 Bft) NO 47 0 min 0,000 mm 0,0 UV-I 0 W/m -8,8 C -11,9 C 17,7 km/h (3 Bft) 97,87 %
19.01.2017 18:18 -6,2 C 81 % 1035,6 hPa 0,0 l/m 12,3 km/h (3 Bft) O-NO 76 0 min 0,000 mm 0,0 UV-I 0 W/m -8,9 C -12,4 C 17,7 km/h (3 Bft) 98,00 %
19.01.2017 18:20 -6,2 C 81 % 1035,6 hPa 0,0 l/m 16,4 km/h (3 Bft) O-NO 59 0 min 0,000 mm 0,0 UV-I 0 W/m -8,9 C -15,5 C 22,5 km/h (4 Bft) 97,87 %
19.01.2017 18:22 -6,2 C 82 % 1035,6 hPa 0,0 l/m 14,0 km/h (3 Bft) O-NO 69 0 min 0,000 mm 0,0 UV-I 0 W/m -8,8 C -13,8 C 19,3 km/h (3 Bft) 97,87 %
19.01.2017 18:24 -6,2 C 82 % 1035,5 hPa 0,0 l/m 15,3 km/h (3 Bft) O-NO 65 0 min 0,000 mm 0,0 UV-I 0 W/m -8,8 C -14,7 C 24,1 km/h (4 Bft) 97,37 %
19.01.2017 18:26 -6,2 C 82 % 1035,5 hPa 0,0 l/m 17,9 km/h (3 Bft) O 79 0 min 0,000 mm 0,0 UV-I 0 W/m -8,8 C -16,4 C 27,4 km/h (4 Bft) 94,00 %
19.01.2017 18:28 -6,2 C 82 % 1035,5 hPa 0,0 l/m 18,7 km/h (3 Bft) O 95 0 min 0,000 mm 0,0 UV-I 0 W/m -8,8 C -16,9 C 27,4 km/h (4 Bft) 97,87 %
19.01.2017 18:30 -6,2 C 82 % 1035,5 hPa 0,0 l/m 17,5 km/h (3 Bft) O-NO 65 0 min 0,000 mm 0,0 UV-I 0 W/m -8,8 C -16,2 C 25,7 km/h (4 Bft) 94,00 %
19.01.2017 18:32 -6,2 C 82 % 1035,5 hPa 0,0 l/m 20,0 km/h (4 Bft) O-NO 65 0 min 0,000 mm 0,0 UV-I 0 W/m -8,8 C -17,6 C 29,0 km/h (5 Bft) 95,74 %
19.01.2017 18:34 -6,2 C 82 % 1035,5 hPa 0,0 l/m 16,7 km/h (3 Bft) O 79 0 min 0,000 mm 0,0 UV-I 0 W/m -8,8 C -15,7 C 24,1 km/h (4 Bft) 97,87 %
19.01.2017 18:36 -6,2 C 82 % 1035,5 hPa 0,0 l/m 15,2 km/h (3 Bft) O 81 0 min 0,000 mm 0,0 UV-I 0 W/m -8,8 C -14,6 C 20,9 km/h (4 Bft) 97,87 %
19.01.2017 18:38 -6,2 C 82 % 1035,6 hPa 0,0 l/m 14,3 km/h (3 Bft) O-NO 71 0 min 0,000 mm 0,0 UV-I 0 W/m -8,8 C -14,0 C 20,9 km/h (4 Bft) 98,00 %
19.01.2017 18:40 -6,3 C 82 % 1035,5 hPa 0,0 l/m 16,3 km/h (3 Bft) O-NO 72 0 min 0,000 mm 0,0 UV-I 0 W/m -8,9 C -15,5 C 20,9 km/h (4 Bft) 93,62 %
19.01.2017 18:42 -6,3 C 82 % 1035,6 hPa 0,0 l/m 15,0 km/h (3 Bft) O 97 0 min 0,000 mm 0,0 UV-I 0 W/m -8,9 C -14,6 C 19,3 km/h (3 Bft) 97,87 %
19.01.2017 18:44 -6,2 C 82 % 1035,6 hPa 0,0 l/m 15,2 km/h (3 Bft) O-NO 67 0 min 0,000 mm 0,0 UV-I 0 W/m -8,8 C -14,6 C 22,5 km/h (4 Bft) 95,74 %
19.01.2017 18:46 -6,3 C 82 % 1035,7 hPa 0,0 l/m 12,9 km/h (3 Bft) O-NO 64 0 min 0,000 mm 0,0 UV-I 0 W/m -8,9 C -13,0 C 20,9 km/h (4 Bft) 95,74 %
19.01.2017 18:48 -6,3 C 82 % 1035,7 hPa 0,0 l/m 15,8 km/h (3 Bft) O 94 0 min 0,000 mm 0,0 UV-I 0 W/m -8,9 C -15,2 C 22,5 km/h (4 Bft) 100,00 %
19.01.2017 18:50 -6,3 C 82 % 1035,7 hPa 0,0 l/m 15,8 km/h (3 Bft) O-NO 66 0 min 0,000 mm 0,0 UV-I 0 W/m -8,9 C -15,2 C 25,7 km/h (4 Bft) 100,00 %
19.01.2017 18:52 -6,3 C 82 % 1035,7 hPa 0,0 l/m 13,8 km/h (3 Bft) O-NO 65 0 min 0,000 mm 0,0 UV-I 0 W/m -8,9 C -13,7 C 20,9 km/h (4 Bft) 100,00 %
19.01.2017 18:54 -6,3 C 82 % 1035,7 hPa 0,0 l/m 14,4 km/h (3 Bft) O-NO 78 0 min 0,000 mm 0,0 UV-I 0 W/m -8,9 C -14,2 C 19,3 km/h (3 Bft) 98,00 %
19.01.2017 18:56 -6,3 C 82 % 1035,8 hPa 0,0 l/m 14,5 km/h (3 Bft) O-NO 59 0 min 0,000 mm 0,0 UV-I 0 W/m -8,9 C -14,2 C 20,9 km/h (4 Bft) 97,87 %
19.01.2017 18:58 -6,3 C 82 % 1035,8 hPa 0,0 l/m 14,7 km/h (3 Bft) O-NO 70 0 min 0,000 mm 0,0 UV-I 0 W/m -8,9 C -14,4 C 20,9 km/h (4 Bft) 100,00 %
19.01.2017 19:00 -6,4 C 82 % 1035,8 hPa 0,0 l/m 17,6 km/h (3 Bft) O-NO 67 0 min 0,000 mm 0,0 UV-I 0 W/m -9,0 C -16,5 C 24,1 km/h (4 Bft) 97,87 %
19.01.2017 19:02 -6,4 C 82 % 1035,8 hPa 0,0 l/m 16,5 km/h (3 Bft) O-NO 57 0 min 0,025 mm 0,0 UV-I 0 W/m -9,0 C -15,8 C 24,1 km/h (4 Bft) 100,00 %
19.01.2017 19:04 -6,4 C 82 % 1035,8 hPa 0,0 l/m 16,0 km/h (3 Bft) O-NO 65 0 min 0,000 mm 0,0 UV-I 0 W/m -9,0 C -15,4 C 20,9 km/h (4 Bft) 97,87 %
19.01.2017 19:06 -6,4 C 83 % 1035,8 hPa 0,0 l/m 13,8 km/h (3 Bft) O-NO 61 0 min 0,000 mm 0,0 UV-I 0 W/m -8,8 C -13,8 C 20,9 km/h (4 Bft) 100,00 %
19.01.2017 19:08 -6,4 C 83 % 1035,8 hPa 0,0 l/m 13,4 km/h (3 Bft) O-NO 62 0 min 0,000 mm 0,0 UV-I 0 W/m -8,8 C -13,5 C 20,9 km/h (4 Bft) 100,00 %
19.01.2017 19:10 -6,4 C 83 % 1035,8 hPa 0,0 l/m 17,8 km/h (3 Bft) O-NO 64 0 min 0,000 mm 0,0 UV-I 0 W/m -8,8 C -16,6 C 27,4 km/h (4 Bft) 100,00 %
19.01.2017 19:12 -6,4 C 83 % 1035,8 hPa 0,0 l/m 16,0 km/h (3 Bft) O-NO 73 0 min 0,000 mm 0,0 UV-I 0 W/m -8,8 C -15,4 C 24,1 km/h (4 Bft) 100,00 %
19.01.2017 19:14 -6,4 C 83 % 1035,7 hPa 0,0 l/m 18,2 km/h (3 Bft) NO 51 0 min 0,000 mm 0,0 UV-I 0 W/m -8,8 C -16,9 C 25,7 km/h (4 Bft) 97,87 %
19.01.2017 19:16 -6,4 C 83 % 1035,8 hPa 0,0 l/m 15,3 km/h (3 Bft) NO 51 0 min 0,000 mm 0,0 UV-I 0 W/m -8,8 C -14,9 C 22,5 km/h (4 Bft) 100,00 %
19.01.2017 19:18 -6,4 C 83 % 1035,7 hPa 0,0 l/m 16,6 km/h (3 Bft) O-NO 58 0 min 0,000 mm 0,0 UV-I 0 W/m -8,8 C -15,8 C 24,1 km/h (4 Bft) 100,00 %
19.01.2017 19:20 -6,4 C 83 % 1035,8 hPa 0,0 l/m 10,5 km/h (2 Bft) NO 53 0 min 0,000 mm 0,0 UV-I 0 W/m -8,8 C -11,0 C 17,7 km/h (3 Bft) 100,00 %
19.01.2017 19:22 -6,5 C 82 % 1035,8 hPa 0,0 l/m 11,5 km/h (2 Bft) NO 51 0 min 0,000 mm 0,0 UV-I 0 W/m -9,0 C -12,0 C 19,3 km/h (3 Bft) 100,00 %
19.01.2017 19:24 -6,6 C 82 % 1035,9 hPa 0,0 l/m 8,9 km/h (2 Bft) O-NO 62 0 min 0,000 mm 0,0 UV-I 0 W/m -9,1 C -9,6 C 14,5 km/h (3 Bft) 98,00 %
19.01.2017 19:26 -6,6 C 83 % 1035,9 hPa 0,0 l/m 8,9 km/h (2 Bft) O-NO 74 0 min 0,000 mm 0,0 UV-I 0 W/m -9,0 C -9,6 C 16,1 km/h (3 Bft) 100,00 %
19.01.2017 19:28 -6,7 C 83 % 1035,9 hPa 0,0 l/m 10,4 km/h (2 Bft) NO 46 0 min 0,000 mm 0,0 UV-I 0 W/m -9,1 C -11,2 C 16,1 km/h (3 Bft) 97,87 %
19.01.2017 19:30 -6,7 C 83 % 1035,9 hPa 0,0 l/m 11,1 km/h (2 Bft) NO 56 0 min 0,000 mm 0,0 UV-I 0 W/m -9,1 C -11,9 C 17,7 km/h (3 Bft) 100,00 %
19.01.2017 19:32 -6,7 C 83 % 1035,8 hPa 0,0 l/m 7,2 km/h (2 Bft) NO 50 0 min 0,000 mm 0,0 UV-I 0 W/m -9,1 C -7,7 C 11,3 km/h (2 Bft) 97,87 %
19.01.2017 19:34 -6,7 C 83 % 1035,8 hPa 0,0 l/m 8,2 km/h (2 Bft) O-NO 58 0 min 0,000 mm 0,0 UV-I 0 W/m -9,1 C -8,9 C 12,9 km/h (3 Bft) 100,00 %
19.01.2017 19:36 -6,8 C 83 % 1035,8 hPa 0,0 l/m 9,8 km/h (2 Bft) NO 49 0 min 0,000 mm 0,0 UV-I 0 W/m -9,2 C -10,8 C 14,5 km/h (3 Bft) 100,00 %
19.01.2017 19:38 -6,8 C 83 % 1035,8 hPa 0,0 l/m 10,0 km/h (2 Bft) NO 53 0 min 0,000 mm 0,0 UV-I 0 W/m -9,2 C -11,0 C 14,5 km/h (3 Bft) 100,00 %
19.01.2017 19:40 -6,8 C 84 % 1035,8 hPa 0,0 l/m 8,1 km/h (2 Bft) NO 36 0 min 0,000 mm 0,0 UV-I 0 W/m -9,0 C -8,9 C 12,9 km/h (3 Bft) 100,00 %
19.01.2017 19:42 -6,9 C 83 % 1035,8 hPa 0,0 l/m 12,2 km/h (2 Bft) NO 54 0 min 0,000 mm 0,0 UV-I 0 W/m -9,3 C -13,1 C 19,3 km/h (3 Bft) 95,74 %
19.01.2017 19:44 -6,9 C 84 % 1035,8 hPa 0,0 l/m 8,6 km/h (2 Bft) O-NO 70 0 min 0,000 mm 0,0 UV-I 0 W/m -9,1 C -9,6 C 12,9 km/h (3 Bft) 100,00 %
19.01.2017 19:46 -7,1 C 84 % 1035,8 hPa 0,0 l/m 10,0 km/h (2 Bft) O-NO 59 0 min 0,000 mm 0,0 UV-I 0 W/m -9,3 C -11,3 C 16,1 km/h (3 Bft) 100,00 %
19.01.2017 19:48 -7,1 C 84 % 1035,8 hPa 0,0 l/m 9,3 km/h (2 Bft) O-NO 60 0 min 0,000 mm 0,0 UV-I 0 W/m -9,3 C -10,6 C 17,7 km/h (3 Bft) 100,00 %
19.01.2017 19:50 -7,2 C 84 % 1035,8 hPa 0,0 l/m 8,7 km/h (2 Bft) NO 55 0 min 0,000 mm 0,0 UV-I 0 W/m -9,4 C -10,0 C 12,9 km/h (3 Bft) 100,00 %
19.01.2017 19:52 -7,2 C 84 % 1035,8 hPa 0,0 l/m 8,6 km/h (2 Bft) NO 53 0 min 0,000 mm 0,0 UV-I 0 W/m -9,4 C -9,9 C 14,5 km/h (3 Bft) 100,00 %
19.01.2017 19:54 -7,2 C 85 % 1035,8 hPa 0,0 l/m 8,5 km/h (2 Bft) O-NO 68 0 min 0,000 mm 0,0 UV-I 0 W/m -9,3 C -9,8 C 14,5 km/h (3 Bft) 100,00 %
19.01.2017 19:56 -7,2 C 85 % 1035,7 hPa 0,0 l/m 12,5 km/h (3 Bft) O-NO 57 0 min 0,000 mm 0,0 UV-I 0 W/m -9,3 C -13,7 C 17,7 km/h (3 Bft) 100,00 %
19.01.2017 19:58 -7,1 C 85 % 1035,7 hPa 0,0 l/m 8,9 km/h (2 Bft) NO 55 0 min 0,000 mm 0,0 UV-I 0 W/m -9,2 C -10,1 C 17,7 km/h (3 Bft) 100,00 %
19.01.2017 20:00 -7,1 C 85 % 1035,8 hPa 0,0 l/m 12,4 km/h (3 Bft) NO 51 0 min 0,000 mm 0,0 UV-I 0 W/m -9,2 C -13,5 C 19,3 km/h (3 Bft) 95,74 %
19.01.2017 20:02 -7,0 C 85 % 1035,8 hPa 0,0 l/m 13,5 km/h (3 Bft) O-NO 69 0 min 0,000 mm 0,0 UV-I 0 W/m -9,1 C -14,3 C 19,3 km/h (3 Bft) 97,87 %
19.01.2017 20:04 -7,0 C 85 % 1035,8 hPa 0,0 l/m 18,0 km/h (3 Bft) O-NO 74 0 min 0,000 mm 0,0 UV-I 0 W/m -9,1 C -17,5 C 25,7 km/h (4 Bft) 100,00 %
19.01.2017 20:06 -6,9 C 85 % 1035,9 hPa 0,0 l/m 16,3 km/h (3 Bft) O-NO 75 0 min 0,000 mm 0,0 UV-I 0 W/m -9,0 C -16,3 C 20,9 km/h (4 Bft) 100,00 %
19.01.2017 20:08 -6,9 C 85 % 1035,9 hPa 0,0 l/m 16,4 km/h (3 Bft) O-NO 70 0 min 0,000 mm 0,0 UV-I 0 W/m -9,0 C -16,3 C 20,9 km/h (4 Bft) 97,50 %
19.01.2017 20:10 -6,8 C 85 % 1035,9 hPa 0,0 l/m 14,8 km/h (3 Bft) O-NO 75 0 min 0,000 mm 0,0 UV-I 0 W/m -8,9 C -15,1 C 20,9 km/h (4 Bft) 100,00 %
19.01.2017 20:12 -6,8 C 84 % 1035,9 hPa 0,0 l/m 17,0 km/h (3 Bft) O-NO 57 0 min 0,000 mm 0,0 UV-I 0 W/m -9,0 C -16,6 C 20,9 km/h (4 Bft) 97,87 %
19.01.2017 20:14 -6,7 C 84 % 1035,9 hPa 0,0 l/m 16,0 km/h (3 Bft) O-NO 69 0 min 0,000 mm 0,0 UV-I 0 W/m -8,9 C -15,8 C 22,5 km/h (4 Bft) 97,87 %
19.01.2017 20:16 -6,7 C 84 % 1035,9 hPa 0,0 l/m 15,1 km/h (3 Bft) NO 56 0 min 0,000 mm 0,0 UV-I 0 W/m -8,9 C -15,2 C 20,9 km/h (4 Bft) 100,00 %
19.01.2017 20:18 -6,7 C 84 % 1035,9 hPa 0,0 l/m 12,1 km/h (2 Bft) O 82 0 min 0,000 mm 0,0 UV-I 0 W/m -8,9 C -12,8 C 17,7 km/h (3 Bft) 95,74 %
19.01.2017 20:20 -6,7 C 84 % 1035,9 hPa 0,0 l/m 11,6 km/h (2 Bft) O-NO 60 0 min 0,000 mm 0,0 UV-I 0 W/m -8,9 C -12,4 C 17,7 km/h (3 Bft) 95,74 %
19.01.2017 20:22 -6,8 C 84 % 1035,9 hPa 0,0 l/m 12,5 km/h (3 Bft) O-NO 73 0 min 0,000 mm 0,0 UV-I 0 W/m -9,0 C -13,3 C 16,1 km/h (3 Bft) 95,74 %
19.01.2017 20:24 -6,8 C 84 % 1035,9 hPa 0,0 l/m 10,5 km/h (2 Bft) O-NO 62 0 min 0,000 mm 0,0 UV-I 0 W/m -9,0 C -11,5 C 16,1 km/h (3 Bft) 97,87 %
19.01.2017 20:26 -6,8 C 84 % 1035,9 hPa 0,0 l/m 10,8 km/h (2 Bft) NO 41 0 min 0,000 mm 0,0 UV-I 0 W/m -9,0 C -11,7 C 14,5 km/h (3 Bft) 97,87 %
19.01.2017 20:28 -6,9 C 84 % 1035,9 hPa 0,0 l/m 10,7 km/h (2 Bft) O-NO 69 0 min 0,000 mm 0,0 UV-I 0 W/m -9,1 C -11,8 C 17,7 km/h (3 Bft) 100,00 %
19.01.2017 20:30 -7,0 C 84 % 1035,9 hPa 0,0 l/m 10,9 km/h (2 Bft) O-NO 74 0 min 0,000 mm 0,0 UV-I 0 W/m -9,2 C -12,1 C 16,1 km/h (3 Bft) 97,87 %
19.01.2017 20:32 -7,0 C 84 % 1035,9 hPa 0,0 l/m 10,6 km/h (2 Bft) NO 53 0 min 0,000 mm 0,0 UV-I 0 W/m -9,2 C -11,8 C 14,5 km/h (3 Bft) 97,87 %
19.01.2017 20:34 -7,1 C 84 % 1035,9 hPa 0,0 l/m 11,5 km/h (2 Bft) O-NO 57 0 min 0,000 mm 0,0 UV-I 0 W/m -9,3 C -12,7 C 17,7 km/h (3 Bft) 91,49 %
19.01.2017 20:36 -7,1 C 84 % 1035,9 hPa 0,0 l/m 13,3 km/h (3 Bft) NO 49 0 min 0,000 mm 0,0 UV-I 0 W/m -9,3 C -14,3 C 17,7 km/h (3 Bft) 98,00 %
19.01.2017 20:38 -7,1 C 84 % 1035,9 hPa 0,0 l/m 10,9 km/h (2 Bft) O-NO 59 0 min 0,000 mm 0,0 UV-I 0 W/m -9,3 C -12,2 C 17,7 km/h (3 Bft) 97,87 %
19.01.2017 20:40 -7,1 C 84 % 1035,9 hPa 0,0 l/m 10,2 km/h (2 Bft) NO 54 0 min 0,000 mm 0,0 UV-I 0 W/m -9,3 C -11,5 C 14,5 km/h (3 Bft) 96,00 %
19.01.2017 20:42 -7,2 C 84 % 1035,9 hPa 0,0 l/m 10,4 km/h (2 Bft) O-NO 65 0 min 0,000 mm 0,0 UV-I 0 W/m -9,4 C -11,8 C 16,1 km/h (3 Bft) 97,87 %
19.01.2017 20:44 -7,2 C 84 % 1035,9 hPa 0,0 l/m 9,2 km/h (2 Bft) O 88 0 min 0,000 mm 0,0 UV-I 0 W/m -9,4 C -10,6 C 14,5 km/h (3 Bft) 95,74 %
19.01.2017 20:46 -7,2 C 84 % 1035,9 hPa 0,0 l/m 11,8 km/h (2 Bft) O 83 0 min 0,000 mm 0,0 UV-I 0 W/m -9,4 C -13,1 C 16,1 km/h (3 Bft) 97,92 %
19.01.2017 20:48 -7,2 C 85 % 1035,9 hPa 0,0 l/m 8,4 km/h (2 Bft) O-NO 72 0 min 0,000 mm 0,0 UV-I 0 W/m -9,3 C -9,7 C 14,5 km/h (3 Bft) 93,62 %
19.01.2017 20:50 -7,2 C 85 % 1036,0 hPa 0,0 l/m 12,5 km/h (3 Bft) O-NO 64 0 min 0,000 mm 0,0 UV-I 0 W/m -9,3 C -13,7 C 17,7 km/h (3 Bft) 97,87 %
19.01.2017 20:52 -7,2 C 85 % 1035,9 hPa 0,0 l/m 10,5 km/h (2 Bft) NO 55 0 min 0,000 mm 0,0 UV-I 0 W/m -9,3 C -11,9 C 14,5 km/h (3 Bft) 97,87 %
19.01.2017 20:54 -7,2 C 85 % 1035,9 hPa 0,0 l/m 10,1 km/h (2 Bft) NO 53 0 min 0,000 mm 0,0 UV-I 0 W/m -9,3 C -11,5 C 16,1 km/h (3 Bft) 100,00 %
19.01.2017 20:56 -7,3 C 84 % 1036,0 hPa 0,0 l/m 6,9 km/h (2 Bft) NO 45 0 min 0,000 mm 0,0 UV-I 0 W/m -9,5 C -7,9 C 9,7 km/h (2 Bft) 100,00 %
19.01.2017 20:58 -7,4 C 84 % 1036,0 hPa 0,0 l/m 7,7 km/h (2 Bft) NO 51 0 min 0,000 mm 0,0 UV-I 0 W/m -9,6 C -9,1 C 11,3 km/h (2 Bft) 97,87 %
19.01.2017 21:00 -7,6 C 85 % 1035,9 hPa 0,0 l/m 8,1 km/h (2 Bft) NO 53 0 min 0,000 mm 0,0 UV-I 0 W/m -9,7 C -9,7 C 11,3 km/h (2 Bft) 97,14 %
19.01.2017 21:02 -7,6 C 85 % 1035,9 hPa 0,0 l/m 6,9 km/h (2 Bft) NO 44 0 min 0,000 mm 0,0 UV-I 0 W/m -9,7 C -8,2 C 9,7 km/h (2 Bft) 97,87 %
19.01.2017 21:04 -7,6 C 85 % 1035,9 hPa 0,0 l/m 7,8 km/h (2 Bft) NO 41 0 min 0,000 mm 0,0 UV-I 0 W/m -9,7 C -9,4 C 14,5 km/h (3 Bft) 100,00 %
19.01.2017 21:06 -7,6 C 85 % 1036,0 hPa 0,0 l/m 10,2 km/h (2 Bft) O-NO 76 0 min 0,000 mm 0,0 UV-I 0 W/m -9,7 C -12,0 C 16,1 km/h (3 Bft) 97,87 %
19.01.2017 21:08 -7,6 C 85 % 1035,9 hPa 0,0 l/m 9,7 km/h (2 Bft) O-NO 57 0 min 0,000 mm 0,0 UV-I 0 W/m -9,7 C -11,5 C 16,1 km/h (3 Bft) 100,00 %
19.01.2017 21:10 -7,6 C 85 % 1035,9 hPa 0,0 l/m 9,7 km/h (2 Bft) O-NO 60 0 min 0,000 mm 0,0 UV-I 0 W/m -9,7 C -11,5 C 17,7 km/h (3 Bft) 98,00 %
19.01.2017 21:12 -7,6 C 86 % 1035,9 hPa 0,0 l/m 12,4 km/h (3 Bft) NO 53 0 min 0,000 mm 0,0 UV-I 0 W/m -9,5 C -14,1 C 19,3 km/h (3 Bft) 100,00 %
19.01.2017 21:14 -7,6 C 86 % 1035,8 hPa 0,0 l/m 14,0 km/h (3 Bft) O-NO 61 0 min 0,000 mm 0,0 UV-I 0 W/m -9,5 C -15,4 C 20,9 km/h (4 Bft) 100,00 %
19.01.2017 21:16 -7,6 C 86 % 1035,8 hPa 0,0 l/m 13,7 km/h (3 Bft) NO 52 0 min 0,000 mm 0,0 UV-I 0 W/m -9,5 C -15,2 C 17,7 km/h (3 Bft) 97,87 %
19.01.2017 21:18 -7,6 C 86 % 1035,8 hPa 0,0 l/m 14,2 km/h (3 Bft) NO 49 0 min 0,000 mm 0,0 UV-I 0 W/m -9,5 C -15,6 C 17,7 km/h (3 Bft) 100,00 %
19.01.2017 21:20 -7,5 C 86 % 1035,9 hPa 0,0 l/m 14,3 km/h (3 Bft) NO 49 0 min 0,000 mm 0,0 UV-I 0 W/m -9,4 C -15,5 C 19,3 km/h (3 Bft) 97,87 %
19.01.2017 21:22 -7,6 C 85 % 1035,9 hPa 0,0 l/m 13,9 km/h (3 Bft) O-NO 58 0 min 0,000 mm 0,0 UV-I 0 W/m -9,7 C -15,3 C 17,7 km/h (3 Bft) 97,92 %
19.01.2017 21:24 -7,6 C 85 % 1035,9 hPa 0,0 l/m 12,5 km/h (3 Bft) O-NO 74 0 min 0,000 mm 0,0 UV-I 0 W/m -9,7 C -14,2 C 17,7 km/h (3 Bft) 100,00 %
19.01.2017 21:26 -7,6 C 85 % 1035,9 hPa 0,0 l/m 14,0 km/h (3 Bft) NO 55 0 min 0,000 mm 0,0 UV-I 0 W/m -9,7 C -15,4 C 17,7 km/h (3 Bft) 100,00 %
19.01.2017 21:28 -7,7 C 85 % 1035,8 hPa 0,0 l/m 12,4 km/h (3 Bft) O-NO 61 0 min 0,000 mm 0,0 UV-I 0 W/m -9,8 C -14,2 C 17,7 km/h (3 Bft) 100,00 %
19.01.2017 21:30 -7,7 C 85 % 1035,9 hPa 0,0 l/m 12,1 km/h (2 Bft) NO 55 0 min 0,000 mm 0,0 UV-I 0 W/m -9,8 C -14,0 C 16,1 km/h (3 Bft) 97,87 %
19.01.2017 21:32 -7,8 C 85 % 1035,9 hPa 0,0 l/m 11,3 km/h (2 Bft) NO 48 0 min 0,000 mm 0,0 UV-I 0 W/m -9,9 C -13,3 C 16,1 km/h (3 Bft) 97,87 %
19.01.2017 21:34 -7,8 C 85 % 1035,9 hPa 0,0 l/m 10,8 km/h (2 Bft) O-NO 60 0 min 0,000 mm 0,0 UV-I 0 W/m -9,9 C -12,9 C 16,1 km/h (3 Bft) 97,87 %
19.01.2017 21:36 -7,9 C 85 % 1035,9 hPa 0,0 l/m 8,3 km/h (2 Bft) O-NO 65 0 min 0,000 mm 0,0 UV-I 0 W/m -10,0 C -10,3 C 14,5 km/h (3 Bft) 97,87 %
19.01.2017 21:38 -8,1 C 85 % 1036,0 hPa 0,0 l/m 7,3 km/h (2 Bft) NO 53 0 min 0,000 mm 0,0 UV-I 0 W/m -10,2 C -9,3 C 9,7 km/h (2 Bft) 97,87 %
19.01.2017 21:40 -8,2 C 86 % 1036,0 hPa 0,0 l/m 7,9 km/h (2 Bft) O-NO 61 0 min 0,000 mm 0,0 UV-I 0 W/m -10,1 C -10,1 C 11,3 km/h (2 Bft) 100,00 %
19.01.2017 21:42 -8,2 C 86 % 1036,0 hPa 0,0 l/m 6,6 km/h (2 Bft) NO 49 0 min 0,000 mm 0,0 UV-I 0 W/m -10,1 C -8,4 C 12,9 km/h (3 Bft) 100,00 %
19.01.2017 21:44 -8,2 C 86 % 1036,1 hPa 0,0 l/m 8,3 km/h (2 Bft) O-NO 66 0 min 0,000 mm 0,0 UV-I 0 W/m -10,1 C -10,6 C 14,5 km/h (3 Bft) 97,87 %
19.01.2017 21:46 -8,3 C 86 % 1036,1 hPa 0,0 l/m 8,1 km/h (2 Bft) NO 47 0 min 0,000 mm 0,0 UV-I 0 W/m -10,2 C -10,5 C 12,9 km/h (3 Bft) 95,74 %
19.01.2017 21:48 -8,3 C 86 % 1036,1 hPa 0,0 l/m 9,3 km/h (2 Bft) O-NO 57 0 min 0,000 mm 0,0 UV-I 0 W/m -10,2 C -11,9 C 12,9 km/h (3 Bft) 100,00 %
19.01.2017 21:50 -8,3 C 87 % 1036,1 hPa 0,0 l/m 9,5 km/h (2 Bft) O-NO 63 0 min 0,000 mm 0,0 UV-I 0 W/m -10,1 C -12,1 C 14,5 km/h (3 Bft) 100,00 %
19.01.2017 21:52 -8,3 C 87 % 1036,1 hPa 0,0 l/m 9,7 km/h (2 Bft) O-NO 65 0 min 0,000 mm 0,0 UV-I 0 W/m -10,1 C -12,3 C 14,5 km/h (3 Bft) 100,00 %
19.01.2017 21:54 -8,2 C 87 % 1036,1 hPa 0,0 l/m 8,9 km/h (2 Bft) O-NO 67 0 min 0,000 mm 0,0 UV-I 0 W/m -10,0 C -11,3 C 12,9 km/h (3 Bft) 100,00 %
19.01.2017 21:56 -8,2 C 87 % 1036,1 hPa 0,0 l/m 10,1 km/h (2 Bft) O-NO 63 0 min 0,000 mm 0,0 UV-I 0 W/m -10,0 C -12,6 C 14,5 km/h (3 Bft) 100,00 %
19.01.2017 21:58 -8,2 C 87 % 1036,1 hPa 0,0 l/m 9,2 km/h (2 Bft) O-NO 57 0 min 0,000 mm 0,0 UV-I 0 W/m -10,0 C -11,7 C 14,5 km/h (3 Bft) 97,87 %
19.01.2017 22:00 -8,2 C 87 % 1036,1 hPa 0,0 l/m 8,3 km/h (2 Bft) O-NO 57 0 min 0,000 mm 0,0 UV-I 0 W/m -10,0 C -10,6 C 12,9 km/h (3 Bft) 95,74 %
19.01.2017 22:02 -8,2 C 87 % 1036,1 hPa 0,0 l/m 9,4 km/h (2 Bft) O-NO 70 0 min 0,000 mm 0,0 UV-I 0 W/m -10,0 C -11,9 C 12,9 km/h (3 Bft) 95,74 %
19.01.2017 22:04 -8,2 C 87 % 1036,0 hPa 0,0 l/m 9,8 km/h (2 Bft) O-NO 57 0 min 0,000 mm 0,0 UV-I 0 W/m -10,0 C -12,3 C 12,9 km/h (3 Bft) 100,00 %
19.01.2017 22:06 -8,2 C 87 % 1036,0 hPa 0,0 l/m 10,0 km/h (2 Bft) NO 50 0 min 0,000 mm 0,0 UV-I 0 W/m -10,0 C -12,5 C 12,9 km/h (3 Bft) 100,00 %
19.01.2017 22:08 -8,2 C 87 % 1036,0 hPa 0,0 l/m 9,5 km/h (2 Bft) O-NO 74 0 min 0,000 mm 0,0 UV-I 0 W/m -10,0 C -12,0 C 12,9 km/h (3 Bft) 100,00 %
19.01.2017 22:10 -8,2 C 87 % 1036,0 hPa 0,0 l/m 8,1 km/h (2 Bft) O-NO 60 0 min 0,000 mm 0,0 UV-I 0 W/m -10,0 C -10,4 C 12,9 km/h (3 Bft) 100,00 %
19.01.2017 22:12 -8,3 C 87 % 1036,0 hPa 0,0 l/m 7,0 km/h (2 Bft) NO 53 0 min 0,000 mm 0,0 UV-I 0 W/m -10,1 C -9,1 C 9,7 km/h (2 Bft) 100,00 %
19.01.2017 22:14 -8,4 C 86 % 1036,0 hPa 0,0 l/m 9,0 km/h (2 Bft) NO 40 0 min 0,000 mm 0,0 UV-I 0 W/m -10,3 C -11,6 C 12,9 km/h (3 Bft) 100,00 %
19.01.2017 22:16 -8,7 C 86 % 1036,0 hPa 0,0 l/m 9,4 km/h (2 Bft) NO 38 0 min 0,000 mm 0,0 UV-I 0 W/m -10,6 C -12,4 C 14,5 km/h (3 Bft) 100,00 %
19.01.2017 22:18 -8,8 C 86 % 1035,9 hPa 0,0 l/m 8,8 km/h (2 Bft) NO 43 0 min 0,000 mm 0,0 UV-I 0 W/m -10,7 C -11,8 C 11,3 km/h (2 Bft) 97,87 %
19.01.2017 22:20 -8,9 C 86 % 1035,9 hPa 0,0 l/m 7,8 km/h (2 Bft) NO 37 0 min 0,000 mm 0,0 UV-I 0 W/m -10,8 C -10,7 C 9,7 km/h (2 Bft) 100,00 %
19.01.2017 22:22 -9,1 C 87 % 1035,9 hPa 0,0 l/m 8,3 km/h (2 Bft) N-NO 24 0 min 0,000 mm 0,0 UV-I 0 W/m -10,9 C -11,6 C 12,9 km/h (3 Bft) 97,37 %
19.01.2017 22:24 -9,2 C 87 % 1036,0 hPa 0,0 l/m 8,0 km/h (2 Bft) N-NO 28 0 min 0,000 mm 0,0 UV-I 0 W/m -11,0 C -11,3 C 12,9 km/h (3 Bft) 100,00 %
19.01.2017 22:26 -9,2 C 87 % 1036,0 hPa 0,0 l/m 8,5 km/h (2 Bft) NO 38 0 min 0,000 mm 0,0 UV-I 0 W/m -11,0 C -11,9 C 12,9 km/h (3 Bft) 95,74 %
19.01.2017 22:28 -9,3 C 87 % 1036,0 hPa 0,0 l/m 7,8 km/h (2 Bft) NO 45 0 min 0,000 mm 0,0 UV-I 0 W/m -11,1 C -11,2 C 11,3 km/h (2 Bft) 97,87 %
19.01.2017 22:30 -9,3 C 88 % 1036,0 hPa 0,0 l/m 8,9 km/h (2 Bft) NO 54 0 min 0,000 mm 0,0 UV-I 0 W/m -10,9 C -12,5 C 12,9 km/h (3 Bft) 97,37 %
19.01.2017 22:32 -9,3 C 88 % 1036,0 hPa 0,0 l/m 9,1 km/h (2 Bft) NO 46 0 min 0,000 mm 0,0 UV-I 0 W/m -10,9 C -12,7 C 14,5 km/h (3 Bft) 97,87 %
19.01.2017 22:34 -9,3 C 88 % 1036,0 hPa 0,0 l/m 7,4 km/h (2 Bft) O-NO 59 0 min 0,000 mm 0,0 UV-I 0 W/m -10,9 C -10,6 C 11,3 km/h (2 Bft) 95,74 %
19.01.2017 22:36 -9,2 C 89 % 1036,0 hPa 0,0 l/m 8,2 km/h (2 Bft) NO 47 0 min 0,000 mm 0,0 UV-I 0 W/m -10,7 C -11,6 C 12,9 km/h (3 Bft) 95,74 %
19.01.2017 22:38 -9,1 C 89 % 1035,9 hPa 0,0 l/m 7,7 km/h (2 Bft) NO 51 0 min 0,000 mm 0,0 UV-I 0 W/m -10,6 C -10,8 C 11,3 km/h (2 Bft) 95,74 %
19.01.2017 22:40 -9,1 C 89 % 1036,0 hPa 0,0 l/m 7,2 km/h (2 Bft) NO 45 0 min 0,000 mm 0,0 UV-I 0 W/m -10,6 C -10,2 C 12,9 km/h (3 Bft) 95,74 %
19.01.2017 22:42 -9,3 C 88 % 1036,0 hPa 0,0 l/m 8,3 km/h (2 Bft) N-NO 29 0 min 0,000 mm 0,0 UV-I 0 W/m -10,9 C -11,8 C 12,9 km/h (3 Bft) 97,87 %
19.01.2017 22:44 -9,3 C 88 % 1036,0 hPa 0,0 l/m 6,7 km/h (2 Bft) NO 39 0 min 0,000 mm 0,0 UV-I 0 W/m -10,9 C -9,7 C 9,7 km/h (2 Bft) 93,75 %
19.01.2017 22:46 -9,3 C 88 % 1036,0 hPa 0,0 l/m 7,4 km/h (2 Bft) NO 44 0 min 0,000 mm 0,0 UV-I 0 W/m -10,9 C -10,6 C 9,7 km/h (2 Bft) 95,74 %
19.01.2017 22:48 -9,3 C 89 % 1036,0 hPa 0,0 l/m 7,4 km/h (2 Bft) NO 48 0 min 0,000 mm 0,0 UV-I 0 W/m -10,8 C -10,6 C 11,3 km/h (2 Bft) 97,87 %
19.01.2017 22:50 -9,2 C 89 % 1036,0 hPa 0,0 l/m 7,2 km/h (2 Bft) O-NO 59 0 min 0,000 mm 0,0 UV-I 0 W/m -10,7 C -10,3 C 9,7 km/h (2 Bft) 96,00 %
19.01.2017 22:52 -9,1 C 89 % 1036,0 hPa 0,0 l/m 6,6 km/h (2 Bft) O-NO 57 0 min 0,000 mm 0,0 UV-I 0 W/m -10,6 C -9,3 C 9,7 km/h (2 Bft) 95,74 %
19.01.2017 22:54 -8,9 C 90 % 1036,0 hPa 0,0 l/m 6,5 km/h (2 Bft) O-NO 61 0 min 0,000 mm 0,0 UV-I 0 W/m -10,2 C -9,0 C 9,7 km/h (2 Bft) 97,87 %
19.01.2017 22:56 -8,9 C 89 % 1036,0 hPa 0,0 l/m 6,4 km/h (2 Bft) O-NO 63 0 min 0,000 mm 0,0 UV-I 0 W/m -10,4 C -8,8 C 9,7 km/h (2 Bft) 95,74 %
19.01.2017 22:58 -8,8 C 89 % 1036,0 hPa 0,0 l/m 7,8 km/h (2 Bft) NO 55 0 min 0,000 mm 0,0 UV-I 0 W/m -10,3 C -10,6 C 14,5 km/h (3 Bft) 96,00 %
19.01.2017 23:00 -8,8 C 89 % 1036,1 hPa 0,0 l/m 8,7 km/h (2 Bft) O-NO 64 0 min 0,000 mm 0,0 UV-I 0 W/m -10,3 C -11,7 C 11,3 km/h (2 Bft) 97,87 %
19.01.2017 23:02 -8,8 C 89 % 1036,1 hPa 0,0 l/m 8,7 km/h (2 Bft) NO 55 0 min 0,000 mm 0,0 UV-I 0 W/m -10,3 C -11,7 C 12,9 km/h (3 Bft) 97,87 %
19.01.2017 23:04 -8,9 C 89 % 1036,1 hPa 0,0 l/m 8,0 km/h (2 Bft) NO 48 0 min 0,000 mm 0,0 UV-I 0 W/m -10,4 C -11,0 C 14,5 km/h (3 Bft) 100,00 %
19.01.2017 23:06 -8,9 C 89 % 1036,1 hPa 0,0 l/m 7,4 km/h (2 Bft) O-NO 65 0 min 0,000 mm 0,0 UV-I 0 W/m -10,4 C -10,2 C 12,9 km/h (3 Bft) 94,74 %
19.01.2017 23:08 -8,9 C 89 % 1036,0 hPa 0,0 l/m 8,6 km/h (2 Bft) O-NO 61 0 min 0,000 mm 0,0 UV-I 0 W/m -10,4 C -11,7 C 14,5 km/h (3 Bft) 98,00 %
19.01.2017 23:10 -8,9 C 89 % 1036,0 hPa 0,0 l/m 8,6 km/h (2 Bft) O-NO 68 0 min 0,000 mm 0,0 UV-I 0 W/m -10,4 C -11,7 C 12,9 km/h (3 Bft) 100,00 %
19.01.2017 23:12 -8,9 C 89 % 1036,0 hPa 0,0 l/m 7,5 km/h (2 Bft) O-NO 60 0 min 0,000 mm 0,0 UV-I 0 W/m -10,4 C -10,4 C 9,7 km/h (2 Bft) 100,00 %
19.01.2017 23:14 -8,9 C 88 % 1035,9 hPa 0,0 l/m 7,1 km/h (2 Bft) NO 50 0 min 0,000 mm 0,0 UV-I 0 W/m -10,5 C -9,8 C 9,7 km/h (2 Bft) 95,74 %
19.01.2017 23:16 -9,1 C 88 % 1035,9 hPa 0,0 l/m 7,6 km/h (2 Bft) O-NO 59 0 min 0,000 mm 0,0 UV-I 0 W/m -10,7 C -10,7 C 9,7 km/h (2 Bft) 100,00 %
19.01.2017 23:18 -9,1 C 89 % 1035,9 hPa 0,0 l/m 7,3 km/h (2 Bft) NO 53 0 min 0,000 mm 0,0 UV-I 0 W/m -10,6 C -10,3 C 9,7 km/h (2 Bft) 100,00 %
19.01.2017 23:20 -9,1 C 89 % 1035,8 hPa 0,0 l/m 6,1 km/h (2 Bft) NO 51 0 min 0,000 mm 0,0 UV-I 0 W/m -10,6 C -9,1 C 9,7 km/h (2 Bft) 100,00 %
19.01.2017 23:22 -9,1 C 89 % 1035,8 hPa 0,0 l/m 6,4 km/h (2 Bft) O-NO 65 0 min 0,000 mm 0,0 UV-I 0 W/m -10,6 C -9,0 C 8,0 km/h (2 Bft) 96,15 %
19.01.2017 23:24 -9,1 C 89 % 1035,9 hPa 0,0 l/m 6,5 km/h (2 Bft) NO 48 0 min 0,000 mm 0,0 UV-I 0 W/m -10,6 C -9,2 C 9,7 km/h (2 Bft) 100,00 %
19.01.2017 23:26 -9,1 C 89 % 1035,8 hPa 0,0 l/m 6,3 km/h (2 Bft) O-NO 61 0 min 0,000 mm 0,0 UV-I 0 W/m -10,6 C -9,1 C 8,0 km/h (2 Bft) 97,92 %
19.01.2017 23:28 -9,1 C 89 % 1035,8 hPa 0,0 l/m 7,2 km/h (2 Bft) O-NO 71 0 min 0,000 mm 0,0 UV-I 0 W/m -10,6 C -10,2 C 9,7 km/h (2 Bft) 100,00 %
19.01.2017 23:30 -8,9 C 89 % 1035,8 hPa 0,0 l/m 8,4 km/h (2 Bft) O 82 0 min 0,000 mm 0,0 UV-I 0 W/m -10,4 C -11,5 C 12,9 km/h (3 Bft) 100,00 %
19.01.2017 23:32 -8,9 C 89 % 1035,7 hPa 0,0 l/m 10,1 km/h (2 Bft) O 82 0 min 0,000 mm 0,0 UV-I 0 W/m -10,4 C -13,4 C 14,5 km/h (3 Bft) 100,00 %
19.01.2017 23:34 -8,8 C 90 % 1035,7 hPa 0,0 l/m 9,5 km/h (2 Bft) O-NO 74 0 min 0,000 mm 0,0 UV-I 0 W/m -10,1 C -12,6 C 14,5 km/h (3 Bft) 100,00 %
19.01.2017 23:36 -8,7 C 89 % 1035,7 hPa 0,0 l/m 10,3 km/h (2 Bft) O-NO 77 0 min 0,000 mm 0,0 UV-I 0 W/m -10,2 C -13,4 C 16,1 km/h (3 Bft) 97,87 %
19.01.2017 23:38 -8,6 C 89 % 1035,7 hPa 0,0 l/m 10,3 km/h (2 Bft) O-NO 68 0 min 0,000 mm 0,0 UV-I 0 W/m -10,1 C -13,3 C 14,5 km/h (3 Bft) 100,00 %
19.01.2017 23:40 -8,6 C 89 % 1035,8 hPa 0,0 l/m 9,8 km/h (2 Bft) O-NO 63 0 min 0,000 mm 0,0 UV-I 0 W/m -10,1 C -12,7 C 14,5 km/h (3 Bft) 97,87 %
19.01.2017 23:42 -8,7 C 89 % 1035,8 hPa 0,0 l/m 6,8 km/h (2 Bft) NO 50 0 min 0,000 mm 0,0 UV-I 0 W/m -10,2 C -9,2 C 12,9 km/h (3 Bft) 98,00 %
19.01.2017 23:44 -9,1 C 87 % 1035,9 hPa 0,0 l/m 6,3 km/h (2 Bft) NO 36 0 min 0,000 mm 0,0 UV-I 0 W/m -10,9 C -9,1 C 8,0 km/h (2 Bft) 97,87 %
19.01.2017 23:46 -9,3 C 87 % 1035,9 hPa 0,0 l/m 6,0 km/h (2 Bft) NO 47 0 min 0,000 mm 0,0 UV-I 0 W/m -11,1 C -9,3 C 8,0 km/h (2 Bft) 100,00 %
19.01.2017 23:48 -9,4 C 87 % 1035,9 hPa 0,0 l/m 5,0 km/h (1 Bft) NO 42 0 min 0,000 mm 0,0 UV-I 0 W/m -11,2 C -9,4 C 8,0 km/h (2 Bft) 97,87 %
19.01.2017 23:50 -9,5 C 88 % 1036,0 hPa 0,0 l/m 5,3 km/h (1 Bft) NO 46 0 min 0,000 mm 0,0 UV-I 0 W/m -11,1 C -9,5 C 6,4 km/h (2 Bft) 100,00 %
19.01.2017 23:52 -9,6 C 88 % 1035,9 hPa 0,0 l/m 5,7 km/h (1 Bft) NO 53 0 min 0,000 mm 0,0 UV-I 0 W/m -11,2 C -9,6 C 8,0 km/h (2 Bft) 100,00 %
19.01.2017 23:54 -9,7 C 88 % 1036,0 hPa 0,0 l/m 5,9 km/h (2 Bft) O-NO 63 0 min 0,000 mm 0,0 UV-I 0 W/m -11,3 C -9,7 C 11,3 km/h (2 Bft) 96,00 %
19.01.2017 23:56 -9,6 C 89 % 1036,0 hPa 0,0 l/m 5,7 km/h (1 Bft) O-NO 65 0 min 0,000 mm 0,0 UV-I 0 W/m -11,1 C -9,6 C 9,7 km/h (2 Bft) 97,87 %
19.01.2017 23:58 -9,5 C 89 % 1036,0 hPa 0,0 l/m 7,9 km/h (2 Bft) O-NO 69 0 min 0,000 mm 0,0 UV-I 0 W/m -11,0 C -11,5 C 11,3 km/h (2 Bft) 100,00 %
_ Min-Zeit 08:22 15:22 16:04 - 00:00 - - - - - - 08:22 07:00 00:00 01:06
Minimum _ -10,4 C 77 % 1034,9 hPa - 5,0 km/h (1 Bft) - - - - - - -11,4 C -19,9 C 6,4 km/h (2 Bft) 91,49 %
_ Max-Zeit 15:10 08:48 10:12 00:00 13:14 - - 07:58 12:02 11:34 12:16 14:06 19:32 17:02 00:00
Maximum _ -4,7 C 93 % 1036,9 hPa 0,0 l/m 20,1 km/h
O-NO (4 Bft)
- - 2 min 0,102 mm 0,7 UV-I 375 W/m -8,0 C -7,7 C 30,6 km/h
O-NO (5 Bft)
100,00 %
Durchschnitt _ -7,7 C 86 % 1035,8 hPa #0,0 l/m 12,9 km/h (3 Bft) O-NO - #7:50 h #0,660 mm 0,6 UV-I 204 W/m -9,6 C -14,3 C 18,4 km/h (3 Bft) 98,28 %